[[{"header":{"parameterUnit":"m.s-1","parameterCategory":1,"la1":31.0,"la2":29.5877,"lo1":-88.7671,"lo2":-86.6584,"dy":0.0162,"dx":0.0185,"nx":115,"ny":88,"refTime":"2023-05-11T06:00:00:Z","depth":0,"parameterNumber":2,"parameterNumberName":"U-component_of_WINDS"},"data":[0.0,0.0,0.0,0.0,0.0,0.0,0.0,0.0,0.0,0.0,0.0,0.0,0.0,0.0,0.0,0.0,0.0,0.0,0.0,0.0,0.0,0.0,0.0,0.0,0.0,0.0,0.0,0.0,0.0,0.0,0.0,0.0,0.0,0.0,0.0,0.0,0.0,0.0,0.0,0.0,0.0,0.0,0.0,0.0,0.0,0.0,0.0,0.0,0.0,0.0,0.0,0.0,0.0,0.0,0.0,0.0,0.0,0.0,0.0,0.0,0.0,0.0,0.0,0.0,0.0,0.0,0.0,0.0,0.0,0.0,0.0,0.0,0.0,0.0,0.0,0.0,0.0,0.0,0.0,0.0,0.0,0.0,0.0,0.0,0.0,0.0,0.0,0.0,0.0,0.0,0.0,0.0,0.0,0.0,0.0,0.0,0.0,0.0,0.0,0.0,0.0,0.0,0.0,0.0,0.0,0.0,0.0,0.0,0.0,0.0,0.0,0.0,0.0,0.0,0.0,0.0,0.0,0.0,0.0,0.0,0.0,0.0,0.0,0.0,0.0,0.0,0.0,0.0,0.0,0.0,0.0,0.0,0.0,0.0,0.0,0.0,0.0,0.0,0.0,0.0,0.0,0.0,0.0,0.0,0.0,0.0,0.0,0.0,0.0,0.0,0.0,0.0,0.0,0.0,0.0,0.0,0.0,0.0,0.0,0.0,0.0,0.0,0.0,0.0,0.0,0.0,0.0,0.0,0.0,0.0,0.0,0.0,0.0,0.0,0.0,0.0,0.0,0.0,0.0,0.0,0.0,0.0,0.0,0.0,0.0,0.0,0.0,0.0,0.0,0.0,0.0,0.0,0.0,0.0,0.0,0.0,0.0,0.0,0.0,0.0,0.0,0.0,0.0,0.0,0.0,0.0,0.0,0.0,0.0,0.0,0.0,0.0,0.0,0.0,0.0,0.0,0.0,0.0,0.0,0.0,0.0,0.0,0.0,0.0,0.0,0.0,0.0,0.0,0.0,0.0,0.0,0.0,0.0,0.0,0.0,0.0,0.0,0.0,0.0,0.0,0.0,0.0,0.0,0.0,0.0,0.0,0.0,0.0,0.0,0.0,0.0,0.0,0.0,0.0,0.0,0.0,0.0,0.0,0.0,0.0,0.0,0.0,0.0,0.0,0.0,0.0,0.0,0.0,0.0,0.0,0.0,0.0,0.0,0.0,0.0,0.0,0.0,0.0,0.0,0.0,0.0,0.0,0.0,0.0,0.0,0.0,0.0,0.0,0.0,0.0,0.0,0.0,0.0,0.0,0.0,0.0,0.0,0.0,0.0,0.0,0.0,0.0,0.0,0.0,0.0,0.0,0.0,0.0,0.0,0.0,0.0,0.0,0.0,0.0,0.0,0.0,0.0,0.0,0.0,0.0,0.0,0.0,0.0,0.0,0.0,0.0,0.0,0.0,0.0,0.0,0.0,0.0,0.0,0.0,0.0,0.0,0.0,0.0,0.0,0.0,0.0,0.0,0.0,0.0,0.0,0.0,0.0,0.0,0.0,0.0,0.0,0.0,0.0,0.0,0.0,0.0,0.0,0.0,0.0,0.0,0.0,0.0,0.0,0.0,0.0,0.0,0.0,0.0,0.0,0.0,0.0,0.0,0.0,0.0,0.0,0.0,0.0,0.0,0.0,0.0,0.0,0.0,0.0,0.0,0.0,0.0,0.0,0.0,0.0,0.0,0.0,0.0,0.0,0.0,0.0,0.0,0.0,0.0,0.0,0.0,0.0,0.0,0.0,0.0,0.0,0.0,0.0,0.0,0.0,0.0,0.0,0.0,0.0,0.0,0.0,0.0,0.0,0.0,0.0,0.0,0.0,0.0,0.0,0.0,0.0,0.0,0.0,0.0,0.0,0.0,0.0,0.0,0.0,0.0,0.0,0.0,0.0,0.0,0.0,0.0,0.0,0.0,0.0,0.0,0.0,0.0,0.0,0.0,0.0,0.0,0.0,0.0,0.0,0.0,0.0,0.0,0.0,0.0,0.0,0.0,0.0,0.0,0.0,0.0,0.0,0.0,0.0,0.0,0.0,0.0,0.0,0.0,0.0,0.0,0.0,0.0,0.0,0.0,0.0,0.0,0.0,0.0,0.0,0.0,0.0,0.0,0.0,0.0,0.0,0.0,0.0,0.0,0.0,0.0,0.0,0.0,0.0,0.0,0.0,0.0,0.0,0.0,0.0,0.0,0.0,0.0,0.0,0.0,0.0,0.0,0.0,0.0,0.0,0.0,0.0,0.0,0.0,0.0,0.0,0.0,0.0,0.0,0.0,0.0,0.0,0.0,0.0,0.0,0.0,0.0,0.0,0.0,0.0,0.0,0.0,0.0,0.0,0.0,0.0,0.0,0.0,0.0,0.0,0.0,0.0,0.0,0.0,0.0,0.0,0.0,0.0,0.0,0.0,0.0,0.0,0.0,0.0,0.0,0.0,0.0,0.0,0.0,0.0,0.0,0.0,0.0,0.0,0.0,0.0,0.0,0.0,0.0,0.0,0.0,0.0,0.0,0.0,0.0,0.0,0.0,0.0,0.0,0.0,0.0,0.0,0.0,0.0,0.0,0.0,0.0,0.0,0.0,0.0,0.0,0.0,0.0,0.0,0.0,0.0,0.0,0.0,0.0,0.0,0.0,0.0,0.0,0.0,0.0,0.0,0.0,0.0,0.0,0.0,0.0,0.0,0.0,0.0,0.0,0.0,0.0,0.0,0.0,0.0,0.0,0.0,0.0,0.0,0.0,0.0,0.0,0.0,0.0,0.0,0.0,0.0,0.0,0.0,0.0,0.0,0.0,0.0,0.0,0.0,0.0,0.0,0.0,0.0,0.0,0.0,0.0,0.0,0.0,0.0,0.0,0.0,0.0,0.0,0.0,0.0,0.0,0.0,0.0,0.0,0.0,0.0,0.0,0.0,0.0,0.0,0.0,0.0,0.0,0.0,0.0,0.0,0.0,0.0,0.0,0.0,0.0,0.0,0.0,0.0,0.0,0.0,0.0,0.0,0.0,0.0,0.0,0.0,0.0,0.0,0.0,0.0,0.0,0.0,0.0,0.0,0.0,0.0,0.0,0.0,0.0,0.0,0.0,0.0,0.0,0.0,0.0,0.0,0.0,0.0,0.0,0.0,0.0,0.0,0.0,0.0,0.0,0.0,0.0,0.0,0.0,0.0,0.0,0.0,0.0,0.0,0.0,0.0,0.0,0.0,0.0,0.0,0.0,0.0,0.0,0.0,0.0,0.0,0.0,0.0,0.0,0.0,0.0,0.0,0.0,0.0,0.0,0.0,0.0,0.0,0.0,0.0,0.0,0.0,0.0,0.0,0.0,0.0,0.0,0.0,0.0,0.0,0.0,0.0,0.0,0.0,0.0,0.0,0.0,0.0,0.0,0.0,0.0,0.0,0.0,0.0,0.0,0.0,0.0,0.0,0.0,0.0,0.0,0.0,0.0,0.0,0.0,0.0,0.0,0.0,0.0,0.0,0.0,0.0,0.0,0.0,0.0,0.0,0.0,0.0,0.0,0.0,0.0,0.0,0.0,0.0,0.0,0.0,0.0,0.0,0.0,0.0,0.0,0.0,0.0,0.0,0.0,0.0,0.0,0.0,0.0,0.0,0.0,0.0,0.0,0.0,0.0,0.0,0.0,0.0,0.0,0.0,0.0,0.0,0.0,0.0,0.0,0.0,0.0,0.0,0.0,0.0,0.0,0.0,0.0,0.0,0.0,0.0,0.0,0.0,0.0,0.0,0.0,0.0,0.0,0.0,0.0,0.0,0.0,0.0,0.0,0.0,0.0,0.0,0.0,0.0,0.0,0.0,0.0,0.0,0.0,0.0,0.0,0.0,0.0,0.0,0.0,0.0,0.0,0.0,0.0,0.0,0.0,0.0,0.0,0.0,0.0,0.0,0.0,0.0,0.0,0.0,0.0,0.0,0.0,0.0,0.0,0.0,0.0,0.0,0.0,0.0,0.0,0.0,0.0,0.0,0.0,0.0,0.0,0.0,0.0,0.0,0.0,0.0,0.0,0.0,0.0,0.0,0.0,0.0,0.0,0.0,0.0,0.0,0.0,0.0,0.0,0.0,0.0,0.0,0.0,0.0,0.0,0.0,0.0,0.0,0.0,0.0,0.0,0.0,0.0,0.0,0.0,0.0,0.0,0.0,0.0,0.0,0.0,0.0,0.0,0.0,0.0,0.0,0.0,0.0,0.0,0.0,0.0,0.0,0.0,0.0,0.0,-0.807,0.0,0.0,0.0,0.0,0.0,0.0,0.0,0.0,0.0,0.0,0.0,0.0,0.0,0.0,0.0,0.0,0.0,0.0,0.0,0.0,0.0,0.0,0.0,0.0,0.0,0.0,0.0,0.0,0.0,0.0,0.0,0.0,0.0,0.0,0.0,0.0,0.0,0.0,0.0,0.0,0.0,0.0,0.0,0.0,0.0,0.0,0.0,0.0,0.0,0.0,0.0,0.0,0.0,0.0,0.0,0.0,0.0,0.0,0.0,0.0,0.0,0.0,0.0,0.0,0.0,0.0,0.0,0.0,0.0,0.0,0.0,0.0,0.0,0.0,0.0,0.0,0.0,0.0,0.0,0.0,0.0,0.0,0.0,0.0,0.0,0.0,0.0,0.0,0.0,0.0,0.0,0.0,0.0,0.0,0.0,0.0,0.0,0.0,0.0,0.0,0.0,0.0,0.0,0.0,0.0,0.0,0.0,0.0,0.0,0.0,-0.8332,-0.8216,-0.8139,-0.807,-0.7992,0.0,0.0,0.0,0.0,0.0,0.0,0.0,0.0,0.0,0.0,0.0,0.0,0.0,0.0,0.0,0.0,0.0,0.0,0.0,0.0,0.0,0.0,0.0,0.0,0.0,0.0,0.0,0.0,0.0,0.0,0.0,0.0,0.0,0.0,0.0,0.0,0.0,0.0,0.0,0.0,0.0,0.0,0.0,0.0,0.0,0.0,0.0,0.0,0.0,0.0,0.0,0.0,0.0,0.0,0.0,0.0,0.0,0.0,0.0,0.0,0.0,0.0,0.0,0.0,0.0,0.0,0.0,0.0,0.0,0.0,0.0,0.0,0.0,0.0,0.0,0.0,0.0,0.0,0.0,0.0,0.0,0.0,0.0,0.0,0.0,0.0,0.0,0.0,0.0,0.0,0.0,0.0,0.0,0.0,0.0,0.0,0.0,0.0,0.0,0.0,0.0,0.0,0.0,0.0,0.0,0.0,0.0,0.0,0.0,0.0,0.0,0.0,-0.8041,-0.7979,-0.7925,0.0,0.0,0.0,0.0,0.0,0.0,0.0,0.0,0.0,0.0,0.0,0.0,0.0,0.0,0.0,0.0,0.0,0.0,0.0,0.0,0.0,0.0,0.0,0.0,0.0,0.0,0.0,0.0,0.0,0.0,0.0,0.0,0.0,0.0,0.0,0.0,0.0,0.0,0.0,0.0,0.0,0.0,0.0,0.0,0.0,0.0,0.0,0.0,0.0,0.0,0.0,0.0,0.0,0.0,0.0,0.0,0.0,0.0,0.0,0.0,0.0,0.0,0.0,0.0,0.0,0.0,0.0,0.0,0.0,0.0,0.0,0.0,0.0,0.0,0.0,0.0,0.0,0.0,0.0,0.0,0.0,0.0,0.0,0.0,0.0,0.0,0.0,0.0,0.0,0.0,0.0,0.0,0.0,0.0,0.0,0.0,0.0,0.0,0.0,0.0,0.0,0.0,0.0,0.0,0.0,0.0,0.0,0.0,0.0,0.0,-0.8283,-0.8021,-0.7992,0.0,-0.7774,0.0,0.0,0.0,0.0,0.0,0.0,0.0,0.0,0.0,0.0,0.0,0.0,0.0,0.0,0.0,0.0,0.0,0.0,0.0,0.0,0.0,0.0,0.0,0.0,0.0,0.0,0.0,0.0,0.0,0.0,0.0,0.0,0.0,0.0,0.0,0.0,0.0,0.0,0.0,0.0,0.0,0.0,0.0,0.0,0.0,0.0,0.0,0.0,0.0,0.0,0.0,0.0,0.0,0.0,0.0,0.0,0.0,0.0,0.0,0.0,0.0,0.0,0.0,0.0,0.0,0.0,0.0,0.0,0.0,0.0,0.0,0.0,0.0,0.0,0.0,0.0,0.0,0.0,0.0,0.0,0.0,0.0,0.0,0.0,0.0,0.0,0.0,0.0,0.0,0.0,0.0,0.0,0.0,0.0,0.0,0.0,0.0,0.0,0.0,0.0,0.0,0.0,0.0,0.0,0.0,0.0,0.0,0.0,0.0,0.0,-0.8262,-0.7992,-0.7884,-0.7787,0.0,0.0,0.0,0.0,0.0,0.0,0.0,0.0,0.0,0.0,0.0,0.0,0.0,0.0,0.0,0.0,0.0,0.0,0.0,0.0,0.0,0.0,0.0,0.0,0.0,0.0,0.0,0.0,0.0,0.0,0.0,0.0,0.0,0.0,0.0,0.0,0.0,0.0,0.0,0.0,0.0,0.0,0.0,0.0,0.0,0.0,0.0,0.0,0.0,0.0,0.0,0.0,0.0,0.0,0.0,0.0,0.0,0.0,0.0,0.0,0.0,0.0,0.0,0.0,0.0,0.0,0.0,0.0,0.0,0.0,0.0,0.0,0.0,0.0,0.0,0.0,0.0,0.0,0.0,0.0,0.0,0.0,0.0,0.0,0.0,0.0,0.0,0.0,0.0,0.0,0.0,0.0,0.0,0.0,0.0,0.0,0.0,0.0,0.0,0.0,0.0,0.0,0.0,0.0,0.0,0.0,0.0,0.0,0.0,0.0,-0.8828,-0.8595,-0.8282,-0.8125,-0.7981,-0.7851,0.0,0.0,0.0,0.0,0.0,0.0,0.0,0.0,0.0,0.0,0.0,0.0,0.0,0.0,0.0,0.0,0.0,0.0,0.0,0.0,0.0,0.0,0.0,0.0,0.0,0.0,0.0,0.0,0.0,0.0,0.0,0.0,0.0,0.0,0.0,0.0,0.0,0.0,0.0,0.0,0.0,0.0,0.0,0.0,0.0,0.0,0.0,0.0,0.0,0.0,0.0,0.0,0.0,0.0,0.0,0.0,0.0,0.0,0.0,0.0,0.0,0.0,0.0,0.0,0.0,0.0,0.0,0.0,0.0,0.0,0.0,0.0,0.0,0.0,0.0,0.0,0.0,0.0,0.0,0.0,0.0,0.0,0.0,0.0,0.0,0.0,0.0,0.0,0.0,0.0,0.0,0.0,0.0,0.0,0.0,0.0,0.0,0.0,0.0,0.0,0.0,0.0,0.0,0.0,0.0,0.0,0.0,0.0,-0.9755,-0.9595,-0.9351,-0.8952,-0.8882,-0.8632,0.0,0.0,0.0,0.0,0.0,0.0,0.0,0.0,0.0,0.0,0.0,0.0,0.0,0.0,0.0,0.0,0.0,0.0,0.0,0.0,0.0,0.0,0.0,0.0,0.0,0.0,0.0,0.0,0.0,0.0,0.0,0.0,0.0,0.0,0.0,0.0,0.0,0.0,0.0,0.0,0.0,0.0,0.0,0.0,0.0,0.0,0.0,0.0,0.0,0.0,0.0,0.0,0.0,0.0,0.0,0.0,0.0,0.0,0.0,0.0,0.0,0.0,0.0,0.0,0.0,0.0,0.0,0.0,0.0,0.0,0.0,0.0,0.0,0.0,0.0,0.0,0.0,0.0,0.0,0.0,0.0,0.0,0.0,0.0,0.0,0.0,0.0,0.0,0.0,0.0,0.0,0.0,0.0,0.0,0.0,0.0,0.0,0.0,0.0,0.0,0.0,0.0,0.0,0.0,0.0,0.0,0.0,0.0,0.0,-0.9935,-0.9667,-0.9414,-0.9206,-0.9004,-0.8835,0.0,0.0,0.0,0.0,0.0,0.0,0.0,0.0,0.0,0.0,0.0,0.0,0.0,0.0,0.0,0.0,0.0,0.0,0.0,0.0,0.0,0.0,0.0,0.0,0.0,0.0,0.0,0.0,0.0,0.0,0.0,0.0,0.0,0.0,0.0,0.0,0.0,0.0,0.0,0.0,0.0,0.0,0.0,0.0,0.0,0.0,0.0,0.0,0.0,0.0,0.0,0.0,0.0,0.0,0.0,0.0,0.0,0.0,0.0,0.0,0.0,0.0,0.0,0.0,0.0,0.0,0.0,0.0,0.0,0.0,0.0,0.0,0.0,0.0,0.0,0.0,0.0,0.0,0.0,0.0,0.0,0.0,0.0,0.0,0.0,0.0,0.0,0.0,0.0,0.0,0.0,0.0,0.0,0.0,0.0,0.0,0.0,0.0,0.0,0.0,0.0,0.0,0.0,0.0,0.0,0.0,0.0,0.0,0.0,-1.0358,0.0,-0.9827,0.0,-0.9403,-0.9182,0.0,0.0,0.0,0.0,0.0,0.0,0.0,0.0,0.0,0.0,0.0,0.0,0.0,0.0,0.0,0.0,0.0,0.0,0.0,0.0,0.0,0.0,0.0,0.0,0.0,0.0,0.0,0.0,0.0,0.0,0.0,0.0,0.0,0.0,0.0,0.0,0.0,0.0,0.0,0.0,0.0,0.0,0.0,0.0,0.0,0.0,0.0,0.0,0.0,0.0,0.0,0.0,0.0,0.0,0.0,0.0,0.0,0.0,0.0,0.0,0.0,0.0,0.0,0.0,0.0,0.0,0.0,0.0,0.0,0.0,0.0,0.0,0.0,0.0,0.0,0.0,0.0,0.0,0.0,0.0,0.0,0.0,0.0,0.0,0.0,0.0,0.0,0.0,0.0,0.0,0.0,0.0,0.0,0.0,0.0,0.0,0.0,0.0,0.0,0.0,0.0,0.0,0.0,0.0,0.0,0.0,0.0,0.0,-1.1511,-1.1133,-1.0854,-1.065,-1.0488,-1.0164,-0.9822,0.0,0.0,0.0,0.0,0.0,0.0,0.0,0.0,0.0,0.0,0.0,0.0,0.0,0.0,0.0,0.0,0.0,0.0,0.0,0.0,0.0,0.0,0.0,0.0,0.0,0.0,0.0,0.0,0.0,0.0,0.0,0.0,0.0,0.0,0.0,0.0,0.0,0.0,0.0,0.0,0.0,0.0,0.0,0.0,0.0,0.0,0.0,0.0,0.0,0.0,0.0,0.0,0.0,0.0,0.0,0.0,0.0,0.0,0.0,0.0,0.0,0.0,0.0,0.0,0.0,0.0,0.0,0.0,0.0,0.0,0.0,0.0,0.0,0.0,0.0,0.0,0.0,0.0,0.0,0.0,0.0,0.0,0.0,0.0,0.0,0.0,0.0,0.0,0.0,0.0,0.0,0.0,0.0,0.0,0.0,0.0,0.0,0.0,0.0,0.0,0.0,0.0,0.0,0.0,0.0,0.0,0.0,0.0,0.0,-1.202,-1.1722,-1.139,-1.1003,-1.0703,-1.0302,0.0,0.0,0.0,0.0,0.0,0.0,0.0,0.0,0.0,0.0,0.0,0.0,0.0,0.0,0.0,0.0,0.0,0.0,0.0,0.0,0.0,0.0,0.0,0.0,0.0,0.0,0.0,0.0,0.0,0.0,0.0,0.0,0.0,0.0,0.0,0.0,0.0,0.0,0.0,0.0,0.0,0.0,0.0,0.0,0.0,0.0,0.0,0.0,0.0,0.0,0.0,0.0,0.0,0.0,0.0,0.0,0.0,0.0,0.0,0.0,0.0,0.0,0.0,0.0,0.0,0.0,0.0,0.0,0.0,0.0,0.0,0.0,0.0,0.0,0.0,0.0,0.0,0.0,0.0,0.0,0.0,0.0,0.0,0.0,0.0,0.0,0.0,0.0,0.0,0.0,0.0,0.0,0.0,0.0,0.0,0.0,0.0,0.0,0.0,0.0,0.0,0.0,0.0,0.0,0.0,0.0,0.0,0.0,0.0,-1.3197,-1.247,-1.19,-1.1513,-1.1205,-1.0802,-1.0257,0.0,0.0,0.0,0.0,0.0,0.0,0.0,0.0,0.0,0.0,0.0,0.0,0.0,0.0,0.0,0.0,0.0,0.0,0.0,0.0,0.0,0.0,0.0,0.0,0.0,0.0,0.0,0.0,0.0,0.0,0.0,0.0,0.0,0.0,0.0,0.0,0.0,0.0,0.0,0.0,0.0,0.0,0.0,0.0,0.0,0.0,0.0,0.0,0.0,0.0,0.0,0.0,0.0,0.0,0.0,0.0,0.0,0.0,0.0,0.0,0.0,0.0,0.0,0.0,0.0,0.0,0.0,0.0,0.0,0.0,0.0,0.0,0.0,0.0,0.0,0.0,0.0,0.0,0.0,0.0,0.0,0.0,0.0,0.0,0.0,0.0,0.0,0.0,0.0,0.0,0.0,0.0,0.0,0.0,0.0,0.0,0.0,0.0,0.0,0.0,0.0,0.0,0.0,0.0,0.0,0.0,0.0,0.0,-1.4648,-1.3132,-1.2265,-1.2074,-1.1756,-1.1292,0.0,0.0,0.0,0.0,0.0,0.0,0.0,0.0,0.0,0.0,0.0,0.0,0.0,0.0,0.0,0.0,0.0,0.0,0.0,0.0,0.0,0.0,0.0,0.0,0.0,0.0,0.0,0.0,0.0,0.0,0.0,0.0,0.0,0.0,0.0,0.0,0.0,0.0,0.0,0.0,0.0,0.0,0.0,0.0,0.0,0.0,0.0,0.0,0.0,0.0,0.0,0.0,0.0,0.0,0.0,0.0,0.0,0.0,0.0,0.0,0.0,0.0,0.0,0.0,0.0,0.0,0.0,0.0,0.0,0.0,0.0,0.0,0.0,0.0,0.0,0.0,0.0,0.0,0.0,0.0,0.0,0.0,0.0,0.0,0.0,0.0,0.0,0.0,0.0,0.0,0.0,0.0,0.0,0.0,0.0,0.0,0.0,0.0,0.0,0.0,0.0,0.0,0.0,0.0,0.0,0.0,0.0,0.0,0.0,-1.5236,-1.4561,-1.3732,-1.2854,-1.2582,-1.2017,0.0,0.0,0.0,0.0,0.0,0.0,0.0,0.0,0.0,0.0,0.0,0.0,0.0,0.0,0.0,0.0,0.0,0.0,0.0,0.0,0.0,0.0,0.0,0.0,0.0,0.0,0.0,0.0,0.0,0.0,0.0,0.0,0.0,0.0,0.0,0.0,0.0,0.0,0.0,0.0,0.0,0.0,0.0,0.0,0.0,0.0,0.0,0.0,0.0,0.0,0.0,0.0,0.0,0.0,0.0,0.0,0.0,0.0,0.0,0.0,0.0,0.0,0.0,0.0,0.0,0.0,0.0,0.0,0.0,0.0,0.0,0.0,0.0,0.0,0.0,0.0,0.0,0.0,0.0,0.0,0.0,0.0,0.0,0.0,0.0,0.0,0.0,0.0,0.0,0.0,0.0,0.0,0.0,0.0,0.0,0.0,0.0,0.0,0.0,0.0,0.0,0.0,0.0,0.0,0.0,0.0,0.0,0.0,-1.6028,-1.596,-1.5659,-1.509,-1.4301,-1.3512,-1.2726,0.0,0.0,0.0,0.0,0.0,0.0,0.0,0.0,0.0,0.0,0.0,0.0,0.0,0.0,0.0,0.0,0.0,0.0,0.0,0.0,0.0,0.0,0.0,0.0,0.0,0.0,0.0,0.0,0.0,0.0,0.0,0.0,0.0,0.0,0.0,0.0,0.0,0.0,0.0,0.0,0.0,0.0,0.0,0.0,0.0,0.0,0.0,0.0,0.0,0.0,0.0,0.0,0.0,0.0,0.0,0.0,0.0,0.0,0.0,0.0,0.0,0.0,0.0,0.0,0.0,0.0,0.0,0.0,0.0,0.0,0.0,0.0,0.0,0.0,0.0,0.0,0.0,0.0,0.0,0.0,0.0,0.0,0.0,0.0,0.0,0.0,0.0,0.0,0.0,0.0,0.0,0.0,0.0,0.0,0.0,0.0,0.0,0.0,0.0,0.0,0.0,0.0,0.0,0.0,0.0,0.0,0.0,0.0,-1.6751,-1.6764,-1.6528,-1.6334,-1.6051,-1.453,-1.3377,0.0,0.0,0.0,0.0,0.0,0.0,0.0,0.0,0.0,0.0,0.0,0.0,0.0,0.0,0.0,0.0,0.0,0.0,0.0,0.0,0.0,0.0,0.0,0.0,0.0,0.0,0.0,0.0,0.0,0.0,0.0,0.0,0.0,0.0,0.0,0.0,0.0,0.0,0.0,0.0,0.0,0.0,0.0,0.0,0.0,0.0,0.0,0.0,0.0,0.0,0.0,0.0,0.0,0.0,0.0,0.0,0.0,0.0,0.0,0.0,0.0,0.0,0.0,0.0,0.0,0.0,0.0,0.0,0.0,0.0,0.0,0.0,0.0,0.0,0.0,0.0,0.0,0.0,0.0,0.0,0.0,0.0,0.0,0.0,0.0,0.0,0.0,0.0,0.0,0.0,0.0,0.0,0.0,0.0,0.0,0.0,0.0,0.0,0.0,0.0,0.0,0.0,0.0,0.0,0.0,0.0,0.0,0.0,-1.7771,-1.7779,-1.7412,-1.7236,-1.7153,-1.54,-1.4073,0.0,0.0,0.0,0.0,0.0,0.0,0.0,0.0,0.0,0.0,0.0,0.0,0.0,0.0,0.0,0.0,0.0,0.0,0.0,0.0,0.0,0.0,0.0,0.0,0.0,0.0,0.0,0.0,0.0,0.0,0.0,0.0,0.0,0.0,0.0,0.0,0.0,0.0,0.0,0.0,0.0,0.0,0.0,0.0,0.0,0.0,0.0,0.0,-1.0672,0.0,0.0,0.0,0.0,0.0,0.0,0.0,0.0,0.0,0.0,0.0,0.0,0.0,0.0,0.0,0.0,0.0,0.0,0.0,0.0,0.0,0.0,0.0,0.0,0.0,0.0,0.0,0.0,0.0,0.0,0.0,0.0,0.0,0.0,0.0,0.0,0.0,0.0,0.0,0.0,0.0,0.0,0.0,0.0,0.0,0.0,0.0,0.0,0.0,0.0,0.0,0.0,0.0,0.0,0.0,0.0,0.0,0.0,0.0,-1.8422,-1.8488,-1.7873,-1.7572,-1.7705,-1.6105,-1.4932,0.0,0.0,0.0,0.0,0.0,0.0,0.0,0.0,0.0,0.0,0.0,0.0,0.0,0.0,0.0,0.0,0.0,0.0,0.0,0.0,0.0,0.0,0.0,0.0,0.0,0.0,0.0,0.0,0.0,0.0,0.0,0.0,0.0,0.0,0.0,0.0,0.0,0.0,0.0,0.0,0.0,0.0,0.0,0.0,0.0,0.0,0.0,0.0,0.0,0.0,0.0,0.0,0.0,0.0,0.0,0.0,0.0,0.0,0.0,0.0,0.0,0.0,0.0,0.0,0.0,0.0,0.0,0.0,0.0,0.0,0.0,0.0,0.0,0.0,0.0,0.0,0.0,0.0,0.0,0.0,0.0,0.0,0.0,0.0,0.0,0.0,0.0,0.0,0.0,0.0,0.0,0.0,0.0,0.0,0.0,0.0,0.0,0.0,0.0,0.0,0.0,0.0,0.0,0.0,0.0,0.0,0.0,-1.8697,-1.8873,-1.9029,-1.8172,-1.7858,-1.8168,-1.6733,-1.5802,-1.5458,0.0,0.0,0.0,0.0,0.0,0.0,0.0,0.0,0.0,0.0,0.0,0.0,0.0,0.0,0.0,0.0,0.0,0.0,0.0,0.0,0.0,0.0,0.0,0.0,0.0,0.0,0.0,0.0,0.0,0.0,0.0,0.0,0.0,0.0,0.0,0.0,0.0,0.0,-1.3395,-1.3314,0.0,0.0,0.0,0.0,0.0,0.0,0.0,0.0,-1.2056,0.0,0.0,0.0,0.0,0.0,0.0,0.0,0.0,0.0,0.0,0.0,0.0,0.0,0.0,0.0,0.0,0.0,0.0,0.0,0.0,0.0,0.0,0.0,0.0,0.0,0.0,0.0,0.0,0.0,0.0,0.0,0.0,0.0,0.0,0.0,0.0,0.0,0.0,0.0,0.0,0.0,0.0,0.0,0.0,0.0,0.0,0.0,0.0,0.0,0.0,0.0,0.0,0.0,0.0,0.0,0.0,-1.8908,-1.9098,-1.9306,-1.9485,-1.8849,-1.8541,-1.8545,-1.7409,-1.6531,-1.6088,0.0,0.0,0.0,0.0,0.0,0.0,0.0,0.0,0.0,0.0,0.0,0.0,0.0,0.0,0.0,0.0,0.0,0.0,0.0,0.0,0.0,0.0,0.0,0.0,0.0,0.0,0.0,0.0,0.0,0.0,0.0,0.0,0.0,0.0,0.0,0.0,0.0,0.0,0.0,-1.4005,-1.4082,0.0,0.0,0.0,0.0,0.0,0.0,0.0,0.0,-1.2189,0.0,0.0,0.0,0.0,0.0,0.0,0.0,0.0,0.0,0.0,0.0,0.0,0.0,0.0,0.0,0.0,0.0,0.0,0.0,0.0,0.0,0.0,0.0,0.0,0.0,0.0,0.0,0.0,0.0,0.0,0.0,0.0,0.0,0.0,0.0,0.0,0.0,0.0,0.0,0.0,0.0,0.0,0.0,0.0,0.0,0.0,0.0,0.0,0.0,0.0,0.0,0.0,0.0,0.0,0.0,-1.9471,-1.9802,-2.0025,-2.0113,-1.9557,-1.9206,-1.8993,-1.7811,-1.6994,0.0,0.0,0.0,0.0,0.0,0.0,0.0,0.0,0.0,0.0,0.0,0.0,0.0,0.0,0.0,0.0,0.0,0.0,0.0,0.0,0.0,0.0,0.0,0.0,0.0,0.0,0.0,0.0,0.0,0.0,0.0,0.0,0.0,0.0,0.0,0.0,0.0,0.0,0.0,0.0,-1.4895,-1.5045,-1.5083,0.0,0.0,0.0,0.0,0.0,0.0,-1.3558,-1.3379,0.0,0.0,0.0,0.0,0.0,0.0,0.0,0.0,0.0,0.0,0.0,0.0,0.0,0.0,0.0,0.0,0.0,0.0,0.0,0.0,0.0,0.0,0.0,0.0,0.0,0.0,0.0,0.0,0.0,0.0,0.0,0.0,0.0,0.0,0.0,0.0,0.0,0.0,0.0,0.0,0.0,0.0,0.0,0.0,0.0,0.0,0.0,0.0,0.0,0.0,0.0,0.0,0.0,0.0,0.0,-2.0049,-2.0426,-2.0654,-2.0709,-2.0105,-1.966,-1.9392,-1.8233,-1.7415,0.0,0.0,0.0,0.0,0.0,0.0,0.0,0.0,0.0,0.0,0.0,0.0,0.0,0.0,0.0,0.0,0.0,0.0,0.0,0.0,0.0,0.0,0.0,0.0,0.0,0.0,0.0,0.0,0.0,0.0,0.0,0.0,0.0,0.0,0.0,0.0,0.0,0.0,0.0,0.0,0.0,-1.5978,-1.6208,-1.6256,0.0,0.0,0.0,0.0,-1.4935,-1.4827,0.0,0.0,0.0,0.0,0.0,0.0,0.0,0.0,0.0,0.0,0.0,0.0,0.0,0.0,0.0,0.0,0.0,0.0,0.0,0.0,0.0,0.0,0.0,0.0,0.0,0.0,0.0,0.0,0.0,0.0,0.0,0.0,0.0,0.0,0.0,0.0,0.0,0.0,0.0,0.0,0.0,0.0,0.0,0.0,0.0,0.0,0.0,0.0,0.0,0.0,0.0,0.0,0.0,0.0,0.0,0.0,-2.0527,-2.056,-2.0787,-2.1046,-2.025,-1.9793,-1.9749,-1.8742,-1.7912,0.0,0.0,0.0,0.0,0.0,0.0,0.0,0.0,0.0,0.0,0.0,0.0,0.0,0.0,0.0,0.0,0.0,0.0,0.0,0.0,0.0,0.0,0.0,0.0,0.0,0.0,0.0,0.0,0.0,0.0,0.0,0.0,0.0,0.0,0.0,0.0,0.0,0.0,0.0,0.0,0.0,-1.6754,-1.6487,-1.6475,-1.6402,0.0,0.0,-1.6023,-1.5625,-1.556,0.0,0.0,0.0,0.0,0.0,0.0,0.0,0.0,0.0,0.0,0.0,0.0,0.0,0.0,0.0,0.0,0.0,0.0,0.0,0.0,0.0,0.0,0.0,0.0,0.0,0.0,0.0,0.0,0.0,0.0,0.0,0.0,0.0,0.0,0.0,0.0,0.0,0.0,0.0,0.0,0.0,0.0,0.0,0.0,0.0,0.0,0.0,0.0,0.0,0.0,0.0,0.0,0.0,0.0,0.0,-2.0904,-2.0947,-2.1161,-2.1362,-2.1509,-2.0873,-2.0403,-2.0199,-1.9119,-1.833,0.0,0.0,0.0,0.0,0.0,0.0,0.0,0.0,0.0,0.0,0.0,0.0,0.0,0.0,0.0,0.0,0.0,0.0,0.0,0.0,0.0,0.0,0.0,0.0,0.0,0.0,0.0,0.0,0.0,0.0,0.0,0.0,0.0,0.0,0.0,0.0,0.0,0.0,0.0,0.0,0.0,0.0,-1.7609,-1.755,0.0,0.0,0.0,-1.6926,-1.6445,0.0,0.0,0.0,0.0,0.0,0.0,0.0,0.0,0.0,0.0,0.0,0.0,0.0,0.0,0.0,0.0,0.0,0.0,0.0,0.0,0.0,0.0,0.0,0.0,0.0,0.0,0.0,0.0,0.0,0.0,0.0,0.0,0.0,0.0,0.0,0.0,0.0,0.0,0.0,0.0,0.0,0.0,0.0,0.0,0.0,0.0,0.0,0.0,0.0,0.0,0.0,0.0,0.0,0.0,0.0,0.0,0.0,-2.1562,-2.1725,-2.184,-2.1944,-2.1336,-2.0864,-2.0633,-1.9591,0.0,0.0,0.0,0.0,0.0,0.0,0.0,0.0,0.0,0.0,0.0,0.0,0.0,0.0,0.0,0.0,0.0,0.0,0.0,0.0,0.0,0.0,0.0,0.0,0.0,0.0,0.0,-1.5043,0.0,0.0,0.0,0.0,0.0,0.0,0.0,0.0,0.0,0.0,0.0,0.0,0.0,0.0,-1.8566,-1.8831,-1.8758,-1.8665,0.0,0.0,-1.8031,-1.7571,-1.7455,-1.7214,0.0,0.0,0.0,0.0,0.0,0.0,0.0,0.0,0.0,0.0,0.0,0.0,0.0,0.0,0.0,0.0,0.0,0.0,0.0,0.0,0.0,0.0,0.0,0.0,0.0,0.0,0.0,0.0,0.0,0.0,0.0,0.0,0.0,0.0,0.0,0.0,0.0,0.0,0.0,0.0,0.0,0.0,0.0,0.0,0.0,0.0,0.0,0.0,0.0,0.0,0.0,0.0,0.0,0.0,0.0,-2.2402,-2.2021,-2.1981,-2.234,-2.1472,-2.0979,-2.0953,-2.0111,-1.9419,0.0,0.0,0.0,0.0,0.0,0.0,0.0,0.0,0.0,0.0,0.0,0.0,0.0,0.0,0.0,0.0,0.0,0.0,0.0,0.0,0.0,0.0,0.0,0.0,0.0,0.0,0.0,0.0,0.0,0.0,0.0,0.0,0.0,0.0,0.0,0.0,0.0,0.0,0.0,0.0,0.0,-1.9997,-1.9828,-1.9802,-1.9782,0.0,0.0,-1.9397,-1.916,-1.8969,-1.8797,-1.8521,0.0,0.0,0.0,0.0,0.0,0.0,0.0,0.0,0.0,0.0,0.0,0.0,0.0,0.0,0.0,0.0,0.0,0.0,0.0,0.0,0.0,0.0,0.0,0.0,0.0,0.0,0.0,0.0,0.0,0.0,0.0,0.0,0.0,0.0,0.0,0.0,0.0,0.0,0.0,0.0,0.0,0.0,0.0,0.0,0.0,0.0,0.0,0.0,0.0,0.0,0.0,0.0,0.0,-2.2595,-2.251,-2.2547,-2.2615,-2.2721,-2.1871,-2.1369,-2.1369,-2.0276,-1.947,0.0,0.0,0.0,0.0,0.0,0.0,0.0,0.0,0.0,0.0,0.0,0.0,0.0,0.0,0.0,0.0,0.0,0.0,0.0,0.0,0.0,0.0,0.0,0.0,0.0,0.0,0.0,0.0,-1.7239,-1.763,-1.8566,0.0,0.0,0.0,0.0,0.0,0.0,0.0,0.0,0.0,0.0,-2.0288,-2.0206,-2.0145,0.0,0.0,-1.9929,-1.9749,-1.9677,-1.9495,-1.9277,-1.9095,-1.8735,0.0,0.0,0.0,0.0,0.0,0.0,0.0,0.0,0.0,0.0,0.0,0.0,0.0,0.0,0.0,0.0,0.0,0.0,0.0,0.0,0.0,0.0,0.0,0.0,0.0,0.0,0.0,0.0,0.0,0.0,0.0,0.0,0.0,0.0,0.0,0.0,0.0,0.0,0.0,0.0,0.0,0.0,0.0,0.0,0.0,0.0,0.0,0.0,0.0,0.0,0.0,0.0,-2.3115,-2.2891,-2.2942,-2.3059,-2.3227,-2.2279,-2.1777,-2.176,-2.064,-1.9853,0.0,0.0,0.0,0.0,0.0,0.0,0.0,0.0,0.0,0.0,0.0,0.0,0.0,0.0,0.0,0.0,0.0,0.0,0.0,0.0,0.0,0.0,0.0,0.0,0.0,0.0,0.0,0.0,-1.8301,-1.8872,-1.9895,0.0,0.0,0.0,0.0,0.0,0.0,0.0,0.0,0.0,0.0,-2.1248,-2.1248,-2.1158,-2.1093,-2.1093,-2.0924,-2.0802,-2.0802,-2.0624,-2.0436,-2.022,0.0,0.0,0.0,0.0,0.0,0.0,0.0,0.0,0.0,0.0,0.0,0.0,0.0,0.0,0.0,0.0,0.0,0.0,0.0,0.0,0.0,0.0,0.0,0.0,0.0,0.0,0.0,0.0,0.0,0.0,-1.7861,0.0,0.0,0.0,0.0,0.0,0.0,0.0,0.0,0.0,0.0,0.0,0.0,0.0,0.0,0.0,0.0,0.0,0.0,0.0,0.0,0.0,0.0,-2.3405,-2.374,-2.3283,-2.3219,-2.3644,-2.2726,-2.2206,-2.2159,-2.1327,-2.0746,-2.0471,0.0,0.0,0.0,0.0,0.0,0.0,0.0,0.0,0.0,0.0,0.0,0.0,0.0,0.0,0.0,0.0,0.0,0.0,0.0,0.0,0.0,0.0,0.0,0.0,0.0,0.0,-1.8692,-1.9058,-1.9713,0.0,0.0,0.0,0.0,0.0,0.0,0.0,0.0,0.0,0.0,-2.3132,-2.3162,-2.3091,-2.3101,-2.3049,-2.307,-2.2929,-2.2778,-2.2757,-2.2646,-2.2452,0.0,0.0,0.0,0.0,0.0,0.0,0.0,0.0,0.0,0.0,0.0,0.0,0.0,0.0,0.0,0.0,0.0,0.0,0.0,0.0,0.0,0.0,0.0,0.0,0.0,0.0,0.0,-1.8546,-1.8394,0.0,0.0,0.0,0.0,0.0,0.0,0.0,0.0,0.0,0.0,0.0,-2.086,-2.1197,0.0,0.0,0.0,0.0,0.0,0.0,0.0,0.0,0.0,0.0,0.0,0.0,-2.3993,-2.3799,-2.3857,-2.3966,-2.406,-2.3297,-2.2768,-2.2624,-2.1908,-2.1105,-2.024,0.0,0.0,0.0,0.0,0.0,0.0,0.0,0.0,0.0,0.0,0.0,0.0,0.0,0.0,0.0,0.0,0.0,0.0,0.0,0.0,0.0,0.0,0.0,0.0,0.0,-1.877,0.0,0.0,0.0,0.0,0.0,0.0,0.0,0.0,0.0,0.0,0.0,-2.311,-2.3615,-2.3636,-2.3596,-2.3596,-2.3496,-2.3386,0.0,0.0,0.0,0.0,0.0,0.0,0.0,0.0,0.0,0.0,0.0,0.0,0.0,0.0,-2.0077,-1.8602,-1.8332,-1.8332,-1.8332,0.0,0.0,0.0,0.0,0.0,0.0,0.0,0.0,0.0,0.0,0.0,0.0,0.0,0.0,-1.9777,0.0,-1.9415,0.0,0.0,0.0,0.0,0.0,0.0,0.0,0.0,-2.1073,-2.1383,-2.1838,-2.2149,-2.2449,0.0,-2.3079,-2.2956,0.0,0.0,0.0,0.0,0.0,0.0,0.0,0.0,-2.4431,-2.4284,-2.4278,-2.4344,-2.4476,-2.3816,-2.3278,-2.3024,-2.2254,-2.1439,-2.0448,-1.9972,-1.9396,0.0,0.0,0.0,0.0,0.0,0.0,0.0,0.0,0.0,0.0,0.0,0.0,0.0,0.0,0.0,0.0,0.0,0.0,0.0,0.0,0.0,0.0,0.0,-1.9858,0.0,0.0,0.0,0.0,0.0,0.0,0.0,0.0,0.0,-2.4021,-2.4061,-2.4311,-2.4795,-2.4827,-2.4816,-2.4816,0.0,0.0,0.0,0.0,0.0,0.0,0.0,-2.3958,-2.3636,-2.3347,-2.3009,-2.2634,-2.2441,-2.2349,-2.2349,0.0,0.0,-2.0091,-1.9822,-1.9822,-1.9822,-1.9822,-1.987,-2.0031,-2.0258,-2.0573,0.0,0.0,0.0,0.0,0.0,0.0,0.0,0.0,-2.209,-2.1928,0.0,-2.1487,0.0,0.0,0.0,0.0,0.0,-2.11,0.0,0.0,-2.2294,-2.276,-2.3174,-2.3215,-2.3236,-2.3246,-2.3298,-2.3525,-2.3898,-2.3505,0.0,0.0,0.0,0.0,0.0,0.0,-2.4705,-2.5067,-2.4574,-2.4495,-2.4864,-2.4192,-2.3646,-2.3379,-2.2498,-2.1735,-2.1136,-2.087,-2.0243,-1.9307,-1.8998,0.0,0.0,0.0,0.0,0.0,0.0,0.0,0.0,0.0,0.0,0.0,0.0,0.0,0.0,0.0,0.0,0.0,0.0,0.0,0.0,-2.1294,0.0,0.0,0.0,0.0,0.0,0.0,0.0,0.0,0.0,0.0,-2.5135,-2.5232,-2.5701,-2.6576,0.0,0.0,0.0,0.0,-2.667,-2.666,-2.6681,-2.6581,-2.6325,-2.628,-2.5954,-2.5084,0.0,0.0,-2.2908,-2.2726,-2.2807,-2.2726,-2.2848,-2.2582,-2.2192,-2.194,-2.184,-2.185,-2.1801,-2.1909,-2.1958,-2.1948,-2.1997,-2.6917,0.0,0.0,0.0,0.0,-2.4096,-2.38,-2.3466,-2.337,-2.3262,-2.3165,-2.2863,0.0,0.0,0.0,0.0,0.0,0.0,-2.2893,-2.3,-2.3016,-2.3225,-2.3722,-2.4002,-2.4322,-2.4654,-2.4964,-2.5171,-2.5339,-2.5215,-2.5016,-2.4861,0.0,0.0,0.0,0.0,-2.5095,-2.5068,-2.4842,-2.4769,-2.4873,-2.435,-2.3854,-2.3406,-2.275,-2.2119,-2.1458,-2.1401,-2.1028,-2.0324,-2.0212,0.0,0.0,0.0,0.0,0.0,0.0,0.0,0.0,0.0,0.0,0.0,0.0,0.0,0.0,0.0,0.0,0.0,0.0,0.0,-2.1755,-2.2341,-2.29,0.0,0.0,0.0,0.0,0.0,0.0,0.0,0.0,0.0,-2.6868,-2.6678,-2.6659,0.0,0.0,-2.7149,-2.7149,-2.7016,-2.6927,-2.6938,-2.6815,0.0,0.0,-2.6591,-2.6504,-2.6233,-2.6051,-2.5872,-2.5576,-2.5534,-2.5544,-2.548,-2.5534,-2.549,-2.5276,-2.3706,-2.2531,-2.241,-2.241,-2.263,-2.319,-2.335,-2.3531,-2.9112,-2.8164,-2.7164,-2.6286,-2.5646,-2.5341,-2.5045,-2.47,-2.4562,-2.4461,-2.436,-2.4111,-2.396,-2.3884,-2.3504,0.0,0.0,0.0,-2.3945,-2.4042,-2.4117,-2.4356,-2.4674,-2.4943,-2.5213,-2.5492,-2.5761,-2.593,-2.593,-2.6107,-2.602,-2.5771,0.0,0.0,-2.544,-2.5401,-2.5482,-2.5576,-2.5458,-2.5362,-2.5424,-2.4831,-2.4274,-2.3859,-2.3311,-2.2723,-2.2198,-2.1946,-2.1594,-2.1095,-2.0964,-2.075,0.0,0.0,0.0,0.0,0.0,0.0,0.0,0.0,0.0,0.0,0.0,-1.965,0.0,0.0,0.0,0.0,-2.1646,-2.228,-2.2909,-2.3372,0.0,0.0,0.0,0.0,0.0,0.0,0.0,-2.6908,-2.7465,-2.7966,-2.834,-2.8424,-2.832,-2.7938,-2.7883,-2.7883,-2.7883,0.0,-2.7702,-2.7702,-2.7634,-2.7508,-2.7372,-2.7372,-2.7308,-2.6969,-2.6809,-2.6692,-2.6692,-2.6692,-2.6692,-2.6692,-2.6692,-2.6692,-2.6692,-2.531,-2.4239,-2.4239,-2.4239,-2.4435,-2.4918,-2.5011,-2.5176,-3.1069,-3.0547,-2.8622,-2.7492,-2.7019,-2.6602,-2.6308,-2.6105,-2.573,-2.5547,-2.5558,-2.5324,-2.5139,-2.4975,-2.4618,0.0,-2.4494,-2.463,-2.486,-2.5072,-2.5514,-2.5748,-2.5965,-2.5951,-2.5927,-2.5982,-2.6024,-2.5989,-2.602,-2.647,-2.6677,-2.662,-2.6018,-2.5752,-2.5816,-2.562,-2.5817,-2.6377,-2.6156,-2.6107,-2.6163,-2.5414,-2.4841,-2.4552,-2.3973,-2.3479,-2.3203,-2.2554,-2.2064,-2.1811,-2.1487,-2.1205,-2.0873,0.0,0.0,0.0,0.0,0.0,0.0,0.0,0.0,0.0,0.0,0.0,0.0,0.0,0.0,0.0,-2.3223,0.0,-2.4148,-2.439,0.0,0.0,0.0,-2.5649,-2.6335,-2.6874,-2.7414,-2.8062,0.0,0.0,-2.9543,-3.0167,-3.0197,-2.9127,-2.8959,-2.8959,-2.8959,-2.9006,-2.8959,-2.9006,-2.8973,-2.8811,-2.8592,-2.8502,-2.8215,-2.7643,-2.7155,-2.6997,-2.6941,-2.6931,-2.6899,-2.6986,-2.6899,-2.6954,-2.6943,-2.6911,-2.6933,-2.6879,-2.6715,-2.6604,-2.6647,-2.6657,-2.6634,-3.184,-3.1642,-3.0676,-2.942,-2.8086,-2.785,-2.7521,-2.715,-2.7042,-2.6933,-2.6742,-2.654,-2.6539,-2.668,-2.6387,-2.6458,-2.6875,-2.6574,-2.6421,-2.6495,-2.6258,-2.6151,-2.6222,-2.6339,-2.6449,-2.648,-2.6801,-2.6988,-2.6988,-2.7092,-2.7143,-2.7154,-2.7095,-2.6845,-2.6365,-2.6191,-2.6221,-2.6387,-2.6437,-2.6282,-2.5891,-2.532,-2.4945,-2.4893,-2.4272,-2.3957,-2.3852,-2.3521,-2.3269,-2.3219,-2.2843,-2.252,-2.2146,-2.1865,0.0,0.0,0.0,0.0,0.0,0.0,0.0,0.0,0.0,-2.1746,-2.2122,0.0,-2.2685,0.0,-2.3625,-2.4235,-2.4789,-2.5063,0.0,0.0,-2.6871,-2.7383,-2.8254,-2.861,-2.8955,-2.9343,-2.9726,-3.0035,-3.0314,-3.0462,-3.0559,-3.0496,-3.0474,-3.0474,-3.0474,-3.0462,-3.0474,-3.0418,-3.015,-2.9949,-2.9822,-2.95,-2.9095,-2.8732,-2.8576,-2.8464,-2.8326,-2.828,-2.8372,-2.851,-2.851,-2.8602,-2.8752,-2.8831,-2.8808,-2.873,-2.7715,-2.6798,-2.7107,-2.7182,-2.7278,-3.2566,-3.2378,-3.1581,-3.0601,-2.9626,-2.9196,-2.8827,-2.851,-2.8302,-2.8136,-2.8022,-2.7687,-2.7635,-2.7743,-2.7528,-2.75,-2.769,-2.7425,-2.7302,-2.7273,-2.7059,-2.6984,-2.7049,-2.7034,-2.7066,-2.7066,-2.7232,-2.732,-2.733,-2.7458,-2.7562,-2.7572,-2.7762,-2.7657,-2.7286,-2.6983,-2.6909,-2.7014,-2.6949,-2.6793,-2.6486,-2.5957,-2.5637,-2.5468,-2.5023,-2.4668,-2.4349,-2.4033,-2.3832,-2.3709,-2.3468,-2.3263,-2.3109,-2.2852,-2.2688,0.0,0.0,0.0,0.0,0.0,0.0,0.0,0.0,0.0,0.0,0.0,-2.3977,-2.4703,-2.5033,-2.547,-2.6045,-2.627,-2.6713,-2.7541,-2.778,-2.8179,-2.8914,-2.9243,-2.9511,-2.9796,-3.0346,-3.0723,-3.0871,-3.1305,-3.1686,-3.1844,-3.1931,-3.1762,-3.1162,-3.1012,-3.1012,-3.1001,-3.0788,-3.062,-3.062,-3.0384,-3.0088,-3.0005,-2.9958,-2.9911,-2.9817,-2.9769,-2.9761,-2.9655,-2.9646,-2.9569,-2.9541,-2.9531,-2.9587,-2.9663,-2.905,-2.8353,-2.8285,-2.847,-2.8732,-3.3243,-3.2931,-3.2048,-3.1517,-3.1253,-3.0669,-3.0218,-2.9814,-2.939,-2.9133,-2.909,-2.8648,-2.8509,-2.8523,-2.8305,-2.8131,-2.7966,-2.7922,-2.7876,-2.785,-2.7815,-2.7893,-2.8045,-2.7836,-2.7725,-2.7678,-2.754,-2.7475,-2.7506,-2.7821,-2.8007,-2.7979,-2.8224,-2.8339,-2.8288,-2.7833,-2.7653,-2.7796,-2.7573,-2.7422,-2.7377,-2.6899,-2.6473,-2.6172,-2.5847,-2.5451,-2.4912,-2.4526,-2.4183,-2.3909,-2.3874,-2.3795,-2.3787,-2.3744,-2.3771,0.0,-2.4035,0.0,0.0,0.0,0.0,0.0,0.0,0.0,0.0,-2.4666,-2.5355,-2.6535,-2.6644,-2.6839,-2.7338,-2.744,-2.7672,-2.8228,-2.8379,-2.86,-2.9163,-2.9483,-2.9732,-3.0018,-3.0805,-3.1418,-3.1479,-3.2308,-3.2869,-3.2873,-3.3051,-3.2754,-3.1683,-3.1416,-3.1427,-3.13,-3.1244,-3.1236,-3.1134,-3.1086,-3.1064,-3.1027,-3.0993,-3.1012,-3.0908,-3.0919,-3.0855,-3.0507,-3.0454,-3.0308,-2.9847,-2.9837,-2.9983,-3.0458,-3.0445,-3.0204,-2.9797,-2.9965,-3.0384,-3.3782,-3.3517,-3.3162,-3.2784,-3.2413,-3.2284,-3.1394,-3.0013,-2.9772,-2.9432,-2.9079,-2.9005,-2.9106,-2.9244,-2.9023,-2.9116,-2.9466,-2.9045,-2.8861,-2.88,-2.8451,-2.8308,-2.8322,-2.845,-2.838,-2.817,-2.8527,-2.8536,-2.8359,-2.8442,-2.8483,-2.8493,-2.8898,-2.8973,-2.8799,0.0,0.0,0.0,-2.7931,-2.7691,-2.7377,-2.7107,-2.6781,-2.6527,-2.6173,0.0,-2.5846,-2.5556,-2.5239,-2.4939,-2.467,0.0,0.0,0.0,0.0,0.0,0.0,0.0,0.0,0.0,0.0,0.0,-2.5242,-2.5284,-2.5484,-2.5954,-2.6327,-2.6574,-2.6807,-2.7063,-2.7348,-2.7602,-2.8006,-2.8697,-2.9145,-2.9658,-3.0395,-3.0694,-3.0949,-3.1255,-3.1625,-3.1984,-3.2247,-3.2672,-3.2992,-3.3192,-3.3281,-3.3262,-3.3203,-3.2925,-3.2872,-3.2811,-3.2457,-3.2057,-3.1645,-3.1645,-3.1666,-3.1383,-3.1335,-3.1261,-3.1165,-3.1057,-3.1131,-3.114,-3.1199,-3.1213,-3.1208,-3.1302,-3.1244,-3.1462,-3.1474,-3.1356,-3.085,-3.081,-3.0878,-3.4243,0.0,-3.3641,-3.3343,0.0,-3.2797,-3.2185,-3.1327,-3.091,-3.049,-3.0021,-2.991,-2.9929,-3.0027,-2.9747,-2.9715,-2.9886,-2.96,-2.955,-2.9691,-2.9316,-2.9259,-2.9478,-2.9322,-2.91,-2.8828,-2.894,-2.8846,-2.8628,-2.8845,-2.8959,-2.897,-2.9415,-2.9601,-2.9456,-2.9189,-2.8814,-2.8291,-2.8014,-2.7799,-2.7638,-2.7206,-2.6935,-2.6791,-2.6518,0.0,0.0,0.0,0.0,0.0,0.0,0.0,0.0,0.0,0.0,-2.4878,-2.5147,-2.5424,-2.5531,-2.5692,-2.5914,-2.6171,-2.6783,-2.6949,-2.6603,-2.6998,-2.7323,-2.7428,-2.7699,-2.7959,-2.8199,-2.8509,-2.8859,-2.9394,-2.9787,-3.0253,-3.0733,-3.1023,-3.1373,-3.1772,-3.2077,-3.2392,-3.2667,-3.293,-3.3181,-3.3431,-3.3481,-3.358,-3.3828,-3.3679,-3.3542,-3.3679,-3.3482,-3.3191,-3.2948,-3.2889,-3.2889,-3.2767,-3.2621,-3.2512,-3.2342,-3.2207,-3.2139,-3.2008,-3.194,-3.1919,-3.1752,-3.1754,-3.1823,-3.2053,-3.217,-3.2176,-3.2056,-3.1953,-3.176,-3.4507,-3.4076,-3.3839,-3.3641,-3.3356,-3.2957,-3.2804,-3.2816,0.0,0.0,0.0,-3.0814,-3.0656,-3.0578,-3.0444,-3.0285,-3.0125,-3.017,-3.028,-3.0487,-3.0214,-3.0271,-3.0577,-3.0237,-2.9925,-2.959,-2.9415,-2.9207,-2.8916,-2.9239,-2.9435,-2.9456,-2.9808,-2.9994,-2.9889,-2.9396,-2.8877,-2.8408,-2.8077,-2.796,-2.7906,-2.7422,-2.7098,-2.6989,-2.6791,-2.6527,-2.6181,-2.6254,-2.6171,-2.5896,-2.5967,-2.5947,-2.5947,-2.5947,-2.6002,-2.6002,-2.6215,-2.6389,-2.6398,-2.6674,-2.7012,-2.7367,-2.8136,-2.8295,-2.7579,-2.7941,-2.829,-2.8579,-2.8794,-2.9063,-2.9416,-2.9629,-2.9947,-3.0285,-3.0538,-3.0852,-3.1124,-3.1299,-3.1628,-3.2057,-3.2347,-3.2606,-3.2891,-3.3181,-3.3431,-3.363,-3.3729,-3.3878,-3.4075,-3.3927,-3.3828,-3.4014,-3.3967,-3.404,-3.4052,-3.4017,-3.4075,-3.3932,-3.3819,-3.3779,-3.3729,-3.3592,-3.3307,-3.2903,-3.2773,-3.2623,-3.2241,-3.2206,-3.2264,-3.2595,-3.2638,-3.2753,-3.312,-3.2937,-3.2638,-3.4548,-3.4076,-3.4063,-3.3781,-3.3386,-3.3313,-3.3332,-3.3337,-3.2352,-3.1673,-3.1261,-3.1217,-3.0982,-3.0658,-3.1008,-3.109,-3.0893,-3.1069,-3.1213,-3.1233,-3.0971,-3.0763,-3.061,-3.0921,-3.081,-3.0393,-3.0474,-3.0419,-3.0161,-2.9953,-2.9901,-2.9901,-2.9963,-2.9879,-2.9669,-2.929,-2.893,-2.8621,-2.8398,-2.813,-2.7906,-2.7799,-2.753,-2.7043,-2.6999,-2.6845,-2.6537,-2.6857,-2.691,-2.6576,-2.6909,-2.6984,-2.6756,-2.6966,-2.7098,-2.7098,-2.7373,-2.7534,-2.7591,-2.7835,-2.8221,-2.8726,-2.8951,-2.8834,-2.8401,-2.8985,-2.9496,-2.9737,-2.9743,-3.0068,-3.0543,-3.0666,-3.0864,-3.1448,-3.1793,-3.2062,-3.234,-3.2292,-3.2315,-3.2679,-3.2547,-3.2651,-3.2971,-3.3411,-3.3723,-3.3764,-3.4079,-3.4172,-3.4355,-3.4162,-3.4075,-3.4075,-3.4075,-3.4075,-3.4125,-3.4125,-3.4125,-3.4075,-3.4075,-3.4014,-3.4026,-3.3977,-3.388,-3.3859,-3.374,-3.3679,-3.345,-3.347,-3.3325,-3.3258,-3.3208,-3.3216,-3.3319,-3.3227,-3.3193,-3.4756,-3.4465,-3.4215,-3.413,-3.4212,-3.4272,-3.4199,-3.3966,-3.3518,-3.3036,-3.2527,-3.2299,-3.2059,-3.1841,-3.1937,-3.1833,-3.1598,-3.1746,-3.1855,-3.1951,-3.172,-3.1611,-3.1633,-3.1695,-3.1414,-3.0917,-3.0813,-3.0672,-3.0401,-3.0141,-2.9994,-2.9994,-2.9994,-2.9879,-2.9606,-2.929,-2.8973,-2.8674,-2.8451,-2.8237,-2.813,-2.796,-2.7799,-2.7476,-2.7531,-2.7444,-2.7133,-2.7521,-2.7602,-2.7311,-2.7503,-2.7489,-2.7422,-2.7489,-2.7603,-2.7603,-2.7708,-2.7879,-2.8002,-2.8446,-2.8785,-2.9076,-2.9447,-2.9618,-2.9424,-2.9646,-2.9859,-3.0026,-3.0294,-3.0625,-3.0891,-3.1066,-3.135,-3.1732,-3.2058,-3.2318,-3.2685,-3.2907,-3.3124,-3.3365,-3.351,-3.3611,-3.3902,-3.4289,-3.4583,-3.4735,-3.5038,-3.5327,-3.5415,-3.5377,-3.5113,-3.4637,-3.4445,-3.4445,-3.4469,-3.4506,-3.4494,-3.4494,-3.4347,-3.4298,-3.4261,-3.4211,-3.4125,-3.4075,-3.4064,-3.4075,-3.3939,-3.3927,-3.3828,-3.3779,-3.358,-3.3519,-3.3542,-3.3431,-3.3281,-3.507,-3.4954,-3.4607,-3.4679,-3.5106,-3.5086,-3.4949,-3.4732,-3.4608,-3.4394,-3.4098,-3.3403,-3.3004,-3.2864,-3.2795,-3.2618,-3.2392,-3.2509,-3.2632,-3.2736,-3.2563,-3.2533,-3.2572,-3.228,-3.1874,-3.1373,-3.1023,-3.0765,-3.0495,-3.0193,-3.0047,-2.9994,-2.9994,-2.9889,-2.9722,-2.9406,-2.9089,-2.8877,-2.8558,-2.8354,-2.8291,-2.8077,-2.8008,-2.8016,-2.816,-2.8048,-2.7884,-2.8267,-2.8302,-2.8083,-2.81,-2.8146,-2.8107,-2.8097,-2.8097,-2.8146,-2.8212,-2.8318,-2.8671,-2.9127,-2.9411,-2.9477,-3.0052,-3.0351,-3.0437,-3.0399,-3.0436,-3.0492,-3.0903,-3.1283,-3.1414,-3.1647,-3.1892,-3.2156,-3.2475,-3.2801,-3.3085,-3.3473,-3.3759,-3.4037,-3.4264,-3.4478,-3.4826,-3.5126,-3.5378,-3.5726,-3.6144,-3.6411,-3.6411,-3.6411,-3.6026,-3.5485,-3.5184,-3.5195,-3.5184,-3.5171,-3.5135,-3.5064,-3.4832,-3.4686,-3.4565,-3.4359,-3.4261,-3.431,-3.4261,-3.4261,-3.4223,-3.4174,-3.4125,-3.4075,-3.3915,-3.3779,-3.3679,-3.353,-3.3381,-3.5433,-3.5508,-3.5463,-3.5577,-3.5693,-3.5309,-3.5402,-3.5658,-3.534,-3.5407,-3.555,-3.4196,-3.3331,-3.2982,-3.3399,-3.3457,-3.3229,-3.3699,-3.3775,-3.3575,-3.3549,-3.3285,-3.288,-3.2617,-3.2291,-3.1874,-3.1424,-3.1034,-3.0724,-3.0443,-3.0245,-3.0047,-2.9994,-2.9994,-2.9931,-2.9669,-2.9554,-2.9501,-2.894,-2.8568,-2.8301,-2.8291,-2.8325,-2.8439,-2.8487,-2.8523,-2.8606,-2.9003,-2.9048,-2.8797,-2.9114,-2.9201,-2.8915,-2.8856,-2.9033,-2.931,-2.9319,-2.9564,-3.0082,-3.0276,-3.0364,-3.0713,-3.0762,-3.0907,-3.1129,-3.1436,-3.1657,-3.1674,-3.1923,-3.2225,-3.2478,-3.2788,-3.3018,-3.3268,-3.3636,-3.4058,-3.4228,-3.4208,-3.4259,-3.4517,-3.4577,-3.4617,-3.519,-3.5502,-3.5817,-3.6374,-3.6501,-3.6591,-3.6579,-3.6579,-3.6555,-3.6326,-3.6254,-3.623,-3.6194,-3.6254,-3.5966,-3.5629,-3.5495,-3.5302,-3.5038,-3.487,-3.475,-3.4747,-3.4761,-3.4663,-3.4433,-3.4384,-3.4298,-3.4223,-3.4113,-3.3965,-3.3779,-3.3679,-3.358,-3.6273,-3.6513,-3.627,-3.6197,-3.6276,-3.6425,-3.6478,-3.6366,-3.6206,-3.6075,-3.5953,-3.5295,-3.4709,-3.4281,-3.4475,-3.4366,-3.3978,-3.4203,-3.4162,-3.3927,-3.3779,-3.3492,-3.3131,-3.288,-3.2516,-3.2026,-3.1618,-3.123,-3.0776,-3.0349,-3.0099,-2.9994,-2.9994,-2.9994,-2.9994,-2.9722,-2.9606,-2.9617,-2.9447,-2.9222,-2.8962,-2.878,-2.8696,-2.8791,-2.9247,-2.9427,-2.9403,-2.9728,-2.9773,-2.95,-2.966,-2.9677,-2.9518,-2.9518,-2.9627,-2.9745,-2.9912,-3.0147,-3.0392,-3.0577,-3.0762,-3.0889,-3.1064,-3.116,-3.1334,-3.1787,-3.2076,-3.2133,-3.2373,-3.2612,-3.2727,-3.3022,-3.3306,-3.3579,-3.3918,-3.4255,-3.4747,-3.4847,-3.5,-3.5239,-3.5461,-3.5646,-3.6084,-3.6508,-3.693,-3.7296,-3.7324,-3.7276,-3.7312,-3.7336,-3.7336,-3.7336,-3.7336,-3.7036,-3.6615,-3.6411,-3.6302,-3.6158,-3.6074,-3.5942,-3.5809,-3.5761,-3.5689,-3.5352,-3.5219,-3.5075,-3.4713,-3.464,-3.4592,-3.4506,-3.4359,-3.4211,-3.3977,-3.3828,-3.363,-3.7174,-3.7445,-3.7113,-3.7019,-3.7066,-3.737,-3.7261,-3.6909,-3.6769,-3.6487,-3.6193,-3.6146,-3.5847,-3.5416,-3.5271,-3.4981,-3.4628,-3.4531,-3.4384,-3.4162,-3.3965,-3.3729,-3.3431,-3.3142,-3.2768,-3.224,-3.1885,-3.1489,-3.1091,-3.0548,-3.0348,-3.0452,-3.043,-3.0377,-3.0377,-3.0154,-3.0101,-3.0122,-3.0096,-2.9987,-2.9789,-2.9604,-2.9433,-2.9326,-2.9863,-3.0149,-3.0113,-3.0354,-3.0392,-3.0039,-3.0039,-2.9981,-2.9922,-2.9922,-2.9922,-3.0039,-3.0333,-3.0518,-3.0567,-3.082,-3.0995,-3.1005,-3.1276,-3.1508,-3.1614,-3.2018,-3.2315,-3.243,-3.2555,-3.2669,-3.2737,-3.3079,-3.3409,-3.3579,-3.3974,-3.4423,-3.4935,-3.5257,-3.5455,-3.5797,-3.5979,-3.6429,-3.6796,-3.7257,-3.7713,-3.7861,-3.7926,-3.7974,-3.7974,-3.7938,-3.7938,-3.7974,-3.7962,-3.7673,-3.6976,-3.6916,-3.6819,-3.6639,-3.6615,-3.6567,-3.6471,-3.6398,-3.6362,-3.5845,-3.5749,-3.5483,-3.5159,-3.5015,-3.4787,-3.4787,-3.464,-3.4445,-3.42,-3.4014,-3.3866,-3.8053,-3.8293,-3.8211,-3.8081,-3.8069,-3.7664,-3.7505,-3.7413,-3.6922,-3.6709,-3.6628,-3.6452,-3.6228,-3.592,-3.5464,-3.5223,-3.5126,-3.4884,-3.4628,-3.4445,-3.4347,-3.4101,-3.3679,-3.3431,-3.3131,-3.2779,-3.2307,-3.1994,-3.1802,-3.1328,-3.1293,-3.1692,-3.1389,-3.1278,-3.1291,-3.1215,-3.1298,-3.1161,-3.0994,-3.086,-3.0866,-3.0888,-3.0684,-3.0231,-3.0185,-3.042,-3.0781,-3.0869,-3.0704,-3.0382,-3.0382,-3.0206,-2.999,-2.9931,-3.0098,-3.0382,-3.0704,-3.0889,-3.0889,-3.1102,-3.1267,-3.1334,-3.1614,-3.1903,-3.2133,-3.2258,-3.243,-3.2669,-3.2669,-3.2669,-3.2784,-3.3229,-3.3568,-3.3625,-3.4132,-3.4579,-3.4991,-3.5257,-3.5522,-3.5797,-3.6168,-3.6538,-3.7024,-3.7613,-3.7933,-3.7974,-3.7974,-3.7974,-3.7974,-3.7974,-3.7974,-3.7974,-3.7974,-3.7938,-3.7878,-3.7661,-3.7505,-3.7336,-3.712,-3.7036,-3.6663,-3.6398,-3.6411,-3.6314,-3.6074,-3.5833,-3.5569,-3.5268,-3.4883,-3.4775,-3.4775,-3.4628,-3.4433,-3.4384,-3.42,-3.904,-3.8935,-3.8738,-3.8472,-3.82,-3.8031,-3.7815,-3.7505,-3.7307,-3.7108,-3.6922,-3.6722,-3.6534,-3.6417,-3.5943,-3.562,-3.5476,-3.5175,-3.4969,-3.4872,-3.4531,-3.4298,-3.415,-3.3717,-3.3431,-3.3126,-3.287,-3.2652,-3.2382,-3.2019,-3.1943,-3.2027,-3.1808,-3.1634,-3.1634,-3.1491,-3.1381,-3.1402,-3.1519,-3.1562,-3.1426,-3.1665,-3.166,-3.1259,-3.1029,-3.0887,-3.0889,-3.0898,-3.083,-3.0704,-3.0704,-3.0645,-3.0528,-3.0528,-3.0596,-3.0694,-3.0995,-3.116,-3.117,-3.1441,-3.1614,-3.1614,-3.1903,-3.2174,-3.2305,-3.243,-3.2612,-3.269,-3.268,-3.2784,-3.3012,-3.3409,-3.3625,-3.3681,-3.4132,-3.4702,-3.5146,-3.5368,-3.5577,-3.6059,-3.6495,-3.6916,-3.7131,-3.7613,-3.7986,-3.7974,-3.7974,-3.7974,-3.7974,-3.7974,-3.7974,-3.7974,-3.7974,-3.7974,-3.7974,-3.7962,-3.7878,-3.7793,-3.7673,-3.7637,-3.7385,-3.7288,-3.73,-3.694,-3.6603,-3.6146,-3.5881,-3.5292,-3.498,-3.4775,-3.4775,-3.4775,-3.4665,-3.458,-3.4347,-3.9852,-3.9424,-3.9158,-3.8787,-3.8427,-3.8245,-3.8031,-3.7723,-3.7551,-3.7413,-3.7214,-3.6968,-3.6769,-3.6675,-3.637,-3.6086,-3.586,-3.5512,-3.5271,-3.5175,-3.4835,-3.458,-3.442,-3.4278,-3.4023,-3.3703,-3.3606,-3.3476,-3.3203,-3.2933,-3.2802,-3.2853,-3.2513,-3.2414,-3.2359,-3.2193,-3.2083,-3.2156,-3.2294,-3.2317,-3.2179,-3.2323,-3.2315,-3.196,-3.173,-3.145,-3.1228,-3.1054,-3.0995,-3.1005,-3.0947,-3.0947,-3.1005,-3.1112,-3.118,-3.1228,-3.1334,-3.151,-3.1698,-3.1999,-3.2244,-3.2375,-3.2687,-3.2861,-3.2919,-3.3045,-3.3161,-3.3161,-3.3161,-3.3277,-3.3623,-3.3921,-3.3955,-3.389,-3.43,-3.4858,-3.5312,-3.5478,-3.5797,-3.6211,-3.6754,-3.7024,-3.7185,-3.7667,-3.7921,-3.7974,-3.7974,-3.7974,-3.7974,-3.7974,-3.7974,-3.7974,-3.7974,-3.7974,-3.7974,-3.7974,-3.7974,-3.7914,-3.7878,-3.795,-3.7974,-3.7974,-3.7866,-3.7529,-3.7108,-3.6603,-3.6038,-3.5425,-3.5088,-3.4847,-3.4775,-3.4775,-3.4726,-3.4689,-3.4408,-4.03,-3.973,-3.9394,-3.9145,-3.8819,-3.8472,-3.8258,-3.8122,-3.7736,-3.7577,-3.7609,-3.7312,-3.7143,-3.687,-3.6877,-3.6635,-3.6473,-3.6033,-3.5659,-3.5369,-3.5235,-3.4968,-3.4661,-3.4978,-3.4863,-3.4414,-3.4377,-3.4339,-3.4151,-3.3967,-3.39,-3.3957,-3.3666,-3.3444,-3.3582,-3.343,-3.3484,-3.3417,-3.3212,-3.314,-3.3182,-3.2898,-3.2602,-3.2363,-3.2315,-3.2133,-3.1797,-3.1508,-3.1334,-3.1276,-3.1054,-3.1054,-3.1334,-3.1606,-3.1818,-3.18,-3.1838,-3.2049,-3.245,-3.2745,-3.3095,-3.3409,-3.3811,-3.3917,-3.3827,-3.3917,-3.3927,-3.3906,-3.3997,-3.4167,-3.449,-3.4763,-3.4735,-3.4291,-3.4678,-3.5124,-3.5379,-3.5632,-3.5906,-3.6277,-3.6766,-3.7024,-3.7185,-3.756,-3.7933,-3.7974,-3.7974,-3.7974,-3.7974,-3.7974,-3.7974,-3.7974,-3.7974,-3.7974,-3.7974,-3.7974,-3.7974,-3.7962,-3.795,-3.7974,-3.7974,-3.7974,-3.7974,-3.7697,-3.7336,-3.6843,-3.6374,-3.5785,-3.534,-3.5136,-3.5004,-3.4799,-3.4775,-3.4677,-3.4506,-4.0573,-4.0357,-3.9952,-3.9557,-3.9203,-3.9024,-3.88,-3.8453,-3.8122,-3.8221,-3.8456,-3.8181,-3.814,-3.8293,-3.8034,-3.7828,-3.7743,-3.739,-3.6897,-3.6357,-3.5917,-3.5866,-3.5969,-3.5821,-3.5533,-3.5224,-3.5145,-3.5114,-3.5032,-3.4946,-3.4847,-3.468,-3.4367,-3.4132,-3.3974,-3.3749,-3.3625,-3.3579,-3.3512,-3.3455,-3.3466,-3.3409,-3.3182,-3.2955,-3.2908,-3.2784,-3.243,-3.1913,-3.1672,-3.1672,-3.1566,-3.1566,-3.1722,-3.2031,-3.2299,-3.2339,-3.2778,-3.3089,-3.328,-3.3559,-3.3788,-3.3932,-3.4082,-3.4072,-3.4072,-3.4163,-3.4163,-3.4152,-3.431,-3.4547,-3.4831,-3.5184,-3.5113,-3.4682,-3.5128,-3.5491,-3.5568,-3.5852,-3.6168,-3.6277,-3.6592,-3.6862,-3.7131,-3.7518,-3.7797,-3.7986,-3.7974,-3.7974,-3.7974,-3.7974,-3.7974,-3.7974,-3.7974,-3.7974,-3.7974,-3.7974,-3.7974,-3.7974,-3.7974,-3.7974,-3.7974,-3.7974,-3.7974,-3.7866,-3.7505,-3.712,-3.6651,-3.6158,-3.5689,-3.5316,-3.5112,-3.4931,-3.4811,-3.4677,-3.4494,-4.0915,-4.0645,-4.0386,-4.0009,-3.9571,-3.938,-3.9127,-3.8854,-3.8724,-3.8846,-3.9037,-3.9053,-3.9042,-3.9149,-3.8861,-3.8653,-3.8507,-3.8261,-3.7989,-3.7616,-3.69,-3.6762,-3.6941,-3.6627,-3.6405,-3.626,-3.617,-3.5956,-3.5719,-3.5742,-3.5533,-3.5146,-3.4924,-3.4758,-3.459,-3.4356,-3.4255,-3.4142,-3.403,-3.3861,-3.3794,-3.3681,-3.3523,-3.3353,-3.3363,-3.3323,-3.3221,-3.2897,-3.2526,-3.2147,-3.2102,-3.2264,-3.2446,-3.2847,-3.3117,-3.3168,-3.3471,-3.3815,-3.4039,-3.4211,-3.4424,-3.4517,-3.4569,-3.4579,-3.4629,-3.4689,-3.475,-3.481,-3.5082,-3.535,-3.567,-3.5908,-3.5859,-3.5754,-3.6007,-3.6094,-3.6059,-3.6162,-3.6277,-3.632,-3.6549,-3.6808,-3.7078,-3.737,-3.7702,-3.7933,-3.7974,-3.7974,-3.7974,-3.7974,-3.7974,-3.7974,-3.7974,-3.7974,-3.7974,-3.7974,-3.7974,-3.7974,-3.7974,-3.7974,-3.7974,-3.7974,-3.7974,-3.8003,-3.775,-3.7433,-3.7,-3.6423,-3.5918,-3.5593,-3.5304,-3.4931,-3.4775,-3.4628,-3.4445,-4.1325,-4.0773,-4.0744,-4.043,-4.0023,-3.9683,-3.9516,-3.9437,-3.9529,-3.9541,-3.9481,-3.987,-3.9834,-3.9462,-3.9521,-3.9326,-3.8915,-3.8785,-3.8903,-3.888,-3.8254,-3.7741,-3.7487,-3.7318,-3.7324,-3.74,-3.7192,-3.6785,-3.632,-3.632,-3.6059,-3.5522,-3.5478,-3.5423,-3.5257,-3.5356,-3.5146,-3.4924,-3.4691,-3.4412,-3.4209,-3.3918,-3.3781,-3.3745,-3.3788,-3.3912,-3.4216,-3.4164,-3.3686,-3.2751,-3.2953,-3.3292,-3.3651,-3.4023,-3.4222,-3.4183,-3.4194,-3.4544,-3.4814,-3.4979,-3.5114,-3.5354,-3.5396,-3.5418,-3.5478,-3.561,-3.5743,-3.5825,-3.6101,-3.6449,-3.6692,-3.6792,-3.6948,-3.7144,-3.6999,-3.6861,-3.6959,-3.6656,-3.6438,-3.6424,-3.6584,-3.6754,-3.7024,-3.7316,-3.7637,-3.7892,-3.7974,-3.7974,-3.7974,-3.7974,-3.7974,-3.7974,-3.7974,-3.7974,-3.7974,-3.7974,-3.7974,-3.7974,-3.7974,-3.7974,-3.7974,-3.7974,-3.7974,-3.8003,-3.7954,-3.7649,-3.7348,-3.6807,-3.6386,-3.611,-3.5677,-3.5051,-3.4786,-3.4748,-3.442,-4.1758,-4.1409,-4.1057,-4.0759,-4.0557,-4.0669,-4.0553,-4.0336,-4.0548,-4.0743,-4.0883,-4.0906,-4.0923,-4.0999,-4.0814,-4.0605,-4.0266,-3.9991,-3.9842,-3.9817,-3.9639,-3.9028,-3.8462,-3.8157,-3.8,-3.788,-3.7637,-3.7262,-3.6916,-3.6862,-3.6603,-3.6114,-3.607,-3.584,-3.5478,-3.5489,-3.5368,-3.5312,-3.5213,-3.5169,-3.508,-3.4801,-3.4709,-3.4777,-3.4582,-3.4647,-3.4843,-3.4896,-3.4806,-3.4455,-3.446,-3.4587,-3.4728,-3.5002,-3.523,-3.5272,-3.5536,-3.5818,-3.5874,-3.5905,-3.599,-3.6085,-3.6044,-3.6106,-3.6116,-3.6239,-3.63,-3.6361,-3.6545,-3.6789,-3.6921,-3.7154,-3.7478,-3.7933,-3.7637,-3.7417,-3.745,-3.7161,-3.684,-3.6805,-3.6573,-3.6618,-3.6866,-3.7047,-3.737,-3.7679,-3.7826,-3.7974,-3.7974,-3.7974,-3.7974,-3.7974,-3.7974,-3.7974,-3.7974,-3.7974,-3.7974,-3.7974,-3.7974,-3.7974,-3.7974,-3.7974,-3.7974,-3.7962,-3.7962,-3.7769,-3.7637,-3.7324,-3.6988,-3.6555,-3.6026,-3.5423,-3.5182,-3.5023,-3.4501,-4.2049,-4.18,-4.1437,-4.1256,-4.1239,-4.1357,-4.1385,-4.1345,-4.1529,-4.1686,-4.1754,-4.1783,-4.1759,-4.1819,-4.1584,-4.1398,-4.1198,-4.0846,-4.058,-4.0415,-4.0198,-3.9686,-3.9141,-3.8841,-3.8631,-3.8303,-3.8051,-3.7785,-3.7507,-3.7358,-3.7089,-3.67,-3.6657,-3.644,-3.6246,-3.6255,-3.6169,-3.617,-3.6184,-3.6196,-3.6028,-3.5915,-3.5858,-3.5874,-3.5758,-3.5747,-3.596,-3.6151,-3.6005,-3.5548,-3.5376,-3.5401,-3.5625,-3.5848,-3.6008,-3.6029,-3.6284,-3.6412,-3.6423,-3.6423,-3.6423,-3.6423,-3.6423,-3.6423,-3.6423,-3.6484,-3.6617,-3.6606,-3.6911,-3.7082,-3.7203,-3.7506,-3.7938,-3.8291,-3.8254,-3.8171,-3.816,-3.7666,-3.7402,-3.723,-3.692,-3.6709,-3.6971,-3.6971,-3.7178,-3.7477,-3.7744,-3.7892,-3.7986,-3.7986,-3.7974,-3.7974,-3.7974,-3.7974,-3.7974,-3.7974,-3.7974,-3.7974,-3.7974,-3.7974,-3.7974,-3.7974,-3.7974,-3.7974,-3.7974,-3.7938,-3.7805,-3.7613,-3.7228,-3.6771,-3.629,-3.5913,-3.5633,-3.5184,-3.4686,-4.2254,-4.1993,-4.1858,-4.1909,-4.2008,-4.1901,-4.2116,-4.2321,-4.2518,-4.2418,-4.2317,-4.2477,-4.2417,-4.219,-4.1944,-4.1746,-4.1696,-4.1235,-4.0984,-4.0732,-4.0389,-3.9878,-3.9478,-3.9258,-3.905,-3.8776,-3.8579,-3.8315,-3.8075,-3.7845,-3.7625,-3.7439,-3.7385,-3.7343,-3.7313,-3.7441,-3.7437,-3.7296,-3.7381,-3.7303,-3.7088,-3.6917,-3.687,-3.6924,-3.7023,-3.7039,-3.7274,-3.7546,-3.7325,-3.6035,-3.5915,-3.6146,-3.6449,-3.6513,-3.6513,-3.6542,-3.6574,-3.6606,-3.6545,-3.6606,-3.6545,-3.6606,-3.6606,-3.6484,-3.6606,-3.685,-3.6982,-3.6921,-3.7203,-3.7314,-3.7445,-3.795,-3.832,-3.8488,-3.8848,-3.9008,-3.8688,-3.8183,-3.7873,-3.7839,-3.7425,-3.7296,-3.7289,-3.72,-3.7072,-3.775,-3.7892,-3.8007,-3.8018,-3.8017,-3.8034,-3.7974,-3.7974,-3.7974,-3.7974,-3.7974,-3.7974,-3.7974,-3.7974,-3.7974,-3.7974,-3.7974,-3.7974,-3.7974,-3.7974,-3.7974,-3.7938,-3.7685,-3.7397,-3.7192,-3.6843,-3.6485,-3.6129,-3.5509,-3.4949,-4.25,-4.2298,-4.2418,-4.2509,-4.2625,-4.3087,-4.3268,-4.3237,-4.3514,-4.344,-4.3258,-4.3156,-4.297,-4.2679,-4.2449,-4.219,-4.198,-4.1647,-4.1335,-4.0883,-4.0593,-4.0236,-3.9903,-3.9631,-3.9347,-3.9139,-3.8853,-3.8708,-3.8688,-3.8776,-3.8731,-3.8473,-3.8554,-3.8631,-3.8386,-3.8389,-3.8395,-3.8363,-3.8391,-3.8258,-3.801,-3.7839,-3.7759,-3.7835,-3.7963,-3.8115,-3.8119,-3.8253,-3.8134,-3.7757,-3.7341,-3.7062,-3.711,-3.7143,-3.7143,-3.7071,-3.7132,-3.7132,-3.7203,-3.7132,-3.7193,-3.7132,-3.7071,-3.7193,-3.7193,-3.7193,-3.7264,-3.7264,-3.7385,-3.7374,-3.7445,-3.801,-3.832,-3.85,-3.8894,-3.9262,-3.9101,-3.8711,-3.8436,-3.8309,-3.7965,-3.7632,-3.7745,-3.7854,-3.7871,-3.8061,-3.8127,-3.8183,-3.8144,-3.8179,-3.8125,-3.8154,-3.7986,-3.7986,-3.7974,-3.7974,-3.7974,-3.7974,-3.7974,-3.7974,-3.7974,-3.7974,-3.7974,-3.7974,-3.7974,-3.7974,-3.7974,-3.795,-3.7709,-3.7553,-3.7409,-3.6996,-3.645,-3.584,-3.5184,-4.3216,-4.3043,-4.3337,-4.3516,-4.3646,-4.3999,-4.4155,-4.4132,-4.4149,-4.4021,-4.377,-4.3533,-4.3307,-4.308,-4.279,-4.2547,-4.2239,-4.1895,-4.1498,-4.1175,-4.104,-4.1004,-4.0772,-4.0548,-4.031,-3.9927,-3.955,-3.9544,-3.9734,-3.9783,-3.9751,-3.9576,-3.9642,-3.9446,-3.9368,-3.9311,-3.9249,-3.9276,-3.9351,-3.9298,-3.9138,-3.9023,-3.8862,-3.8872,-3.8946,-3.8964,-3.8645,-3.8585,-3.8537,-3.8369,-3.8058,-3.7807,-3.7687,-3.7626,-3.7566,-3.7435,-3.7374,-3.7374,-3.7374,-3.7374,-3.7374,-3.7374,-3.7374,-3.7374,-3.7374,-3.7374,-3.7374,-3.7374,-3.7374,-3.7374,-3.7445,-3.801,-3.832,-3.85,-3.8953,-3.9308,-3.9262,-3.9078,-3.8929,-3.8826,-3.8481,-3.8252,-3.8206,-3.8285,-3.819,-3.8185,-3.8395,-3.8481,-3.8637,-3.8598,-3.8497,-3.8407,-3.813,-3.7998,-3.7986,-3.7974,-3.7974,-3.7974,-3.7974,-3.7974,-3.7974,-3.7974,-3.7974,-3.7974,-3.7974,-3.7974,-3.7974,-3.7974,-3.7974,-3.7841,-3.7592,-3.7297,-3.6855,-3.6186,-3.548,-4.3997,-4.3938,-4.4319,-4.456,-4.4717,-4.4728,-4.4803,-4.4851,-4.4597,-4.435,-4.4068,-4.3804,-4.358,-4.3355,-4.3163,-4.29,-4.2646,-4.2278,-4.201,-4.1871,-4.2045,-4.1867,-4.1659,-4.1615,-4.1516,-4.087,-4.0452,-4.0557,-4.0711,-4.0809,-4.0683,-4.0641,-4.0489,-4.0427,-4.034,-4.021,-4.018,-4.0239,-4.0285,-4.0256,-4.0163,-4.0117,-3.9978,-3.9767,-3.9744,-3.9485,-3.9119,-3.9001,-3.8882,-3.8548,-3.8548,-3.8358,-3.8118,-3.7938,-3.7818,-3.7495,-3.7495,-3.7495,-3.7435,-3.7374,-3.7374,-3.7374,-3.7374,-3.7374,-3.7374,-3.7374,-3.7374,-3.7374,-3.7374,-3.7435,-3.7495,-3.7998,-3.8369,-3.8559,-3.8953,-3.9249,-3.9308,-3.9308,-3.9251,-3.9193,-3.8929,-3.8723,-3.8585,-3.8528,-3.8378,-3.8329,-3.8611,-3.8821,-3.8994,-3.9002,-3.888,-3.8924,-3.8731,-3.8431,-3.8359,-3.801,-3.7998,-3.801,-3.801,-3.7974,-3.7974,-3.7974,-3.7974,-3.7974,-3.7974,-3.7974,-3.7974,-3.7974,-3.7974,-3.7933,-3.7749,-3.7364,-3.698,-3.653,-3.5787,-4.4482,-4.4798,-4.5051,-4.5186,-4.5215,-4.5295,-4.5343,-4.5307,-4.4922,-4.4737,-4.4612,-4.4162,-4.3926,-4.3846,-4.3628,-4.3506,-4.3475,-4.3237,-4.3051,-4.3041,-4.3099,-4.2879,-4.254,-4.2537,-4.2532,-4.2327,-4.172,-4.1313,-4.1355,-4.1429,-4.1489,-4.1545,-4.1564,-4.1648,-4.1536,-4.1505,-4.1217,-4.1136,-4.1031,-4.0872,-4.0711,-4.0607,-4.0479,-4.0188,-4.013,-3.9954,-3.9732,-3.9614,-3.9496,-3.919,-3.9142,-3.8942,-3.8704,-3.8418,-3.819,-3.7889,-3.7758,-3.7687,-3.7495,-3.7374,-3.7374,-3.7374,-3.7374,-3.7374,-3.7374,-3.7374,-3.7374,-3.7374,-3.7435,-3.7506,-3.7818,-3.819,-3.8477,-3.8704,-3.9001,-3.9308,-3.9308,-3.9308,-3.9308,-3.9285,-3.9193,-3.9136,-3.8975,-3.8883,-3.8827,-3.8828,-3.8965,-3.9136,-3.9351,-3.9315,-3.9181,-3.9287,-3.9441,-3.9104,-3.8815,-3.8322,-3.8046,-3.8082,-3.807,-3.7986,-3.7974,-3.7974,-3.7974,-3.7814,-3.788,-3.7933,-3.7933,-3.7921,-3.7826,-3.7667,-3.753,-3.7382,-3.6942,-3.6444,-3.5908,-4.5472,-4.5522,-4.5857,-4.5889,-4.5771,-4.5721,-4.5595,-4.5458,-4.5276,-4.5106,-4.4876,-4.4597,-4.4317,-4.426,-4.4363,-4.4394,-4.4392,-4.418,-4.4017,-4.3942,-4.3871,-4.3821,-4.3441,-4.345,-4.3547,-4.3444,-4.2965,-4.2473,-4.2414,-4.2379,-4.2325,-4.2357,-4.2382,-4.2312,-4.2256,-4.1992,-4.1903,-4.1789,-4.1561,-4.1332,-4.116,-4.1069,-4.0769,-4.0537,-4.0409,-4.0305,-4.0071,-3.9861,-3.9743,-3.9555,-3.9379,-3.9238,-3.906,-3.8894,-3.8679,-3.8261,-3.801,-3.7889,-3.7626,-3.7506,-3.7374,-3.7374,-3.7385,-3.7374,-3.7374,-3.7374,-3.7418,-3.7396,-3.7374,-3.7506,-3.7867,-3.8223,-3.8477,-3.8752,-3.9142,-3.9283,-3.932,-3.932,-3.9331,-3.9331,-3.9262,-3.9239,-3.9262,-3.9228,-3.9285,-3.9334,-3.936,-3.9453,-3.9604,-3.9506,-3.9377,-3.9586,-3.9651,-3.9407,-3.9024,-3.8533,-3.8179,-3.8155,-3.7987,-3.785,-3.7826,-3.7773,-3.7667,-3.7507,-3.756,-3.7732,-3.7679,-3.7625,-3.7465,-3.7346,-3.7197,-3.7036,-3.6808,-3.6418,-3.5841,-4.6536,-4.6362,-4.6549,-4.6535,-4.6254,-4.6046,-4.5821,-4.5609,-4.5518,-4.5367,-4.5184,-4.5064,-4.4917,-4.4823,-4.4981,-4.5239,-4.5303,-4.5093,-4.4848,-4.4745,-4.4624,-4.4573,-4.4493,-4.438,-4.4289,-4.4212,-4.3978,-4.3819,-4.339,-4.3096,-4.3048,-4.2911,-4.2725,-4.2581,-4.2538,-4.2312,-4.2211,-4.2086,-4.1903,-4.172,-4.1549,-4.139,-4.1115,-4.0838,-4.0781,-4.0665,-4.0363,-4.0071,-3.9861,-3.9673,-3.9496,-3.9308,-3.9308,-3.9308,-3.9129,-3.878,-3.8305,-3.8043,-3.7973,-3.7742,-3.7647,-3.7811,-3.7713,-3.7691,-3.7713,-3.7822,-3.7756,-3.7669,-3.7724,-3.795,-3.8442,-3.8596,-3.8897,-3.9246,-3.9508,-3.9607,-3.9561,-3.9515,-3.9434,-3.9411,-3.9342,-3.9308,-3.9308,-3.9308,-3.9308,-3.9308,-3.9347,-3.9545,-3.964,-3.9686,-3.9612,-3.9767,-3.9783,-3.961,-3.9229,-3.8685,-3.8352,-3.8197,-3.7833,-3.7572,-3.7518,-3.7465,-3.7358,-3.7239,-3.7185,-3.7304,-3.7316,-3.7316,-3.7197,-3.7078,-3.6862,-3.67,-3.6538,-3.6356,-3.5926,-4.7132,-4.739,-4.7032,-4.6756,-4.655,-4.6269,-4.6046,-4.5835,-4.5623,-4.5504,-4.5528,-4.5785,-4.5808,-4.5675,-4.5755,-4.5976,-4.6091,-4.5952,-4.5823,-4.5668,-4.5488,-4.5236,-4.5035,-4.4778,-4.4626,-4.4611,-4.4406,-4.4107,-4.387,-4.3568,-4.3338,-4.3283,-4.3136,-4.2943,-4.3043,-4.2775,-4.2469,-4.2437,-4.2211,-4.1903,-4.1663,-4.1549,-4.139,-4.123,-4.1069,-4.0954,-4.0653,-4.0305,-4.0071,-3.979,-3.9485,-3.9308,-3.9308,-3.9308,-3.9572,-3.9448,-3.9055,-3.8379,-3.8504,-3.8214,-3.815,-3.839,-3.8521,-3.8568,-3.851,-3.8488,-3.8499,-3.8663,-3.8608,-3.8781,-3.9221,-3.9506,-3.9932,-4.0159,-4.0361,-4.0249,-4.0077,-3.9815,-3.9675,-3.948,-3.9423,-3.9342,-3.9308,-3.9308,-3.9308,-3.9308,-3.9367,-3.9555,-3.965,-3.9674,-3.9733,-3.9858,-3.9959,-3.9756,-3.9564,-3.9054,-3.8584,-3.8315,-3.7866,-3.7387,-3.7251,-3.7197,-3.7143,-3.7024,-3.6982,-3.6928,-3.6982,-3.6982,-3.697,-3.6808,-3.6646,-3.6483,-3.6375,-3.6136,-3.583,-4.779,-4.7596,-4.7251,-4.699,-4.6727,-4.6358,-4.618,-4.6118,-4.6212,-4.6235,-4.6304,-4.6667,-4.6795,-4.6787,-4.6848,-4.6973,-4.7059,-4.6836,-4.6665,-4.6387,-4.602,-4.5702,-4.5422,-4.5126,-4.4951,-4.4853,-4.4952,-4.5064,-4.4672,-4.4096,-4.3653,-4.373,-4.3736,-4.3758,-4.3676,-4.3382,-4.3269,-4.308,-4.2667,-4.2224,-4.1915,-4.1732,-4.1549,-4.139,-4.1287,-4.1115,-4.0884,-4.0467,-4.0176,-3.9954,-3.9591,-3.9457,-3.9652,-3.9779,-3.9902,-4.0083,-3.9577,-3.926,-3.9243,-3.877,-3.8736,-3.8698,-3.8797,-3.872,-3.8764,-3.8807,-3.8807,-3.8753,-3.8764,-3.9162,-3.9684,-3.9763,-4.0197,-4.0539,-4.0923,-4.08,-4.0513,-4.0229,-3.9976,-3.9758,-3.9503,-3.9457,-3.9388,-3.932,-3.932,-3.9308,-3.9308,-3.9367,-3.9555,-3.9627,-3.9721,-3.9896,-3.9954,-3.9987,-3.982,-3.9479,-3.8936,-3.8539,-3.8021,-3.7566,-3.6998,-3.6862,-3.6808,-3.67,-3.6592,-3.6592,-3.67,-3.6646,-3.6592,-3.6538,-3.6483,-3.634,-3.6205,-3.5795,-3.5428,-4.8343,-4.7752,-4.7467,-4.7207,-4.6887,-4.6521,-4.6416,-4.6487,-4.6743,-4.6957,-4.7123,-4.7441,-4.7726,-4.7919,-4.7865,-4.7742,-4.7759,-4.7494,-4.7184,-4.6821,-4.6389,-4.5967,-4.5729,-4.5488,-4.5268,-4.5025,-4.5584,-4.5751,-4.5549,-4.5119,-4.4647,-4.4433,-4.4589,-4.456,-4.4415,-4.4244,-4.413,-4.3908,-4.3262,-4.2767,-4.2433,-4.1977,-4.1732,-4.1549,-4.1344,-4.1184,-4.1127,-4.0525,-4.0223,-4.0329,-3.9881,-3.9767,-4.0146,-4.0272,-4.038,-4.0427,-4.0124,-3.9987,-3.9815,-3.9459,-3.9163,-3.9154,-3.9198,-3.9329,-3.9285,-3.9198,-3.9209,-3.9307,-3.9423,-3.9707,-4.0018,-4.0314,-4.0768,-4.1114,-4.134,-4.1168,-4.0996,-4.072,-4.0433,-4.0192,-3.9962,-3.9652,-3.9549,-3.9388,-3.9331,-3.932,-3.9308,-3.9308,-3.9437,-3.9555,-3.9614,-3.9673,-3.9685,-3.9768,-3.9651,-3.9441,-3.9055,-3.8632,-3.8117,-3.7481,-3.6886,-3.6603,-3.6538,-3.6429,-3.632,-3.632,-3.6483,-3.6375,-3.6266,-3.632,-3.6352,-3.6205,-3.5979,-3.5566,-3.4955,-4.8692,-4.8202,-4.7767,-4.7367,-4.6961,-4.6873,-4.6993,-4.7177,-4.7188,-4.7474,-4.7854,-4.8124,-4.8614,-4.885,-4.8575,-4.8267,-4.8092,-4.7801,-4.7391,-4.6925,-4.656,-4.6326,-4.6116,-4.6033,-4.5998,-4.5981,-4.6301,-4.6438,-4.6434,-4.6334,-4.6061,-4.5861,-4.5602,-4.533,-4.5158,-4.5043,-4.4736,-4.445,-4.3851,-4.3549,-4.3139,-4.2618,-4.2038,-4.1679,-4.1426,-4.1184,-4.1196,-4.0596,-4.054,-4.0905,-4.0356,-4.031,-4.0663,-4.0755,-4.0834,-4.0836,-4.0698,-4.0528,-4.029,-3.9957,-3.9884,-3.9995,-4.0083,-4.0038,-3.9983,-4.0147,-4.0137,-4.0006,-4.0079,-4.0489,-4.1005,-4.1426,-4.1466,-4.1736,-4.1748,-4.1656,-4.1507,-4.1324,-4.1026,-4.0755,-4.0315,-3.9771,-3.9545,-3.9314,-3.9272,-3.9308,-3.9308,-3.9308,-3.9308,-3.9437,-3.9379,-3.9426,-3.9367,-3.9391,-3.9357,-3.9104,-3.8874,-3.8364,-3.7831,-3.7197,-3.6556,-3.6366,-3.6375,-3.632,-3.6266,-3.6266,-3.6266,-3.6266,-3.6266,-3.6266,-3.6174,-3.5898,-3.5386,-3.4806,-3.4302,-4.9073,-4.8898,-4.8587,-4.8257,-4.7906,-4.7658,-4.7807,-4.8202,-4.8339,-4.8585,-4.8928,-4.9107,-4.9207,-4.9198,-4.8945,-4.8581,-4.8294,-4.7903,-4.7521,-4.735,-4.7122,-4.6957,-4.6827,-4.6824,-4.6992,-4.6766,-4.7021,-4.7166,-4.7022,-4.7231,-4.7479,-4.7223,-4.6694,-4.6418,-4.6148,-4.5763,-4.5274,-4.4739,-4.4468,-4.4214,-4.4049,-4.3474,-4.2864,-4.243,-4.1898,-4.1723,-4.1619,-4.0999,-4.1081,-4.116,-4.0817,-4.0957,-4.1191,-4.126,-4.1211,-4.1219,-4.1021,-4.0835,-4.057,-4.0212,-4.0234,-4.0419,-4.0453,-4.0344,-4.0528,-4.0398,-4.0344,-4.0323,-4.0474,-4.0788,-4.1229,-4.141,-4.1558,-4.2061,-4.2218,-4.1988,-4.1776,-4.1559,-4.1263,-4.0836,-4.0066,-3.9428,-3.9251,-3.9166,-3.9197,-3.9249,-3.9308,-3.9308,-3.9308,-3.9308,-3.9308,-3.9308,-3.9308,-3.9308,-3.9274,-3.8998,-3.87,-3.8137,-3.7575,-3.7023,-3.6495,-3.63,-3.632,-3.6266,-3.6266,-3.6266,-3.6266,-3.6266,-3.6231,-3.6162,-3.5841,-3.5428,-3.4836,-3.4148,-3.3686,-4.9538,-4.9396,-4.941,-4.9198,-4.8876,-4.8462,-4.867,-4.9128,-4.928,-4.9505,-4.9815,-4.9829,-4.9698,-4.9404,-4.9143,-4.8895,-4.8666,-4.839,-4.8029,-4.7969,-4.8,-4.7822,-4.7758,-4.7742,-4.78,-4.7585,-4.777,-4.7929,-4.7796,-4.806,-4.8041,-4.7892,-4.7645,-4.7289,-4.6946,-4.6453,-4.578,-4.5267,-4.4945,-4.4778,-4.4648,-4.4014,-4.3443,-4.2947,-4.2442,-4.2265,-4.2088,-4.1686,-4.1576,-4.1602,-4.153,-4.1379,-4.1604,-4.1782,-4.1627,-4.1426,-4.124,-4.0982,-4.0539,-4.0344,-4.0464,-4.0647,-4.0474,-4.0528,-4.0647,-4.0528,-4.0344,-4.0344,-4.0409,-4.0658,-4.1187,-4.1304,-4.1433,-4.1817,-4.1817,-4.1674,-4.1565,-4.1418,-4.1189,-4.0871,-4.0168,-3.9607,-3.9185,-3.9142,-3.9007,-3.9131,-3.9308,-3.9308,-3.9308,-3.9308,-3.9308,-3.9308,-3.9308,-3.9308,-3.9297,-3.9113,-3.886,-3.8114,-3.7586,-3.7127,-3.6746,-3.6449,-3.6277,-3.6266,-3.6266,-3.6266,-3.6254,-3.6254,-3.614,-3.6025,-3.5485,-3.4778,-3.4302,-3.3663,-3.3186,-5.0086,-4.9774,-5.0115,-5.0026,-4.9658,-4.9389,-4.9537,-4.9874,-4.99,-4.9958,-5.0057,-5.0038,-4.9878,-4.9649,-4.9427,-4.9265,-4.9095,-4.9161,-4.9057,-4.8691,-4.8846,-4.8827,-4.8709,-4.8651,-4.8682,-4.8648,-4.8672,-4.8652,-4.8526,-4.8379,-4.8302,-4.8185,-4.7951,-4.7737,-4.7593,-4.704,-4.6563,-4.6235,-4.5673,-4.5332,-4.4957,-4.4316,-4.3811,-4.3307,-4.2914,-4.2735,-4.2616,-4.2148,-4.2033,-4.2321,-4.192,-4.1839,-4.2121,-4.219,-4.1877,-4.1346,-4.1304,-4.0982,-4.0409,-4.0344,-4.0464,-4.0712,-4.0464,-4.0464,-4.0647,-4.0528,-4.0344,-4.0344,-4.0464,-4.0712,-4.0906,-4.1111,-4.124,-4.1433,-4.1497,-4.1421,-4.1312,-4.1226,-4.1038,-4.0735,-4.0498,-4.02,-3.9551,-3.9124,-3.8919,-3.8953,-3.919,-3.9308,-3.9249,-3.9308,-3.9308,-3.9308,-3.9308,-3.9308,-3.9308,-3.9308,-3.8987,-3.8229,-3.7632,-3.7186,-3.6695,-3.6285,-3.6214,-3.6223,-3.6157,-3.6004,-3.6091,-3.6231,-3.5802,-3.5218,-3.4594,-3.4011,-3.3595,-3.3198,-3.2757,-5.1018,-5.1036,-5.0958,-5.1058,-5.1061,-5.0442,-5.0363,-5.0685,-5.0572,-5.036,-5.0154,-5.0101,-4.9941,-4.9785,-4.9915,-4.9839,-4.9638,-4.9859,-4.9756,-4.9301,-4.9576,-4.9459,-4.9378,-4.9443,-4.9446,-4.9301,-4.9244,-4.901,-4.8663,-4.8561,-4.8373,-4.8243,-4.7938,-4.769,-4.7337,-4.6947,-4.6614,-4.6348,-4.6052,-4.5905,-4.5507,-4.4947,-4.4388,-4.371,-4.3385,-4.3265,-4.3265,-4.2609,-4.2538,-4.2802,-4.2372,-4.2132,-4.2316,-4.2264,-4.2009,-4.1444,-4.1251,-4.0982,-4.0539,-4.0344,-4.0464,-4.0593,-4.0528,-4.0464,-4.0712,-4.0474,-4.0344,-4.0344,-4.0398,-4.0593,-4.0777,-4.0906,-4.1035,-4.1304,-4.1304,-4.1175,-4.1077,-4.1013,-4.0817,-4.0438,-4.0153,-3.9682,-3.9164,-3.8781,-3.8567,-3.8548,-3.8764,-3.8942,-3.893,-3.9178,-3.9308,-3.9308,-3.9308,-3.9308,-3.9308,-3.9131,-3.8925,-3.8285,-3.7679,-3.7212,-3.6701,-3.6134,-3.5842,-3.5797,-3.5742,-3.5687,-3.5695,-3.5545,-3.486,-3.4253,-3.3752,-3.3351,-3.3011,-3.2644,-3.2329,-5.1716,-5.1713,-5.1766,-5.1909,-5.1957,-5.1273,-5.1072,-5.1169,-5.1026,-5.0846,-5.0732,-5.0617,-5.0584,-5.0586,-5.0643,-5.0587,-5.0325,-5.0668,-5.0653,-5.0208,-5.0376,-5.0312,-5.0188,-5.006,-4.9901,-4.9797,-4.9556,-4.9284,-4.885,-4.8735,-4.8489,-4.8185,-4.7762,-4.7442,-4.7159,-4.6959,-4.6626,-4.6361,-4.6118,-4.5889,-4.5586,-4.5147,-4.4744,-4.4208,-4.3928,-4.3806,-4.361,-4.3289,-4.2888,-4.2981,-4.2771,-4.2327,-4.2264,-4.22,-4.1945,-4.1508,-4.0993,-4.0734,-4.0409,-4.0344,-4.0398,-4.0517,-4.0398,-4.0464,-4.0647,-4.0464,-4.0344,-4.0344,-4.0344,-4.0398,-4.0582,-4.0647,-4.0777,-4.0982,-4.0982,-4.0788,-4.0788,-4.0647,-4.0636,-4.0256,-4.0027,-3.9421,-3.877,-3.8391,-3.8105,-3.8181,-3.8287,-3.8455,-3.8633,-3.8882,-3.9072,-3.9072,-3.9024,-3.8964,-3.8905,-3.8846,-3.8633,-3.8282,-3.7678,-3.7065,-3.65,-3.5925,-3.5613,-3.5423,-3.5478,-3.5411,-3.5165,-3.4851,-3.4218,-3.364,-3.3064,-3.2652,-3.2409,-3.2179,-3.1975,-5.2182,-5.188,-5.2436,-5.2532,-5.2261,-5.1803,-5.1508,-5.1274,-5.1227,-5.1458,-5.1784,-5.1556,-5.1518,-5.1762,-5.17,-5.149,-5.1299,-5.1599,-5.1484,-5.1296,-5.1204,-5.1071,-5.0823,-5.0558,-5.0263,-5.0023,-4.9797,-4.9512,-4.9125,-4.8792,-4.8489,-4.8127,-4.7573,-4.7324,-4.7159,-4.6887,-4.6554,-4.6313,-4.5999,-4.5757,-4.5453,-4.5012,-4.4657,-4.4314,-4.4202,-4.4141,-4.3955,-4.3606,-4.3318,-4.3075,-4.2708,-4.2391,-4.2264,-4.2264,-4.1881,-4.1368,-4.0734,-4.0474,-4.0344,-4.0344,-4.0344,-4.0398,-4.0344,-4.0528,-4.0593,-4.0464,-4.0344,-4.0344,-4.0344,-4.0344,-4.0344,-4.0409,-4.0409,-4.0474,-4.0474,-4.0409,-4.0409,-4.0409,-4.0409,-4.0279,-4.0202,-3.9666,-3.89,-3.8375,-3.8005,-3.7819,-3.7867,-3.7987,-3.8227,-3.8477,-3.8608,-3.8608,-3.8559,-3.85,-3.85,-3.8548,-3.8495,-3.8275,-3.7376,-3.6733,-3.6184,-3.5714,-3.5335,-3.5146,-3.5257,-3.5179,-3.4968,-3.4404,-3.373,-3.3179,-3.2752,-3.2321,-3.2104,-3.2037,-3.1874,-5.2834,-5.2452,-5.2637,-5.2563,-5.2337,-5.2348,-5.2184,-5.1917,-5.1932,-5.2148,-5.2515,-5.2417,-5.2284,-5.2032,-5.2384,-5.2238,-5.2217,-5.2287,-5.2256,-5.2079,-5.1729,-5.1499,-5.1155,-5.078,-5.0487,-5.0263,-5.0037,-4.9683,-4.9412,-4.9023,-4.8561,-4.8127,-4.7573,-4.7324,-4.704,-4.6708,-4.6481,-4.624,-4.5939,-4.5635,-4.527,-4.4963,-4.4656,-4.4409,-4.4285,-4.4285,-4.4161,-4.3639,-4.3377,-4.32,-4.2644,-4.2327,-4.2264,-4.2275,-4.202,-4.1315,-4.0734,-4.0344,-4.0344,-4.0344,-4.0344,-4.0344,-4.0344,-4.0333,-4.0398,-4.0398,-4.0344,-4.0344,-4.0344,-4.0344,-4.0344,-4.0344,-4.0344,-4.0344,-4.0344,-4.0344,-4.0344,-4.0344,-4.0344,-4.0247,-4.017,-3.9777,-3.9034,-3.8499,-3.808,-3.7664,-3.7495,-3.7626,-3.7807,-3.8058,-3.819,-3.819,-3.819,-3.819,-3.832,-3.8369,-3.8373,-3.8111,-3.7286,-3.6567,-3.6201,-3.5677,-3.5089,-3.4813,-3.4913,-3.4858,-3.4725,-3.4142,-3.3603,-3.3154,-3.2718,-3.2246,-3.1801,-3.1775,-3.1618,-5.3144,-5.2713,-5.2713,-5.2701,-5.275,-5.3033,-5.3124,-5.3098,-5.2759,-5.2868,-5.3317,-5.3233,-5.3068,-5.304,-5.3239,-5.309,-5.2703,-5.2833,-5.2783,-5.2394,-5.2113,-5.1746,-5.1335,-5.0947,-5.0655,-5.0431,-5.0206,-4.9854,-4.9512,-4.901,-4.8561,-4.8185,-4.7619,-4.7383,-4.71,-4.6768,-4.6494,-4.618,-4.5878,-4.5514,-4.5208,-4.4902,-4.4532,-4.4347,-4.4285,-4.4285,-4.4223,-4.3639,-4.3377,-4.32,-4.2644,-4.2327,-4.22,-4.2084,-4.1829,-4.1187,-4.0669,-4.0409,-4.0344,-4.0344,-4.0344,-4.0344,-4.0344,-4.0344,-4.0344,-4.0344,-4.0344,-4.0344,-4.0344,-4.0344,-4.0344,-4.0344,-4.0344,-4.0344,-4.0344,-4.0344,-4.0344,-4.0344,-4.0268,-4.0247,-4.0028,-3.9689,-3.9209,-3.8696,-3.8237,-3.7866,-3.7599,-3.7435,-3.7555,-3.7687,-3.7807,-3.7818,-3.7878,-3.7878,-3.7998,-3.8058,-3.7965,-3.775,-3.7211,-3.6597,-3.6176,-3.567,-3.5008,-3.47,-3.4524,-3.4524,-3.4524,-3.4153,-3.3639,-3.3169,-3.2594,-3.2052,-3.162,-3.1468,-3.1333,-5.3175,-5.2837,-5.2852,-5.3192,-5.3514,-5.395,-5.4286,-5.4571,-5.3785,-5.3698,-5.4172,-5.4017,-5.4018,-5.4045,-5.395,-5.3735,-5.3355,-5.3275,-5.3054,-5.2734,-5.2397,-5.2033,-5.1596,-5.1086,-5.0878,-5.0543,-5.0206,-4.991,-4.9455,-4.9068,-4.8619,-4.8198,-4.7821,-4.7514,-4.7146,-4.69,-4.6554,-4.624,-4.5817,-4.5453,-4.5196,-4.4767,-4.4347,-4.4285,-4.4285,-4.4285,-4.4149,-4.3764,-4.3314,-4.3075,-4.2771,-4.2391,-4.2148,-4.1753,-4.1433,-4.1111,-4.0658,-4.0409,-4.0344,-4.0344,-4.0344,-4.0344,-4.0344,-4.0344,-4.0344,-4.0344,-4.0344,-4.0344,-4.0344,-4.0344,-4.0344,-4.0344,-4.0344,-4.0344,-4.0344,-4.0344,-4.0344,-4.0344,-4.0333,-4.0257,-4.0192,-3.9842,-3.9535,-3.8969,-3.8565,-3.816,-3.7833,-3.7571,-3.7435,-3.7495,-3.7495,-3.7566,-3.7626,-3.7687,-3.7626,-3.7626,-3.7555,-3.7249,-3.6942,-3.6527,-3.6114,-3.5564,-3.4993,-3.4686,-3.4468,-3.4479,-3.4391,-3.4031,-3.3617,-3.2922,-3.235,-3.177,-3.1469,-3.1202,-3.1023,-5.3439,-5.3529,-5.3991,-5.4575,-5.5035,-5.482,-5.5098,-5.5607,-5.499,-5.4745,-5.4925,-5.4839,-5.4732,-5.4575,-5.4318,-5.4008,-5.3762,-5.3462,-5.3251,-5.2947,-5.268,-5.2304,-5.1924,-5.1431,-5.1086,-5.0809,-5.0474,-4.998,-4.9341,-4.901,-4.8721,-4.8243,-4.788,-4.756,-4.7205,-4.6947,-4.6673,-4.6301,-4.5939,-4.5574,-4.527,-4.4963,-4.4594,-4.4409,-4.4285,-4.4285,-4.4149,-4.395,-4.3565,-4.3263,-4.2886,-4.2581,-4.2275,-4.1625,-4.1368,-4.1175,-4.0658,-4.0409,-4.0344,-4.0344,-4.0344,-4.0344,-4.0344,-4.0344,-4.0344,-4.0344,-4.0344,-4.0344,-4.0344,-4.0344,-4.0344,-4.0344,-4.0344,-4.0344,-4.0344,-4.0344,-4.0344,-4.0344,-4.0344,-4.0344,-4.0344,-4.0104,-3.9743,-3.9371,-3.8892,-3.8521,-3.8182,-3.7855,-3.7494,-3.7435,-3.7435,-3.7435,-3.7435,-3.7435,-3.7374,-3.7374,-3.7374,-3.7276,-3.7014,-3.6555,-3.6053,-3.525,-3.4528,-3.4542,-3.4468,-3.4367,-3.4199,-3.4145,-3.3601,-3.2911,-3.2266,-3.1763,-3.1063,-3.0735,-3.063,-5.3796,-5.3822,-5.476,-5.5361,-5.5667,-5.559,-5.5777,-5.5884,-5.5531,-5.528,-5.5194,-5.5194,-5.5042,-5.4788,-5.4421,-5.4149,-5.3904,-5.362,-5.3319,-5.3068,-5.2855,-5.2519,-5.2141,-5.1651,-5.1252,-5.0906,-5.0418,-4.9867,-4.924,-4.9068,-4.8766,-4.8302,-4.7938,-4.769,-4.7265,-4.6993,-4.6721,-4.6313,-4.6072,-4.5817,-4.5514,-4.5086,-4.4656,-4.4409,-4.4285,-4.4285,-4.4223,-4.395,-4.3627,-4.3263,-4.2822,-4.2518,-4.2148,-4.1689,-4.1368,-4.1111,-4.0734,-4.0344,-4.0344,-4.0344,-4.0344,-4.0344,-4.0344,-4.0344,-4.0344,-4.0344,-4.0344,-4.0344,-4.0344,-4.0344,-4.0344,-4.0344,-4.0344,-4.0344,-4.0344,-4.0344,-4.0344,-4.0344,-4.0344,-4.0344,-4.0344,-4.0214,-3.9951,-3.9666,-3.9176,-3.8696,-3.8379,-3.7892,-3.7554,-3.7253,-3.7314,-3.7314,-3.7253,-3.7314,-3.7374,-3.7374,-3.7374,-3.7254,-3.6953,-3.6356,-3.5687,-3.4722,-3.4076,-3.4132,-3.4132,-3.4019,-3.3918,-3.3918,-3.3594,-3.295,-3.2294,-3.174,-3.1021,-3.0308,-3.0172,-5.4262,-5.4145,-5.5315,-5.5822,-5.5915,-5.6227,-5.6259,-5.5979,-5.5731,-5.5431,-5.5244,-5.5194,-5.5042,-5.4824,-5.4539,-5.4215,-5.3956,-5.3762,-5.3462,-5.316,-5.2855,-5.2627,-5.225,-5.1774,-5.1307,-5.0795,-5.0292,-4.9797,-4.924,-4.9125,-4.8837,-4.836,-4.8127,-4.7867,-4.7383,-4.7146,-4.6921,-4.6481,-4.6193,-4.6059,-4.5696,-4.5208,-4.4779,-4.4532,-4.4347,-4.4285,-4.4223,-4.4025,-4.3689,-4.3189,-4.2696,-4.2454,-4.2136,-4.1689,-4.1433,-4.1111,-4.0669,-4.0409,-4.0344,-4.0344,-4.0344,-4.0344,-4.0344,-4.0344,-4.0344,-4.0344,-4.0344,-4.0344,-4.0344,-4.0344,-4.0344,-4.0344,-4.0344,-4.0279,-4.0279,-4.0214,-4.0214,-4.0214,-4.0214,-4.0214,-4.0138,-4.0127,-3.9964,-3.9681,-3.9332,-3.8843,-3.8374,-3.7895,-3.7464,-3.7108,-3.6961,-3.7021,-3.6961,-3.7071,-3.7253,-3.7193,-3.7132,-3.6989,-3.6717,-3.6003,-3.5296,-3.4436,-3.3869,-3.3738,-3.3681,-3.3681,-3.3636,-3.3579,-3.3194,-3.281,-3.218,-3.151,-3.0859,-3.02,-2.9783,-5.4774,-5.5391,-5.6207,-5.6594,-5.6577,-5.6473,-5.6259,-5.5979,-5.5731,-5.5431,-5.5244,-5.5194,-5.5143,-5.5093,-5.4839,-5.4502,-5.4149,-5.3904,-5.3658,-5.341,-5.2894,-5.268,-5.2411,-5.1869,-5.1403,-5.0906,-5.0334,-4.984,-4.9398,-4.9183,-4.8966,-4.8619,-4.8257,-4.788,-4.7324,-4.7087,-4.6921,-4.6481,-4.6253,-4.612,-4.5805,-4.5453,-4.5086,-4.4779,-4.4409,-4.4347,-4.4285,-4.4223,-4.3838,-4.3326,-4.2696,-4.2391,-4.2073,-4.1689,-4.1368,-4.1111,-4.0669,-4.0409,-4.0344,-4.0344,-4.0344,-4.0344,-4.0344,-4.0344,-4.0344,-4.0344,-4.0344,-4.0344,-4.0344,-4.0344,-4.0344,-4.0344,-4.0279,-4.0214,-4.0214,-4.0018,-3.9888,-3.9822,-3.9757,-3.9615,-3.9538,-3.9538,-3.9506,-3.9292,-3.9142,-3.868,-3.8262,-3.7853,-3.7305,-3.7007,-3.671,-3.6667,-3.6728,-3.6789,-3.6911,-3.6778,-3.6656,-3.6595,-3.6363,-3.5699,-3.4981,-3.4242,-3.3738,-3.3441,-3.3455,-3.3455,-3.3409,-3.3239,-3.2916,-3.2469,-3.1913,-3.128,-3.0609,-2.9985,-2.9507]},{"header":{"parameterUnit":"m.s-1","parameterCategory":1,"la1":31.0,"la2":29.5877,"lo1":-88.7671,"lo2":-86.6584,"dy":0.0162,"dx":0.0185,"nx":115,"ny":88,"refTime":"2023-05-11T06:00:00:Z","depth":0,"parameterNumber":3,"parameterNumberName":"V-component_of_WINDS"},"data":[0.0,0.0,0.0,0.0,0.0,0.0,0.0,0.0,0.0,0.0,0.0,0.0,0.0,0.0,0.0,0.0,0.0,0.0,0.0,0.0,0.0,0.0,0.0,0.0,0.0,0.0,0.0,0.0,0.0,0.0,0.0,0.0,0.0,0.0,0.0,0.0,0.0,0.0,0.0,0.0,0.0,0.0,0.0,0.0,0.0,0.0,0.0,0.0,0.0,0.0,0.0,0.0,0.0,0.0,0.0,0.0,0.0,0.0,0.0,0.0,0.0,0.0,0.0,0.0,0.0,0.0,0.0,0.0,0.0,0.0,0.0,0.0,0.0,0.0,0.0,0.0,0.0,0.0,0.0,0.0,0.0,0.0,0.0,0.0,0.0,0.0,0.0,0.0,0.0,0.0,0.0,0.0,0.0,0.0,0.0,0.0,0.0,0.0,0.0,0.0,0.0,0.0,0.0,0.0,0.0,0.0,0.0,0.0,0.0,0.0,0.0,0.0,0.0,0.0,0.0,0.0,0.0,0.0,0.0,0.0,0.0,0.0,0.0,0.0,0.0,0.0,0.0,0.0,0.0,0.0,0.0,0.0,0.0,0.0,0.0,0.0,0.0,0.0,0.0,0.0,0.0,0.0,0.0,0.0,0.0,0.0,0.0,0.0,0.0,0.0,0.0,0.0,0.0,0.0,0.0,0.0,0.0,0.0,0.0,0.0,0.0,0.0,0.0,0.0,0.0,0.0,0.0,0.0,0.0,0.0,0.0,0.0,0.0,0.0,0.0,0.0,0.0,0.0,0.0,0.0,0.0,0.0,0.0,0.0,0.0,0.0,0.0,0.0,0.0,0.0,0.0,0.0,0.0,0.0,0.0,0.0,0.0,0.0,0.0,0.0,0.0,0.0,0.0,0.0,0.0,0.0,0.0,0.0,0.0,0.0,0.0,0.0,0.0,0.0,0.0,0.0,0.0,0.0,0.0,0.0,0.0,0.0,0.0,0.0,0.0,0.0,0.0,0.0,0.0,0.0,0.0,0.0,0.0,0.0,0.0,0.0,0.0,0.0,0.0,0.0,0.0,0.0,0.0,0.0,0.0,0.0,0.0,0.0,0.0,0.0,0.0,0.0,0.0,0.0,0.0,0.0,0.0,0.0,0.0,0.0,0.0,0.0,0.0,0.0,0.0,0.0,0.0,0.0,0.0,0.0,0.0,0.0,0.0,0.0,0.0,0.0,0.0,0.0,0.0,0.0,0.0,0.0,0.0,0.0,0.0,0.0,0.0,0.0,0.0,0.0,0.0,0.0,0.0,0.0,0.0,0.0,0.0,0.0,0.0,0.0,0.0,0.0,0.0,0.0,0.0,0.0,0.0,0.0,0.0,0.0,0.0,0.0,0.0,0.0,0.0,0.0,0.0,0.0,0.0,0.0,0.0,0.0,0.0,0.0,0.0,0.0,0.0,0.0,0.0,0.0,0.0,0.0,0.0,0.0,0.0,0.0,0.0,0.0,0.0,0.0,0.0,0.0,0.0,0.0,0.0,0.0,0.0,0.0,0.0,0.0,0.0,0.0,0.0,0.0,0.0,0.0,0.0,0.0,0.0,0.0,0.0,0.0,0.0,0.0,0.0,0.0,0.0,0.0,0.0,0.0,0.0,0.0,0.0,0.0,0.0,0.0,0.0,0.0,0.0,0.0,0.0,0.0,0.0,0.0,0.0,0.0,0.0,0.0,0.0,0.0,0.0,0.0,0.0,0.0,0.0,0.0,0.0,0.0,0.0,0.0,0.0,0.0,0.0,0.0,0.0,0.0,0.0,0.0,0.0,0.0,0.0,0.0,0.0,0.0,0.0,0.0,0.0,0.0,0.0,0.0,0.0,0.0,0.0,0.0,0.0,0.0,0.0,0.0,0.0,0.0,0.0,0.0,0.0,0.0,0.0,0.0,0.0,0.0,0.0,0.0,0.0,0.0,0.0,0.0,0.0,0.0,0.0,0.0,0.0,0.0,0.0,0.0,0.0,0.0,0.0,0.0,0.0,0.0,0.0,0.0,0.0,0.0,0.0,0.0,0.0,0.0,0.0,0.0,0.0,0.0,0.0,0.0,0.0,0.0,0.0,0.0,0.0,0.0,0.0,0.0,0.0,0.0,0.0,0.0,0.0,0.0,0.0,0.0,0.0,0.0,0.0,0.0,0.0,0.0,0.0,0.0,0.0,0.0,0.0,0.0,0.0,0.0,0.0,0.0,0.0,0.0,0.0,0.0,0.0,0.0,0.0,0.0,0.0,0.0,0.0,0.0,0.0,0.0,0.0,0.0,0.0,0.0,0.0,0.0,0.0,0.0,0.0,0.0,0.0,0.0,0.0,0.0,0.0,0.0,0.0,0.0,0.0,0.0,0.0,0.0,0.0,0.0,0.0,0.0,0.0,0.0,0.0,0.0,0.0,0.0,0.0,0.0,0.0,0.0,0.0,0.0,0.0,0.0,0.0,0.0,0.0,0.0,0.0,0.0,0.0,0.0,0.0,0.0,0.0,0.0,0.0,0.0,0.0,0.0,0.0,0.0,0.0,0.0,0.0,0.0,0.0,0.0,0.0,0.0,0.0,0.0,0.0,0.0,0.0,0.0,0.0,0.0,0.0,0.0,0.0,0.0,0.0,0.0,0.0,0.0,0.0,0.0,0.0,0.0,0.0,0.0,0.0,0.0,0.0,0.0,0.0,0.0,0.0,0.0,0.0,0.0,0.0,0.0,0.0,0.0,0.0,0.0,0.0,0.0,0.0,0.0,0.0,0.0,0.0,0.0,0.0,0.0,0.0,0.0,0.0,0.0,0.0,0.0,0.0,0.0,0.0,0.0,0.0,0.0,0.0,0.0,0.0,0.0,0.0,0.0,0.0,0.0,0.0,0.0,0.0,0.0,0.0,0.0,0.0,0.0,0.0,0.0,0.0,0.0,0.0,0.0,0.0,0.0,0.0,0.0,0.0,0.0,0.0,0.0,0.0,0.0,0.0,0.0,0.0,0.0,0.0,0.0,0.0,0.0,0.0,0.0,0.0,0.0,0.0,0.0,0.0,0.0,0.0,0.0,0.0,0.0,0.0,0.0,0.0,0.0,0.0,0.0,0.0,0.0,0.0,0.0,0.0,0.0,0.0,0.0,0.0,0.0,0.0,0.0,0.0,0.0,0.0,0.0,0.0,0.0,0.0,0.0,0.0,0.0,0.0,0.0,0.0,0.0,0.0,0.0,0.0,0.0,0.0,0.0,0.0,0.0,0.0,0.0,0.0,0.0,0.0,0.0,0.0,0.0,0.0,0.0,0.0,0.0,0.0,0.0,0.0,0.0,0.0,0.0,0.0,0.0,0.0,0.0,0.0,0.0,0.0,0.0,0.0,0.0,0.0,0.0,0.0,0.0,0.0,0.0,0.0,0.0,0.0,0.0,0.0,0.0,0.0,0.0,0.0,0.0,0.0,0.0,0.0,0.0,0.0,0.0,0.0,0.0,0.0,0.0,0.0,0.0,0.0,0.0,0.0,0.0,0.0,0.0,0.0,0.0,0.0,0.0,0.0,0.0,0.0,0.0,0.0,0.0,0.0,0.0,0.0,0.0,0.0,0.0,0.0,0.0,0.0,0.0,0.0,0.0,0.0,0.0,0.0,0.0,0.0,0.0,0.0,0.0,0.0,0.0,0.0,0.0,0.0,0.0,0.0,0.0,0.0,0.0,0.0,0.0,0.0,0.0,0.0,0.0,0.0,0.0,0.0,0.0,0.0,0.0,0.0,0.0,0.0,0.0,0.0,0.0,0.0,0.0,0.0,0.0,0.0,0.0,0.0,0.0,0.0,0.0,0.0,0.0,0.0,0.0,0.0,0.0,0.0,0.0,0.0,0.0,0.0,0.0,0.0,0.0,0.0,0.0,0.0,0.0,0.0,0.0,0.0,0.0,0.0,0.0,0.0,0.0,0.0,0.0,0.0,0.0,0.0,0.0,0.0,0.0,0.0,0.0,0.0,0.0,0.0,0.0,0.0,0.0,0.0,0.0,0.0,0.0,0.0,0.0,0.0,0.0,0.0,0.0,0.0,0.0,0.0,0.0,0.0,0.0,0.0,0.0,0.0,0.0,0.0,0.0,0.0,0.0,0.0,0.0,0.0,0.0,0.0,0.0,0.0,0.0,0.0,0.0,0.0,0.0,0.0,0.0,0.0,0.0,0.0,0.0,0.0,0.0,0.0,0.0,0.0,0.0,0.0,0.0,0.0,0.0,0.0,0.0,0.0,0.0,0.0,0.0,1.8896,0.0,0.0,0.0,0.0,0.0,0.0,0.0,0.0,0.0,0.0,0.0,0.0,0.0,0.0,0.0,0.0,0.0,0.0,0.0,0.0,0.0,0.0,0.0,0.0,0.0,0.0,0.0,0.0,0.0,0.0,0.0,0.0,0.0,0.0,0.0,0.0,0.0,0.0,0.0,0.0,0.0,0.0,0.0,0.0,0.0,0.0,0.0,0.0,0.0,0.0,0.0,0.0,0.0,0.0,0.0,0.0,0.0,0.0,0.0,0.0,0.0,0.0,0.0,0.0,0.0,0.0,0.0,0.0,0.0,0.0,0.0,0.0,0.0,0.0,0.0,0.0,0.0,0.0,0.0,0.0,0.0,0.0,0.0,0.0,0.0,0.0,0.0,0.0,0.0,0.0,0.0,0.0,0.0,0.0,0.0,0.0,0.0,0.0,0.0,0.0,0.0,0.0,0.0,0.0,0.0,0.0,0.0,0.0,0.0,0.0,1.8824,1.8896,1.8887,1.8896,1.8886,0.0,0.0,0.0,0.0,0.0,0.0,0.0,0.0,0.0,0.0,0.0,0.0,0.0,0.0,0.0,0.0,0.0,0.0,0.0,0.0,0.0,0.0,0.0,0.0,0.0,0.0,0.0,0.0,0.0,0.0,0.0,0.0,0.0,0.0,0.0,0.0,0.0,0.0,0.0,0.0,0.0,0.0,0.0,0.0,0.0,0.0,0.0,0.0,0.0,0.0,0.0,0.0,0.0,0.0,0.0,0.0,0.0,0.0,0.0,0.0,0.0,0.0,0.0,0.0,0.0,0.0,0.0,0.0,0.0,0.0,0.0,0.0,0.0,0.0,0.0,0.0,0.0,0.0,0.0,0.0,0.0,0.0,0.0,0.0,0.0,0.0,0.0,0.0,0.0,0.0,0.0,0.0,0.0,0.0,0.0,0.0,0.0,0.0,0.0,0.0,0.0,0.0,0.0,0.0,0.0,0.0,0.0,0.0,0.0,0.0,0.0,0.0,1.8887,1.8913,1.8957,0.0,0.0,0.0,0.0,0.0,0.0,0.0,0.0,0.0,0.0,0.0,0.0,0.0,0.0,0.0,0.0,0.0,0.0,0.0,0.0,0.0,0.0,0.0,0.0,0.0,0.0,0.0,0.0,0.0,0.0,0.0,0.0,0.0,0.0,0.0,0.0,0.0,0.0,0.0,0.0,0.0,0.0,0.0,0.0,0.0,0.0,0.0,0.0,0.0,0.0,0.0,0.0,0.0,0.0,0.0,0.0,0.0,0.0,0.0,0.0,0.0,0.0,0.0,0.0,0.0,0.0,0.0,0.0,0.0,0.0,0.0,0.0,0.0,0.0,0.0,0.0,0.0,0.0,0.0,0.0,0.0,0.0,0.0,0.0,0.0,0.0,0.0,0.0,0.0,0.0,0.0,0.0,0.0,0.0,0.0,0.0,0.0,0.0,0.0,0.0,0.0,0.0,0.0,0.0,0.0,0.0,0.0,0.0,0.0,0.0,1.8825,1.8895,1.8886,0.0,1.9062,0.0,0.0,0.0,0.0,0.0,0.0,0.0,0.0,0.0,0.0,0.0,0.0,0.0,0.0,0.0,0.0,0.0,0.0,0.0,0.0,0.0,0.0,0.0,0.0,0.0,0.0,0.0,0.0,0.0,0.0,0.0,0.0,0.0,0.0,0.0,0.0,0.0,0.0,0.0,0.0,0.0,0.0,0.0,0.0,0.0,0.0,0.0,0.0,0.0,0.0,0.0,0.0,0.0,0.0,0.0,0.0,0.0,0.0,0.0,0.0,0.0,0.0,0.0,0.0,0.0,0.0,0.0,0.0,0.0,0.0,0.0,0.0,0.0,0.0,0.0,0.0,0.0,0.0,0.0,0.0,0.0,0.0,0.0,0.0,0.0,0.0,0.0,0.0,0.0,0.0,0.0,0.0,0.0,0.0,0.0,0.0,0.0,0.0,0.0,0.0,0.0,0.0,0.0,0.0,0.0,0.0,0.0,0.0,0.0,0.0,1.8834,1.8886,1.8974,1.9035,0.0,0.0,0.0,0.0,0.0,0.0,0.0,0.0,0.0,0.0,0.0,0.0,0.0,0.0,0.0,0.0,0.0,0.0,0.0,0.0,0.0,0.0,0.0,0.0,0.0,0.0,0.0,0.0,0.0,0.0,0.0,0.0,0.0,0.0,0.0,0.0,0.0,0.0,0.0,0.0,0.0,0.0,0.0,0.0,0.0,0.0,0.0,0.0,0.0,0.0,0.0,0.0,0.0,0.0,0.0,0.0,0.0,0.0,0.0,0.0,0.0,0.0,0.0,0.0,0.0,0.0,0.0,0.0,0.0,0.0,0.0,0.0,0.0,0.0,0.0,0.0,0.0,0.0,0.0,0.0,0.0,0.0,0.0,0.0,0.0,0.0,0.0,0.0,0.0,0.0,0.0,0.0,0.0,0.0,0.0,0.0,0.0,0.0,0.0,0.0,0.0,0.0,0.0,0.0,0.0,0.0,0.0,0.0,0.0,0.0,1.9372,1.9477,1.957,1.9677,1.9631,1.9431,0.0,0.0,0.0,0.0,0.0,0.0,0.0,0.0,0.0,0.0,0.0,0.0,0.0,0.0,0.0,0.0,0.0,0.0,0.0,0.0,0.0,0.0,0.0,0.0,0.0,0.0,0.0,0.0,0.0,0.0,0.0,0.0,0.0,0.0,0.0,0.0,0.0,0.0,0.0,0.0,0.0,0.0,0.0,0.0,0.0,0.0,0.0,0.0,0.0,0.0,0.0,0.0,0.0,0.0,0.0,0.0,0.0,0.0,0.0,0.0,0.0,0.0,0.0,0.0,0.0,0.0,0.0,0.0,0.0,0.0,0.0,0.0,0.0,0.0,0.0,0.0,0.0,0.0,0.0,0.0,0.0,0.0,0.0,0.0,0.0,0.0,0.0,0.0,0.0,0.0,0.0,0.0,0.0,0.0,0.0,0.0,0.0,0.0,0.0,0.0,0.0,0.0,0.0,0.0,0.0,0.0,0.0,0.0,2.0859,2.0933,2.1065,2.1153,2.1245,2.0969,0.0,0.0,0.0,0.0,0.0,0.0,0.0,0.0,0.0,0.0,0.0,0.0,0.0,0.0,0.0,0.0,0.0,0.0,0.0,0.0,0.0,0.0,0.0,0.0,0.0,0.0,0.0,0.0,0.0,0.0,0.0,0.0,0.0,0.0,0.0,0.0,0.0,0.0,0.0,0.0,0.0,0.0,0.0,0.0,0.0,0.0,0.0,0.0,0.0,0.0,0.0,0.0,0.0,0.0,0.0,0.0,0.0,0.0,0.0,0.0,0.0,0.0,0.0,0.0,0.0,0.0,0.0,0.0,0.0,0.0,0.0,0.0,0.0,0.0,0.0,0.0,0.0,0.0,0.0,0.0,0.0,0.0,0.0,0.0,0.0,0.0,0.0,0.0,0.0,0.0,0.0,0.0,0.0,0.0,0.0,0.0,0.0,0.0,0.0,0.0,0.0,0.0,0.0,0.0,0.0,0.0,0.0,0.0,0.0,2.0947,2.1029,2.1144,2.1235,2.1342,2.1265,0.0,0.0,0.0,0.0,0.0,0.0,0.0,0.0,0.0,0.0,0.0,0.0,0.0,0.0,0.0,0.0,0.0,0.0,0.0,0.0,0.0,0.0,0.0,0.0,0.0,0.0,0.0,0.0,0.0,0.0,0.0,0.0,0.0,0.0,0.0,0.0,0.0,0.0,0.0,0.0,0.0,0.0,0.0,0.0,0.0,0.0,0.0,0.0,0.0,0.0,0.0,0.0,0.0,0.0,0.0,0.0,0.0,0.0,0.0,0.0,0.0,0.0,0.0,0.0,0.0,0.0,0.0,0.0,0.0,0.0,0.0,0.0,0.0,0.0,0.0,0.0,0.0,0.0,0.0,0.0,0.0,0.0,0.0,0.0,0.0,0.0,0.0,0.0,0.0,0.0,0.0,0.0,0.0,0.0,0.0,0.0,0.0,0.0,0.0,0.0,0.0,0.0,0.0,0.0,0.0,0.0,0.0,0.0,0.0,2.1654,0.0,2.1879,0.0,2.2085,2.203,0.0,0.0,0.0,0.0,0.0,0.0,0.0,0.0,0.0,0.0,0.0,0.0,0.0,0.0,0.0,0.0,0.0,0.0,0.0,0.0,0.0,0.0,0.0,0.0,0.0,0.0,0.0,0.0,0.0,0.0,0.0,0.0,0.0,0.0,0.0,0.0,0.0,0.0,0.0,0.0,0.0,0.0,0.0,0.0,0.0,0.0,0.0,0.0,0.0,0.0,0.0,0.0,0.0,0.0,0.0,0.0,0.0,0.0,0.0,0.0,0.0,0.0,0.0,0.0,0.0,0.0,0.0,0.0,0.0,0.0,0.0,0.0,0.0,0.0,0.0,0.0,0.0,0.0,0.0,0.0,0.0,0.0,0.0,0.0,0.0,0.0,0.0,0.0,0.0,0.0,0.0,0.0,0.0,0.0,0.0,0.0,0.0,0.0,0.0,0.0,0.0,0.0,0.0,0.0,0.0,0.0,0.0,0.0,2.3025,2.321,2.3342,2.3436,2.3487,2.3587,2.335,0.0,0.0,0.0,0.0,0.0,0.0,0.0,0.0,0.0,0.0,0.0,0.0,0.0,0.0,0.0,0.0,0.0,0.0,0.0,0.0,0.0,0.0,0.0,0.0,0.0,0.0,0.0,0.0,0.0,0.0,0.0,0.0,0.0,0.0,0.0,0.0,0.0,0.0,0.0,0.0,0.0,0.0,0.0,0.0,0.0,0.0,0.0,0.0,0.0,0.0,0.0,0.0,0.0,0.0,0.0,0.0,0.0,0.0,0.0,0.0,0.0,0.0,0.0,0.0,0.0,0.0,0.0,0.0,0.0,0.0,0.0,0.0,0.0,0.0,0.0,0.0,0.0,0.0,0.0,0.0,0.0,0.0,0.0,0.0,0.0,0.0,0.0,0.0,0.0,0.0,0.0,0.0,0.0,0.0,0.0,0.0,0.0,0.0,0.0,0.0,0.0,0.0,0.0,0.0,0.0,0.0,0.0,0.0,0.0,2.4712,2.4855,2.4708,2.4284,2.4396,2.4123,0.0,0.0,0.0,0.0,0.0,0.0,0.0,0.0,0.0,0.0,0.0,0.0,0.0,0.0,0.0,0.0,0.0,0.0,0.0,0.0,0.0,0.0,0.0,0.0,0.0,0.0,0.0,0.0,0.0,0.0,0.0,0.0,0.0,0.0,0.0,0.0,0.0,0.0,0.0,0.0,0.0,0.0,0.0,0.0,0.0,0.0,0.0,0.0,0.0,0.0,0.0,0.0,0.0,0.0,0.0,0.0,0.0,0.0,0.0,0.0,0.0,0.0,0.0,0.0,0.0,0.0,0.0,0.0,0.0,0.0,0.0,0.0,0.0,0.0,0.0,0.0,0.0,0.0,0.0,0.0,0.0,0.0,0.0,0.0,0.0,0.0,0.0,0.0,0.0,0.0,0.0,0.0,0.0,0.0,0.0,0.0,0.0,0.0,0.0,0.0,0.0,0.0,0.0,0.0,0.0,0.0,0.0,0.0,0.0,2.6615,2.5926,2.5375,2.4974,2.5092,2.4843,2.4163,0.0,0.0,0.0,0.0,0.0,0.0,0.0,0.0,0.0,0.0,0.0,0.0,0.0,0.0,0.0,0.0,0.0,0.0,0.0,0.0,0.0,0.0,0.0,0.0,0.0,0.0,0.0,0.0,0.0,0.0,0.0,0.0,0.0,0.0,0.0,0.0,0.0,0.0,0.0,0.0,0.0,0.0,0.0,0.0,0.0,0.0,0.0,0.0,0.0,0.0,0.0,0.0,0.0,0.0,0.0,0.0,0.0,0.0,0.0,0.0,0.0,0.0,0.0,0.0,0.0,0.0,0.0,0.0,0.0,0.0,0.0,0.0,0.0,0.0,0.0,0.0,0.0,0.0,0.0,0.0,0.0,0.0,0.0,0.0,0.0,0.0,0.0,0.0,0.0,0.0,0.0,0.0,0.0,0.0,0.0,0.0,0.0,0.0,0.0,0.0,0.0,0.0,0.0,0.0,0.0,0.0,0.0,0.0,2.8749,2.6777,2.5786,2.5747,2.5872,2.5588,0.0,0.0,0.0,0.0,0.0,0.0,0.0,0.0,0.0,0.0,0.0,0.0,0.0,0.0,0.0,0.0,0.0,0.0,0.0,0.0,0.0,0.0,0.0,0.0,0.0,0.0,0.0,0.0,0.0,0.0,0.0,0.0,0.0,0.0,0.0,0.0,0.0,0.0,0.0,0.0,0.0,0.0,0.0,0.0,0.0,0.0,0.0,0.0,0.0,0.0,0.0,0.0,0.0,0.0,0.0,0.0,0.0,0.0,0.0,0.0,0.0,0.0,0.0,0.0,0.0,0.0,0.0,0.0,0.0,0.0,0.0,0.0,0.0,0.0,0.0,0.0,0.0,0.0,0.0,0.0,0.0,0.0,0.0,0.0,0.0,0.0,0.0,0.0,0.0,0.0,0.0,0.0,0.0,0.0,0.0,0.0,0.0,0.0,0.0,0.0,0.0,0.0,0.0,0.0,0.0,0.0,0.0,0.0,0.0,2.9347,2.8968,2.831,2.7409,2.7449,2.6911,0.0,0.0,0.0,0.0,0.0,0.0,0.0,0.0,0.0,0.0,0.0,0.0,0.0,0.0,0.0,0.0,0.0,0.0,0.0,0.0,0.0,0.0,0.0,0.0,0.0,0.0,0.0,0.0,0.0,0.0,0.0,0.0,0.0,0.0,0.0,0.0,0.0,0.0,0.0,0.0,0.0,0.0,0.0,0.0,0.0,0.0,0.0,0.0,0.0,0.0,0.0,0.0,0.0,0.0,0.0,0.0,0.0,0.0,0.0,0.0,0.0,0.0,0.0,0.0,0.0,0.0,0.0,0.0,0.0,0.0,0.0,0.0,0.0,0.0,0.0,0.0,0.0,0.0,0.0,0.0,0.0,0.0,0.0,0.0,0.0,0.0,0.0,0.0,0.0,0.0,0.0,0.0,0.0,0.0,0.0,0.0,0.0,0.0,0.0,0.0,0.0,0.0,0.0,0.0,0.0,0.0,0.0,0.0,3.0144,3.0577,3.0733,3.0516,2.9814,2.8977,2.8006,0.0,0.0,0.0,0.0,0.0,0.0,0.0,0.0,0.0,0.0,0.0,0.0,0.0,0.0,0.0,0.0,0.0,0.0,0.0,0.0,0.0,0.0,0.0,0.0,0.0,0.0,0.0,0.0,0.0,0.0,0.0,0.0,0.0,0.0,0.0,0.0,0.0,0.0,0.0,0.0,0.0,0.0,0.0,0.0,0.0,0.0,0.0,0.0,0.0,0.0,0.0,0.0,0.0,0.0,0.0,0.0,0.0,0.0,0.0,0.0,0.0,0.0,0.0,0.0,0.0,0.0,0.0,0.0,0.0,0.0,0.0,0.0,0.0,0.0,0.0,0.0,0.0,0.0,0.0,0.0,0.0,0.0,0.0,0.0,0.0,0.0,0.0,0.0,0.0,0.0,0.0,0.0,0.0,0.0,0.0,0.0,0.0,0.0,0.0,0.0,0.0,0.0,0.0,0.0,0.0,0.0,0.0,0.0,3.1175,3.2118,3.2263,3.2405,3.2459,3.0462,2.9018,0.0,0.0,0.0,0.0,0.0,0.0,0.0,0.0,0.0,0.0,0.0,0.0,0.0,0.0,0.0,0.0,0.0,0.0,0.0,0.0,0.0,0.0,0.0,0.0,0.0,0.0,0.0,0.0,0.0,0.0,0.0,0.0,0.0,0.0,0.0,0.0,0.0,0.0,0.0,0.0,0.0,0.0,0.0,0.0,0.0,0.0,0.0,0.0,0.0,0.0,0.0,0.0,0.0,0.0,0.0,0.0,0.0,0.0,0.0,0.0,0.0,0.0,0.0,0.0,0.0,0.0,0.0,0.0,0.0,0.0,0.0,0.0,0.0,0.0,0.0,0.0,0.0,0.0,0.0,0.0,0.0,0.0,0.0,0.0,0.0,0.0,0.0,0.0,0.0,0.0,0.0,0.0,0.0,0.0,0.0,0.0,0.0,0.0,0.0,0.0,0.0,0.0,0.0,0.0,0.0,0.0,0.0,0.0,3.2644,3.3615,3.3807,3.3919,3.3939,3.2016,3.0353,0.0,0.0,0.0,0.0,0.0,0.0,0.0,0.0,0.0,0.0,0.0,0.0,0.0,0.0,0.0,0.0,0.0,0.0,0.0,0.0,0.0,0.0,0.0,0.0,0.0,0.0,0.0,0.0,0.0,0.0,0.0,0.0,0.0,0.0,0.0,0.0,0.0,0.0,0.0,0.0,0.0,0.0,0.0,0.0,0.0,0.0,0.0,0.0,2.3554,0.0,0.0,0.0,0.0,0.0,0.0,0.0,0.0,0.0,0.0,0.0,0.0,0.0,0.0,0.0,0.0,0.0,0.0,0.0,0.0,0.0,0.0,0.0,0.0,0.0,0.0,0.0,0.0,0.0,0.0,0.0,0.0,0.0,0.0,0.0,0.0,0.0,0.0,0.0,0.0,0.0,0.0,0.0,0.0,0.0,0.0,0.0,0.0,0.0,0.0,0.0,0.0,0.0,0.0,0.0,0.0,0.0,0.0,0.0,3.3579,3.4499,3.4426,3.458,3.4842,3.3389,3.2022,0.0,0.0,0.0,0.0,0.0,0.0,0.0,0.0,0.0,0.0,0.0,0.0,0.0,0.0,0.0,0.0,0.0,0.0,0.0,0.0,0.0,0.0,0.0,0.0,0.0,0.0,0.0,0.0,0.0,0.0,0.0,0.0,0.0,0.0,0.0,0.0,0.0,0.0,0.0,0.0,0.0,0.0,0.0,0.0,0.0,0.0,0.0,0.0,0.0,0.0,0.0,0.0,0.0,0.0,0.0,0.0,0.0,0.0,0.0,0.0,0.0,0.0,0.0,0.0,0.0,0.0,0.0,0.0,0.0,0.0,0.0,0.0,0.0,0.0,0.0,0.0,0.0,0.0,0.0,0.0,0.0,0.0,0.0,0.0,0.0,0.0,0.0,0.0,0.0,0.0,0.0,0.0,0.0,0.0,0.0,0.0,0.0,0.0,0.0,0.0,0.0,0.0,0.0,0.0,0.0,0.0,0.0,3.3472,3.4312,3.5139,3.4909,3.5048,3.5658,3.4691,3.3792,3.2962,0.0,0.0,0.0,0.0,0.0,0.0,0.0,0.0,0.0,0.0,0.0,0.0,0.0,0.0,0.0,0.0,0.0,0.0,0.0,0.0,0.0,0.0,0.0,0.0,0.0,0.0,0.0,0.0,0.0,0.0,0.0,0.0,0.0,0.0,0.0,0.0,0.0,0.0,2.493,2.5106,0.0,0.0,0.0,0.0,0.0,0.0,0.0,0.0,2.5561,0.0,0.0,0.0,0.0,0.0,0.0,0.0,0.0,0.0,0.0,0.0,0.0,0.0,0.0,0.0,0.0,0.0,0.0,0.0,0.0,0.0,0.0,0.0,0.0,0.0,0.0,0.0,0.0,0.0,0.0,0.0,0.0,0.0,0.0,0.0,0.0,0.0,0.0,0.0,0.0,0.0,0.0,0.0,0.0,0.0,0.0,0.0,0.0,0.0,0.0,0.0,0.0,0.0,0.0,0.0,0.0,3.342,3.4277,3.5099,3.5981,3.6208,3.6388,3.6496,3.5991,3.5349,3.45,0.0,0.0,0.0,0.0,0.0,0.0,0.0,0.0,0.0,0.0,0.0,0.0,0.0,0.0,0.0,0.0,0.0,0.0,0.0,0.0,0.0,0.0,0.0,0.0,0.0,0.0,0.0,0.0,0.0,0.0,0.0,0.0,0.0,0.0,0.0,0.0,0.0,0.0,0.0,2.5331,2.5802,0.0,0.0,0.0,0.0,0.0,0.0,0.0,0.0,2.5412,0.0,0.0,0.0,0.0,0.0,0.0,0.0,0.0,0.0,0.0,0.0,0.0,0.0,0.0,0.0,0.0,0.0,0.0,0.0,0.0,0.0,0.0,0.0,0.0,0.0,0.0,0.0,0.0,0.0,0.0,0.0,0.0,0.0,0.0,0.0,0.0,0.0,0.0,0.0,0.0,0.0,0.0,0.0,0.0,0.0,0.0,0.0,0.0,0.0,0.0,0.0,0.0,0.0,0.0,0.0,3.4067,3.536,3.6219,3.6661,3.7469,3.7694,3.7276,3.6925,3.634,0.0,0.0,0.0,0.0,0.0,0.0,0.0,0.0,0.0,0.0,0.0,0.0,0.0,0.0,0.0,0.0,0.0,0.0,0.0,0.0,0.0,0.0,0.0,0.0,0.0,0.0,0.0,0.0,0.0,0.0,0.0,0.0,0.0,0.0,0.0,0.0,0.0,0.0,0.0,0.0,2.6803,2.7212,2.7636,0.0,0.0,0.0,0.0,0.0,0.0,2.7046,2.6982,0.0,0.0,0.0,0.0,0.0,0.0,0.0,0.0,0.0,0.0,0.0,0.0,0.0,0.0,0.0,0.0,0.0,0.0,0.0,0.0,0.0,0.0,0.0,0.0,0.0,0.0,0.0,0.0,0.0,0.0,0.0,0.0,0.0,0.0,0.0,0.0,0.0,0.0,0.0,0.0,0.0,0.0,0.0,0.0,0.0,0.0,0.0,0.0,0.0,0.0,0.0,0.0,0.0,0.0,0.0,3.4726,3.6287,3.7166,3.7359,3.8416,3.869,3.8059,3.7697,3.7135,0.0,0.0,0.0,0.0,0.0,0.0,0.0,0.0,0.0,0.0,0.0,0.0,0.0,0.0,0.0,0.0,0.0,0.0,0.0,0.0,0.0,0.0,0.0,0.0,0.0,0.0,0.0,0.0,0.0,0.0,0.0,0.0,0.0,0.0,0.0,0.0,0.0,0.0,0.0,0.0,0.0,2.8458,2.909,2.9175,0.0,0.0,0.0,0.0,2.8843,2.8789,0.0,0.0,0.0,0.0,0.0,0.0,0.0,0.0,0.0,0.0,0.0,0.0,0.0,0.0,0.0,0.0,0.0,0.0,0.0,0.0,0.0,0.0,0.0,0.0,0.0,0.0,0.0,0.0,0.0,0.0,0.0,0.0,0.0,0.0,0.0,0.0,0.0,0.0,0.0,0.0,0.0,0.0,0.0,0.0,0.0,0.0,0.0,0.0,0.0,0.0,0.0,0.0,0.0,0.0,0.0,0.0,3.5464,3.6525,3.7405,3.8065,3.8693,3.8951,3.8864,3.8427,3.7872,0.0,0.0,0.0,0.0,0.0,0.0,0.0,0.0,0.0,0.0,0.0,0.0,0.0,0.0,0.0,0.0,0.0,0.0,0.0,0.0,0.0,0.0,0.0,0.0,0.0,0.0,0.0,0.0,0.0,0.0,0.0,0.0,0.0,0.0,0.0,0.0,0.0,0.0,0.0,0.0,0.0,2.8801,2.9067,2.9119,2.9138,0.0,0.0,2.9282,2.9386,2.942,0.0,0.0,0.0,0.0,0.0,0.0,0.0,0.0,0.0,0.0,0.0,0.0,0.0,0.0,0.0,0.0,0.0,0.0,0.0,0.0,0.0,0.0,0.0,0.0,0.0,0.0,0.0,0.0,0.0,0.0,0.0,0.0,0.0,0.0,0.0,0.0,0.0,0.0,0.0,0.0,0.0,0.0,0.0,0.0,0.0,0.0,0.0,0.0,0.0,0.0,0.0,0.0,0.0,0.0,0.0,3.5311,3.6282,3.7688,3.8538,3.8903,3.9778,4.0043,3.9643,3.9199,3.8647,0.0,0.0,0.0,0.0,0.0,0.0,0.0,0.0,0.0,0.0,0.0,0.0,0.0,0.0,0.0,0.0,0.0,0.0,0.0,0.0,0.0,0.0,0.0,0.0,0.0,0.0,0.0,0.0,0.0,0.0,0.0,0.0,0.0,0.0,0.0,0.0,0.0,0.0,0.0,0.0,0.0,0.0,3.0044,3.0169,0.0,0.0,0.0,3.03,3.0053,0.0,0.0,0.0,0.0,0.0,0.0,0.0,0.0,0.0,0.0,0.0,0.0,0.0,0.0,0.0,0.0,0.0,0.0,0.0,0.0,0.0,0.0,0.0,0.0,0.0,0.0,0.0,0.0,0.0,0.0,0.0,0.0,0.0,0.0,0.0,0.0,0.0,0.0,0.0,0.0,0.0,0.0,0.0,0.0,0.0,0.0,0.0,0.0,0.0,0.0,0.0,0.0,0.0,0.0,0.0,0.0,0.0,3.7347,3.8693,3.9501,3.9689,4.066,4.0948,4.0386,3.9947,0.0,0.0,0.0,0.0,0.0,0.0,0.0,0.0,0.0,0.0,0.0,0.0,0.0,0.0,0.0,0.0,0.0,0.0,0.0,0.0,0.0,0.0,0.0,0.0,0.0,0.0,0.0,2.9051,0.0,0.0,0.0,0.0,0.0,0.0,0.0,0.0,0.0,0.0,0.0,0.0,0.0,0.0,3.0747,3.134,3.1452,3.153,0.0,0.0,3.1627,3.1215,3.1168,3.1056,0.0,0.0,0.0,0.0,0.0,0.0,0.0,0.0,0.0,0.0,0.0,0.0,0.0,0.0,0.0,0.0,0.0,0.0,0.0,0.0,0.0,0.0,0.0,0.0,0.0,0.0,0.0,0.0,0.0,0.0,0.0,0.0,0.0,0.0,0.0,0.0,0.0,0.0,0.0,0.0,0.0,0.0,0.0,0.0,0.0,0.0,0.0,0.0,0.0,0.0,0.0,0.0,0.0,0.0,0.0,3.8802,3.9221,3.9758,4.0407,4.0919,4.1174,4.1122,4.067,4.0486,0.0,0.0,0.0,0.0,0.0,0.0,0.0,0.0,0.0,0.0,0.0,0.0,0.0,0.0,0.0,0.0,0.0,0.0,0.0,0.0,0.0,0.0,0.0,0.0,0.0,0.0,0.0,0.0,0.0,0.0,0.0,0.0,0.0,0.0,0.0,0.0,0.0,0.0,0.0,0.0,0.0,3.2712,3.2837,3.2875,3.2842,0.0,0.0,3.3094,3.3186,3.3273,3.3393,3.3413,0.0,0.0,0.0,0.0,0.0,0.0,0.0,0.0,0.0,0.0,0.0,0.0,0.0,0.0,0.0,0.0,0.0,0.0,0.0,0.0,0.0,0.0,0.0,0.0,0.0,0.0,0.0,0.0,0.0,0.0,0.0,0.0,0.0,0.0,0.0,0.0,0.0,0.0,0.0,0.0,0.0,0.0,0.0,0.0,0.0,0.0,0.0,0.0,0.0,0.0,0.0,0.0,0.0,3.8169,3.8988,4.0158,4.0903,4.1201,4.168,4.194,4.194,4.1003,4.0591,0.0,0.0,0.0,0.0,0.0,0.0,0.0,0.0,0.0,0.0,0.0,0.0,0.0,0.0,0.0,0.0,0.0,0.0,0.0,0.0,0.0,0.0,0.0,0.0,0.0,0.0,0.0,0.0,3.1422,3.1562,3.1996,0.0,0.0,0.0,0.0,0.0,0.0,0.0,0.0,0.0,0.0,3.2785,3.2813,3.2873,0.0,0.0,3.3004,3.3113,3.3156,3.3262,3.3389,3.3494,3.3114,0.0,0.0,0.0,0.0,0.0,0.0,0.0,0.0,0.0,0.0,0.0,0.0,0.0,0.0,0.0,0.0,0.0,0.0,0.0,0.0,0.0,0.0,0.0,0.0,0.0,0.0,0.0,0.0,0.0,0.0,0.0,0.0,0.0,0.0,0.0,0.0,0.0,0.0,0.0,0.0,0.0,0.0,0.0,0.0,0.0,0.0,0.0,0.0,0.0,0.0,0.0,0.0,3.895,3.9648,4.0966,4.1706,4.1903,4.2459,4.274,4.2706,4.1738,4.1274,0.0,0.0,0.0,0.0,0.0,0.0,0.0,0.0,0.0,0.0,0.0,0.0,0.0,0.0,0.0,0.0,0.0,0.0,0.0,0.0,0.0,0.0,0.0,0.0,0.0,0.0,0.0,0.0,3.2932,3.3104,3.3775,0.0,0.0,0.0,0.0,0.0,0.0,0.0,0.0,0.0,0.0,3.4005,3.4005,3.4107,3.417,3.417,3.4228,3.428,3.428,3.441,3.4522,3.4671,0.0,0.0,0.0,0.0,0.0,0.0,0.0,0.0,0.0,0.0,0.0,0.0,0.0,0.0,0.0,0.0,0.0,0.0,0.0,0.0,0.0,0.0,0.0,0.0,0.0,0.0,0.0,0.0,0.0,0.0,2.8036,0.0,0.0,0.0,0.0,0.0,0.0,0.0,0.0,0.0,0.0,0.0,0.0,0.0,0.0,0.0,0.0,0.0,0.0,0.0,0.0,0.0,0.0,3.9437,4.1119,4.1469,4.1997,4.2655,4.3195,4.3464,4.3489,4.301,4.2773,4.2798,0.0,0.0,0.0,0.0,0.0,0.0,0.0,0.0,0.0,0.0,0.0,0.0,0.0,0.0,0.0,0.0,0.0,0.0,0.0,0.0,0.0,0.0,0.0,0.0,0.0,0.0,3.3721,3.3515,3.3972,0.0,0.0,0.0,0.0,0.0,0.0,0.0,0.0,0.0,0.0,3.7019,3.6977,3.6953,3.697,3.6887,3.692,3.7053,3.717,3.7136,3.7227,3.7459,0.0,0.0,0.0,0.0,0.0,0.0,0.0,0.0,0.0,0.0,0.0,0.0,0.0,0.0,0.0,0.0,0.0,0.0,0.0,0.0,0.0,0.0,0.0,0.0,0.0,0.0,0.0,2.7822,2.7923,0.0,0.0,0.0,0.0,0.0,0.0,0.0,0.0,0.0,0.0,0.0,3.3464,3.3922,0.0,0.0,0.0,0.0,0.0,0.0,0.0,0.0,0.0,0.0,0.0,0.0,4.0428,4.1221,4.2491,4.3235,4.3518,4.3931,4.4208,4.4282,4.3703,4.3272,4.3037,0.0,0.0,0.0,0.0,0.0,0.0,0.0,0.0,0.0,0.0,0.0,0.0,0.0,0.0,0.0,0.0,0.0,0.0,0.0,0.0,0.0,0.0,0.0,0.0,0.0,3.4213,0.0,0.0,0.0,0.0,0.0,0.0,0.0,0.0,0.0,0.0,0.0,3.6363,3.6713,3.6746,3.6772,3.6772,3.6882,3.6975,0.0,0.0,0.0,0.0,0.0,0.0,0.0,0.0,0.0,0.0,0.0,0.0,0.0,0.0,3.6034,3.426,3.394,3.394,3.394,0.0,0.0,0.0,0.0,0.0,0.0,0.0,0.0,0.0,0.0,0.0,0.0,0.0,0.0,2.9184,0.0,2.9403,0.0,0.0,0.0,0.0,0.0,0.0,0.0,0.0,3.3723,3.422,3.4949,3.5446,3.5926,0.0,3.6845,3.6738,0.0,0.0,0.0,0.0,0.0,0.0,0.0,0.0,4.1167,4.1955,4.324,4.4031,4.427,4.4673,4.4956,4.5065,4.4513,4.3957,4.3478,4.3075,4.2438,0.0,0.0,0.0,0.0,0.0,0.0,0.0,0.0,0.0,0.0,0.0,0.0,0.0,0.0,0.0,0.0,0.0,0.0,0.0,0.0,0.0,0.0,0.0,3.5642,0.0,0.0,0.0,0.0,0.0,0.0,0.0,0.0,0.0,3.7705,3.7587,3.7705,3.809,3.8139,3.8123,3.8123,0.0,0.0,0.0,0.0,0.0,0.0,0.0,3.8622,3.8476,3.8287,3.8012,3.7577,3.7533,3.7565,3.7565,0.0,0.0,3.5421,3.5125,3.5125,3.5125,3.5125,3.53,3.5859,3.6358,3.6831,0.0,0.0,0.0,0.0,0.0,0.0,0.0,0.0,3.1694,3.183,0.0,3.2082,0.0,0.0,0.0,0.0,0.0,3.3522,0.0,0.0,3.5678,3.6423,3.7085,3.7152,3.7185,3.7201,3.7284,3.7649,3.8245,3.7615,0.0,0.0,0.0,0.0,0.0,0.0,4.1732,4.3308,4.3768,4.4304,4.4971,4.538,4.5667,4.576,4.5373,4.4812,4.4189,4.4251,4.366,4.2242,4.2296,0.0,0.0,0.0,0.0,0.0,0.0,0.0,0.0,0.0,0.0,0.0,0.0,0.0,0.0,0.0,0.0,0.0,0.0,0.0,0.0,3.8218,0.0,0.0,0.0,0.0,0.0,0.0,0.0,0.0,0.0,0.0,3.9265,3.8947,3.9388,4.0729,0.0,0.0,0.0,0.0,4.0971,4.0954,4.0987,4.1029,4.1124,4.1152,4.1036,4.0635,0.0,0.0,3.7845,3.7636,3.7678,3.7636,3.7745,3.7676,3.7862,3.7715,3.7638,3.7655,3.757,3.7756,3.7841,3.7824,3.7908,3.2078,0.0,0.0,0.0,0.0,3.2489,3.2682,3.2898,3.2991,3.3067,3.3159,3.3344,0.0,0.0,0.0,0.0,0.0,0.0,3.6108,3.6364,3.6654,3.7168,3.7871,3.8411,3.8924,3.9454,3.9951,4.0282,4.0453,4.0255,4.0034,3.9785,0.0,0.0,0.0,0.0,4.2816,4.342,4.4245,4.48,4.4988,4.5318,4.5581,4.5812,4.588,4.5602,4.4988,4.4994,4.4587,4.3709,4.3718,0.0,0.0,0.0,0.0,0.0,0.0,0.0,0.0,0.0,0.0,0.0,0.0,0.0,0.0,0.0,0.0,0.0,0.0,0.0,3.8945,3.9287,3.9665,0.0,0.0,0.0,0.0,0.0,0.0,0.0,0.0,0.0,4.0981,4.0498,4.0277,0.0,0.0,4.0631,4.0631,4.072,4.0779,4.0795,4.09,0.0,0.0,4.1045,4.1009,4.0881,4.0696,4.0416,4.005,3.9984,4.0,3.9995,3.9984,4.0012,3.9963,3.8685,3.7684,3.7575,3.7575,3.7944,3.8883,3.9151,3.9453,3.4237,3.4317,3.3846,3.3569,3.3498,3.3704,3.3924,3.4153,3.4276,3.4372,3.4468,3.4595,3.4699,3.4752,3.501,0.0,0.0,0.0,3.7406,3.7738,3.813,3.8695,3.9487,3.9918,4.0348,4.0796,4.1226,4.1397,4.1397,4.1678,4.164,4.1243,0.0,0.0,4.2339,4.2908,4.3586,4.4299,4.4997,4.5521,4.5866,4.6212,4.6507,4.67,4.6626,4.646,4.615,4.5881,4.54,4.4728,4.4703,4.4372,0.0,0.0,0.0,0.0,0.0,0.0,0.0,0.0,0.0,0.0,0.0,3.9198,0.0,0.0,0.0,0.0,4.0075,4.0195,4.0492,4.079,0.0,0.0,0.0,0.0,0.0,0.0,0.0,4.1933,4.1991,4.2152,4.2514,4.234,4.1986,4.1419,4.1338,4.1338,4.1338,0.0,4.146,4.146,4.1553,4.1659,4.1749,4.1749,4.1651,4.1429,4.1183,4.1003,4.1003,4.1003,4.1003,4.1003,4.1003,4.1003,4.1003,3.9825,3.8884,3.8884,3.8884,3.9199,4.0072,4.0221,4.0486,3.6137,3.6324,3.4876,3.4408,3.4583,3.4905,3.5151,3.5279,3.5577,3.5733,3.5749,3.5915,3.6069,3.6254,3.6497,0.0,3.6744,3.7567,3.8373,3.9166,3.9857,4.0611,4.1352,4.143,4.1491,4.148,4.1546,4.1591,4.164,4.2258,4.2589,4.2601,4.2147,4.2333,4.3071,4.3278,4.4159,4.5686,4.588,4.638,4.7199,4.7672,4.7974,4.8056,4.7561,4.735,4.7442,4.6889,4.6257,4.5599,4.5558,4.5216,4.4509,0.0,0.0,0.0,0.0,0.0,0.0,0.0,0.0,0.0,0.0,0.0,0.0,0.0,0.0,0.0,4.244,0.0,4.2573,4.2458,0.0,0.0,0.0,4.2373,4.287,4.2696,4.2722,4.3211,0.0,0.0,4.38,4.4202,4.404,4.2879,4.2733,4.2733,4.2733,4.2701,4.2733,4.2701,4.2653,4.2715,4.2791,4.2758,4.2527,4.2062,4.1517,4.1177,4.119,4.1174,4.1125,4.1161,4.1125,4.1112,4.1096,4.1047,4.1079,4.0998,4.0942,4.0967,4.1033,4.1049,4.1111,3.6709,3.6803,3.6802,3.6493,3.603,3.6213,3.6439,3.6692,3.6796,3.69,3.7062,3.7208,3.7639,3.828,3.8483,3.8859,3.9379,3.9771,4.0107,4.0315,4.0726,4.1049,4.1259,4.1947,4.2224,4.2274,4.2787,4.3085,4.3085,4.3251,4.3333,4.335,4.3892,4.4023,4.3879,4.4687,4.5302,4.5703,4.6372,4.6931,4.7437,4.7745,4.7919,4.7946,4.8023,4.805,4.8102,4.8091,4.7975,4.7739,4.7226,4.6558,4.5785,4.5204,0.0,0.0,0.0,0.0,0.0,0.0,0.0,0.0,0.0,4.2449,4.2497,0.0,4.2664,0.0,4.2621,4.2726,4.3152,4.3084,0.0,0.0,4.4282,4.4358,4.4781,4.4693,4.4587,4.4543,4.4594,4.4528,4.4315,4.4427,4.436,4.3857,4.3825,4.3825,4.3825,4.3809,4.3825,4.3745,4.336,4.3072,4.3089,4.2623,4.2333,4.2297,4.2167,4.2101,4.2194,4.2225,4.2163,4.207,4.207,4.2007,4.1834,4.1851,4.1819,4.1802,4.1381,4.1167,4.1642,4.1756,4.1904,3.7216,3.7329,3.747,3.737,3.7079,3.7369,3.7654,3.7919,3.8074,3.8197,3.8305,3.8548,3.8922,3.9347,3.9498,3.9826,4.0289,4.0469,4.0764,4.1206,4.137,4.1652,4.2052,4.264,4.2897,4.2897,4.337,4.3615,4.3631,4.3943,4.4108,4.4125,4.4973,4.5243,4.4966,4.5694,4.6258,4.6672,4.7631,4.8211,4.8403,4.8689,4.8858,4.8924,4.8715,4.8676,4.8837,4.8601,4.8461,4.8477,4.8117,4.7696,4.7249,4.6853,4.6389,0.0,0.0,0.0,0.0,0.0,0.0,0.0,0.0,0.0,0.0,0.0,4.4276,4.468,4.4586,4.4563,4.4772,4.4709,4.4901,4.5497,4.5443,4.5426,4.5496,4.5355,4.5227,4.5017,4.5096,4.5123,4.5023,4.5126,4.5147,4.5059,4.4973,4.4734,4.4297,4.4188,4.4188,4.4172,4.3868,4.3628,4.3628,4.3292,4.307,4.3152,4.3185,4.3217,4.3282,4.3315,4.3202,4.2848,4.2735,4.2623,4.2189,4.2077,4.2157,4.2462,4.2269,4.2035,4.2033,4.2309,4.2698,3.774,3.7883,3.7689,3.7728,3.7997,3.847,3.8677,3.8767,3.909,3.9282,3.9314,3.9613,3.9785,3.9895,4.005,4.0268,4.0501,4.0532,4.1037,4.1878,4.1924,4.2341,4.3082,4.338,4.352,4.355,4.3753,4.3863,4.3913,4.4522,4.4821,4.4884,4.5721,4.6131,4.6162,4.6552,4.7181,4.8024,4.8984,4.9471,4.9518,4.9801,5.0051,5.0143,4.952,4.9285,4.956,4.8923,4.8636,4.875,4.8679,4.8653,4.8635,4.8548,4.8469,0.0,4.8339,0.0,0.0,0.0,0.0,0.0,0.0,0.0,0.0,4.5547,4.586,4.6901,4.6973,4.684,4.6527,4.6468,4.6398,4.6177,4.6084,4.5993,4.5777,4.5618,4.5456,4.5245,4.5563,4.5713,4.5695,4.5927,4.608,4.5981,4.5805,4.5393,4.4623,4.4453,4.4469,4.4391,4.4311,4.4197,4.4054,4.4088,4.4056,4.4106,4.4058,4.4188,4.4141,4.4157,4.3964,4.3468,4.3291,4.3083,4.2428,4.2316,4.2524,4.3097,4.3178,4.3036,4.2654,4.2894,4.3292,3.8436,3.8642,3.8741,3.8985,3.932,3.9425,3.9116,3.8589,3.88,3.9058,3.9298,3.9377,3.9787,4.0436,4.0595,4.1008,4.1597,4.1869,4.2091,4.2298,4.258,4.2769,4.2994,4.3704,4.4122,4.4325,4.4886,4.5227,4.5384,4.5516,4.5582,4.5599,4.6359,4.6819,4.6995,0.0,0.0,0.0,4.9118,4.932,4.9518,4.9666,4.9842,5.0022,5.0011,0.0,5.0048,5.0022,5.0073,5.0157,4.9615,0.0,0.0,0.0,0.0,0.0,0.0,0.0,0.0,0.0,0.0,0.0,4.71,4.6811,4.7058,4.6823,4.6771,4.6969,4.6903,4.6756,4.6544,4.6394,4.6494,4.6828,4.6643,4.6666,4.7029,4.6927,4.6759,4.6556,4.6447,4.632,4.616,4.6124,4.604,4.5896,4.5807,4.5676,4.5284,4.5317,4.5453,4.5473,4.4982,4.4427,4.3857,4.3857,4.3987,4.3997,4.4031,4.4131,4.42,4.4251,4.4152,4.3858,4.384,4.3759,4.345,4.3382,4.34,4.3604,4.3619,4.3656,4.3753,4.39,4.3996,3.8366,0.0,3.887,3.9126,0.0,3.961,3.9481,3.912,3.9474,3.9825,4.0203,4.0237,4.0539,4.0952,4.1132,4.1468,4.1898,4.2077,4.2398,4.2799,4.3057,4.3379,4.3702,4.43,4.4703,4.4925,4.5317,4.5608,4.5814,4.6162,4.6344,4.6361,4.7073,4.7486,4.76,4.8221,4.8673,4.9001,4.9138,4.926,4.935,4.959,4.9737,4.986,5.0005,0.0,0.0,0.0,0.0,0.0,0.0,0.0,0.0,0.0,0.0,4.9358,4.9221,4.9101,4.9045,4.8962,4.8866,4.8707,4.8819,4.8616,4.787,4.7962,4.8048,4.7988,4.7855,4.7703,4.7516,4.7331,4.7325,4.75,4.7324,4.7259,4.7438,4.7319,4.7064,4.6772,4.6563,4.6369,4.6223,4.606,4.588,4.5698,4.5662,4.5589,4.5405,4.5515,4.5641,4.5515,4.5248,4.4856,4.4526,4.4448,4.4448,4.4586,4.4693,4.4749,4.4823,4.4945,4.4849,4.4462,4.4367,4.4237,4.3804,4.3706,4.3801,4.4117,4.4176,4.4389,4.4837,4.4694,4.4424,3.8156,3.8516,3.8671,3.887,3.9141,3.9451,3.9706,3.9898,0.0,0.0,0.0,4.1171,4.1241,4.1323,4.1615,4.1876,4.2039,4.2199,4.2648,4.3339,4.3554,4.3942,4.449,4.4934,4.5212,4.5456,4.5731,4.5957,4.6164,4.6792,4.7106,4.7139,4.7703,4.8001,4.8066,4.8324,4.8658,4.8956,4.9124,4.9168,4.9199,4.9471,4.9649,4.9708,4.986,5.0022,5.016,5.0299,5.0408,5.055,5.0689,5.0787,5.0787,5.0787,5.0758,5.0758,5.0627,5.0558,5.0576,5.0431,5.0273,5.0013,5.037,5.0011,4.8621,4.9135,4.9497,4.9376,4.9251,4.9093,4.8836,4.8708,4.8513,4.8349,4.8166,4.7965,4.7813,4.7512,4.7223,4.6862,4.6519,4.6243,4.6112,4.588,4.5698,4.5552,4.5478,4.5368,4.522,4.5331,4.5405,4.5241,4.5179,4.5173,4.5188,4.5142,4.522,4.5132,4.529,4.5442,4.5478,4.5604,4.5425,4.4874,4.48,4.4595,4.4173,4.4125,4.4204,4.4761,4.4922,4.508,4.5586,4.5333,4.4922,3.8118,3.8516,3.8501,3.8775,3.909,3.9177,3.9723,4.0532,4.04,4.0539,4.0833,4.0867,4.1021,4.1337,4.2001,4.2401,4.2618,4.3357,4.3759,4.3888,4.4026,4.4242,4.4538,4.5201,4.5678,4.6027,4.6814,4.7292,4.7457,4.7704,4.7852,4.7852,4.7951,4.8049,4.8179,4.8388,4.8627,4.8832,4.894,4.9094,4.9199,4.926,4.9411,4.9679,4.9725,4.983,5.004,5.0643,5.1013,5.1188,5.1829,5.2252,5.237,5.2218,5.2193,5.2193,5.2027,5.192,5.189,5.1804,5.1573,5.1293,5.1301,5.0963,5.0198,5.0585,5.0832,5.0736,5.0619,5.054,5.0209,5.0043,4.9875,4.9601,4.9427,4.9253,4.8977,4.8329,4.7796,4.7548,4.6808,4.6307,4.6223,4.5882,4.5678,4.5525,4.5534,4.5245,4.5179,4.5129,4.522,4.522,4.522,4.522,4.5182,4.5182,4.5182,4.522,4.522,4.5241,4.5257,4.5294,4.5268,4.5138,4.5081,4.5102,4.5102,4.5233,4.5243,4.5462,4.5498,4.5613,4.5755,4.5629,4.5582,3.7929,3.8194,3.8418,3.8832,3.9357,3.9951,4.0577,4.1203,4.1116,4.1254,4.1632,4.1809,4.1969,4.2159,4.2575,4.2921,4.3094,4.3494,4.3946,4.4383,4.4572,4.4936,4.5493,4.5902,4.6354,4.6711,4.7223,4.7571,4.7721,4.7886,4.8001,4.8001,4.8001,4.8049,4.8195,4.8388,4.8578,4.8801,4.8909,4.9032,4.9094,4.9168,4.926,4.9441,4.9924,5.0283,5.0496,5.1219,5.1641,5.1773,5.2136,5.2386,5.2399,5.2386,5.2326,5.2326,5.2248,5.2157,5.2114,5.185,5.1663,5.1522,5.1783,5.182,5.1481,5.1219,5.1072,5.0974,5.0793,5.0593,5.0409,5.0324,5.0171,4.993,4.9721,4.9529,4.9265,4.8787,4.8309,4.8095,4.7636,4.723,4.7093,4.6764,4.6523,4.641,4.6181,4.5936,4.5843,4.5897,4.5657,4.5038,4.4889,4.4889,4.492,4.4867,4.4852,4.4852,4.4964,4.5002,4.5055,4.5092,4.5182,4.522,4.5204,4.522,4.5346,4.5331,4.5405,4.5442,4.5589,4.5609,4.5641,4.5698,4.5807,3.7773,3.8145,3.8434,3.9025,3.9768,4.0719,4.1375,4.1761,4.1889,4.219,4.258,4.2658,4.2721,4.2829,4.3127,4.3383,4.3576,4.3733,4.4201,4.4851,4.5025,4.5504,4.6195,4.6423,4.6703,4.7064,4.7319,4.7487,4.7638,4.7853,4.7968,4.8001,4.8001,4.8066,4.8147,4.834,4.8532,4.8658,4.8846,4.8987,4.9001,4.9124,4.9253,4.9518,5.0155,5.0731,5.1089,5.1792,5.2262,5.2402,5.2571,5.2657,5.2722,5.2705,5.2705,5.2657,5.2643,5.2564,5.2395,5.2143,5.1983,5.1968,5.2315,5.257,5.2453,5.1865,5.1413,5.1379,5.1178,5.0924,5.0889,5.0768,5.0545,5.0354,5.0126,5.003,4.9749,4.9277,4.8891,4.8722,4.8371,4.8003,4.7824,4.7579,4.727,4.6983,4.6786,4.6603,4.6603,4.6603,4.6111,4.5418,4.5033,4.5149,4.5033,4.5118,4.5072,4.488,4.4986,4.5,4.4945,4.498,4.5055,4.5017,4.5055,4.5055,4.5108,4.5145,4.5182,4.522,4.5315,4.5442,4.5515,4.5625,4.5735,3.7915,3.875,3.8871,3.9426,4.0344,4.0888,4.1451,4.2028,4.2398,4.2952,4.3415,4.2702,4.2565,4.2886,4.3526,4.3899,4.4096,4.472,4.5128,4.5374,4.5442,4.5708,4.6096,4.6259,4.6439,4.6703,4.703,4.7335,4.7537,4.7671,4.782,4.7968,4.8001,4.8001,4.8017,4.8179,4.8227,4.826,4.8644,4.8863,4.9018,4.9001,4.9433,5.0266,5.0351,5.0802,5.1606,5.2323,5.2812,5.3038,5.3621,5.4063,5.4239,5.427,5.4175,5.3982,5.3999,5.3888,5.3578,5.3513,5.3396,5.3331,5.3281,5.3264,5.3112,5.284,5.2686,5.2584,5.2479,5.2202,5.2229,5.1966,5.1704,5.1474,5.1304,5.1213,5.0864,5.0241,4.9614,4.9411,4.87,4.7975,4.7774,4.7543,4.7208,4.6978,4.6929,4.6834,4.6819,4.6819,4.6788,4.6496,4.6403,4.6372,4.6326,4.6403,4.6034,4.5603,4.5534,4.5388,4.5048,4.4833,4.4678,4.4977,4.4793,4.4869,4.4874,4.4911,4.5002,4.5108,4.5167,4.5278,4.5442,4.5515,4.5589,3.8224,3.907,3.9323,4.0025,4.1002,4.1626,4.2149,4.258,4.2768,4.3184,4.3615,4.3296,4.3343,4.3681,4.4026,4.4284,4.4583,4.4878,4.5129,4.5331,4.5442,4.5677,4.5916,4.6096,4.633,4.6598,4.6876,4.7183,4.7504,4.7754,4.7935,4.8001,4.8001,4.8001,4.8001,4.8147,4.8195,4.8212,4.8887,4.9362,4.9538,4.9598,4.9828,5.0246,5.1043,5.1749,5.2234,5.2948,5.3437,5.3633,5.3924,5.4093,5.4224,5.4224,5.4143,5.4078,5.3963,5.3832,5.3717,5.3634,5.3551,5.3501,5.3399,5.3298,5.3195,5.2903,5.2729,5.2694,5.257,5.2445,5.2373,5.2211,5.203,5.1831,5.161,5.1387,5.1032,5.0584,5.0217,4.9978,4.9485,4.9062,4.8765,4.8448,4.8128,4.7845,4.7773,4.7711,4.7758,4.7788,4.7788,4.7788,4.7788,4.7404,4.6865,4.6603,4.6465,4.628,4.6172,4.6003,4.5834,4.5772,4.568,4.5249,4.518,4.4995,4.4732,4.4739,4.4776,4.4867,4.498,4.5092,4.5294,4.5405,4.5552,3.8579,3.9373,4.006,4.0755,4.1528,4.2146,4.2581,4.2835,4.2955,4.3195,4.3518,4.3557,4.3778,4.4127,4.4243,4.4473,4.4723,4.4799,4.4911,4.5129,4.5278,4.5478,4.5698,4.5932,4.6152,4.6474,4.6719,4.7127,4.7648,4.8067,4.8332,4.8498,4.858,4.8614,4.8614,4.8729,4.8762,4.8795,4.9475,4.9906,5.007,5.0384,5.0597,5.0794,5.1725,5.2484,5.282,5.3379,5.3717,5.3915,5.3915,5.3948,5.398,5.398,5.398,5.3915,5.375,5.3668,5.3617,5.3517,5.3416,5.3433,5.323,5.3093,5.3007,5.2764,5.2605,5.2535,5.248,5.2409,5.239,5.2175,5.1941,5.1831,5.1573,5.1275,5.095,5.0705,5.0518,5.0301,4.9978,4.9797,4.9501,4.9107,4.8708,4.8569,4.8543,4.8604,4.8604,4.8558,4.8558,4.8604,4.8589,4.8219,4.7327,4.725,4.7127,4.6896,4.6865,4.6803,4.668,4.6588,4.6542,4.588,4.5757,4.5519,4.5103,4.4918,4.4625,4.4625,4.4739,4.4889,4.5077,4.5241,4.5352,3.8977,3.9914,4.1066,4.1558,4.1728,4.2199,4.2392,4.2474,4.285,4.2981,4.3076,4.325,4.3463,4.3769,4.4089,4.4281,4.4358,4.4549,4.4723,4.4889,4.4964,4.5151,4.5515,4.5698,4.5916,4.6168,4.6571,4.7211,4.8162,4.8588,4.9121,4.9747,4.9869,5.0055,4.9954,4.9955,5.0088,4.9989,5.0208,5.0359,5.0493,5.1279,5.1833,5.2099,5.2283,5.2689,5.3315,5.3467,5.3584,5.37,5.37,5.3799,5.3965,5.3997,5.3882,5.37,5.3584,5.3501,5.3501,5.3332,5.3213,5.3195,5.3007,5.2834,5.2694,5.264,5.2535,5.2409,5.2409,5.2409,5.2338,5.2033,5.1815,5.1778,5.1445,5.1146,5.0912,5.0705,5.0496,5.0301,5.001,4.9717,4.9356,4.8908,4.8661,4.8604,4.8604,4.8604,4.8604,4.8604,4.8604,4.8604,4.8604,4.8558,4.8481,4.8204,4.8004,4.7788,4.7511,4.7404,4.6927,4.6588,4.6603,4.648,4.6172,4.5865,4.5526,4.5141,4.4748,4.461,4.461,4.4723,4.4874,4.4911,4.5077,3.9211,4.0407,4.1,4.1437,4.1688,4.1868,4.209,4.2392,4.2541,4.2688,4.285,4.2996,4.3155,4.3305,4.3699,4.3988,4.4104,4.432,4.4458,4.4534,4.4799,4.5002,4.5114,4.5463,4.5698,4.6016,4.6726,4.7732,4.8809,4.9188,4.9423,4.9672,4.9928,5.0015,5.0015,5.0152,5.022,5.0253,5.0687,5.1004,5.1157,5.1927,5.2432,5.2673,5.2809,5.3095,5.3501,5.3518,5.3534,5.3584,5.3584,5.3618,5.3685,5.3685,5.3668,5.3568,5.3416,5.3298,5.3314,5.311,5.3007,5.3007,5.2834,5.2761,5.2589,5.2535,5.2445,5.2442,5.2426,5.2338,5.2194,5.1941,5.1778,5.1741,5.1445,5.1086,5.0781,5.0628,5.0457,5.0089,4.9773,4.9437,4.9275,4.8908,4.862,4.8604,4.8604,4.8604,4.8604,4.8604,4.8604,4.8604,4.8604,4.8604,4.8604,4.8589,4.8481,4.8373,4.8219,4.8173,4.785,4.7727,4.7742,4.7281,4.685,4.6265,4.5926,4.5172,4.4772,4.461,4.461,4.461,4.467,4.4761,4.4964,3.942,4.0559,4.0816,4.1142,4.1479,4.1646,4.1868,4.2172,4.2351,4.2474,4.2622,4.2809,4.2955,4.3036,4.3344,4.3581,4.3793,4.405,4.4243,4.432,4.4587,4.4761,4.4958,4.5385,4.5771,4.6176,4.7114,4.8256,4.9341,4.9639,4.9913,5.0229,5.0427,5.0514,5.0549,5.0655,5.0725,5.0841,5.1307,5.1593,5.1748,5.2233,5.2605,5.2799,5.2938,5.3127,5.328,5.3382,5.3416,5.3433,5.3467,5.3467,5.3433,5.3348,5.3331,5.328,5.3195,5.3228,5.3412,5.3255,5.3267,5.3484,5.334,5.3233,5.3197,5.3141,5.3069,5.3069,5.3069,5.2997,5.2778,5.261,5.2286,5.1815,5.1333,5.0956,5.0666,5.055,5.0301,4.9955,4.9557,4.9356,4.9235,4.8867,4.8646,4.8604,4.8604,4.8604,4.8604,4.8604,4.8604,4.8604,4.8604,4.8604,4.8604,4.8604,4.8604,4.8527,4.8481,4.8573,4.8604,4.8604,4.8466,4.8035,4.7496,4.685,4.6126,4.5341,4.491,4.4702,4.461,4.461,4.4648,4.4701,4.4942,3.9689,4.0342,4.0616,4.0802,4.1085,4.1437,4.166,4.1785,4.2187,4.238,4.2509,4.264,4.2917,4.3074,4.3273,4.3275,4.3564,4.4004,4.4232,4.4365,4.4396,4.4657,4.5069,4.5687,4.6265,4.6721,4.7642,4.8701,4.9807,5.0004,5.0496,5.1303,5.1472,5.1499,5.1712,5.1602,5.1683,5.1704,5.1882,5.202,5.2086,5.2266,5.2428,5.2553,5.2605,5.2694,5.292,5.3093,5.3195,5.323,5.3382,5.3382,5.3195,5.3125,5.2953,5.3055,5.2987,5.3338,5.3872,5.383,5.4006,5.4386,5.4505,5.4278,5.4266,5.4278,5.4295,5.4262,5.4274,5.4283,5.4009,5.3787,5.3106,5.1808,5.1291,5.0987,5.0644,5.0418,5.0223,4.9931,4.9573,4.9356,4.9235,4.8949,4.8661,4.8604,4.8604,4.8604,4.8604,4.8604,4.8604,4.8604,4.8604,4.8604,4.8604,4.8604,4.8604,4.8589,4.8573,4.8604,4.8604,4.8604,4.8604,4.825,4.7788,4.7157,4.6557,4.5803,4.5234,4.4972,4.4803,4.4641,4.461,4.4685,4.4867,3.9438,3.9659,4.0039,4.043,4.0773,4.0944,4.1156,4.1507,4.1785,4.217,4.2616,4.2967,4.3395,4.3858,4.4238,4.4388,4.4486,4.4758,4.476,4.4597,4.4852,4.5292,4.5832,4.6368,4.7154,4.804,4.8484,4.9228,5.0147,5.0374,5.0703,5.1054,5.1312,5.1445,5.1573,5.1721,5.1778,5.1831,5.1851,5.1888,5.1904,5.1941,5.2086,5.223,5.2283,5.2338,5.2535,5.285,5.2972,5.2972,5.3058,5.3058,5.3056,5.344,5.3621,5.3688,5.4016,5.4261,5.4442,5.4363,5.4336,5.4568,5.4543,5.4527,5.4527,5.4539,5.4539,5.4523,5.4378,5.4227,5.4022,5.3793,5.3302,5.2275,5.1835,5.1279,5.0678,5.0262,5.001,4.9931,4.9677,4.9477,4.9275,4.9006,4.8816,4.862,4.8604,4.8604,4.8604,4.8604,4.8604,4.8604,4.8604,4.8604,4.8604,4.8604,4.8604,4.8604,4.8604,4.8604,4.8604,4.8604,4.8604,4.8466,4.8004,4.7511,4.6911,4.628,4.568,4.5203,4.4941,4.481,4.4656,4.4685,4.4852,3.9083,3.9336,3.9601,4.0009,4.0443,4.0602,4.0873,4.1213,4.1709,4.2208,4.2695,4.3183,4.3743,4.425,4.4606,4.4761,4.4887,4.5096,4.5173,4.5128,4.5263,4.5702,4.6234,4.688,4.7767,4.878,4.8993,4.9489,5.0308,5.034,5.0512,5.0781,5.0934,5.1048,5.1162,5.1296,5.1387,5.1462,5.1536,5.1647,5.1668,5.1741,5.1868,5.1977,5.1993,5.2181,5.2524,5.2774,5.2819,5.2846,5.3033,5.33,5.3601,5.3997,5.4175,5.4259,5.4486,5.4778,5.5007,5.5016,5.509,5.5239,5.5322,5.5338,5.5284,5.5246,5.5208,5.517,5.5067,5.4826,5.4665,5.4509,5.4049,5.3133,5.2513,5.1788,5.0905,5.0232,4.9931,4.9876,4.9733,4.9517,4.9316,4.9144,4.8914,4.8661,4.8604,4.8604,4.8604,4.8604,4.8604,4.8604,4.8604,4.8604,4.8604,4.8604,4.8604,4.8604,4.8604,4.8604,4.8604,4.8604,4.8604,4.8532,4.8209,4.7912,4.7357,4.6619,4.5972,4.5557,4.5187,4.481,4.461,4.4723,4.4889,3.8621,3.9203,3.9261,3.9557,4.0023,4.047,4.0742,4.0927,4.1838,4.2496,4.2898,4.3415,4.395,4.4311,4.4572,4.4744,4.4767,4.5111,4.555,4.5826,4.5893,4.5988,4.6396,4.7232,4.8096,4.8851,4.9132,4.9486,4.9876,4.9876,5.0089,5.0496,5.055,5.0589,5.0705,5.0612,5.0781,5.0934,5.107,5.1258,5.1441,5.161,5.177,5.1839,5.1905,5.222,5.2815,5.2988,5.2877,5.2796,5.3382,5.3931,5.4512,5.458,5.4502,5.4572,5.4589,5.5015,5.5445,5.5572,5.5787,5.6305,5.6371,5.668,5.6365,5.6167,5.6105,5.6099,5.5991,5.5859,5.57,5.5587,5.5037,5.4172,5.3086,5.2156,5.1222,5.0453,5.0153,5.0018,4.978,4.9557,4.9356,4.9184,4.8939,4.8718,4.8604,4.8604,4.8604,4.8604,4.8604,4.8604,4.8604,4.8604,4.8604,4.8604,4.8604,4.8604,4.8604,4.8604,4.8604,4.8604,4.8604,4.8532,4.847,4.8189,4.7804,4.7111,4.6573,4.6219,4.5664,4.4964,4.4725,4.4878,4.4958,3.8181,3.853,3.8877,3.9189,3.9595,4.0316,4.0819,4.1225,4.2081,4.284,4.346,4.3867,4.4464,4.5136,4.5329,4.5595,4.5713,4.6005,4.6341,4.6619,4.6617,4.6926,4.7391,4.7862,4.8311,4.8702,4.8939,4.9225,4.9437,4.9477,4.9693,5.005,5.0105,5.0246,5.055,5.0566,5.0628,5.0666,5.0759,5.0813,5.0922,5.1113,5.1459,5.2048,5.2248,5.272,5.3525,5.3607,5.3596,5.3567,5.3703,5.39,5.4251,5.4678,5.4903,5.4969,5.538,5.5686,5.5906,5.5955,5.6087,5.6234,5.6307,5.6267,5.6284,5.6205,5.6165,5.6126,5.6006,5.5846,5.5782,5.5604,5.5174,5.4553,5.3378,5.2336,5.1783,5.1148,5.0706,5.0658,5.0223,4.9827,4.9595,4.9387,4.9144,4.8883,4.8744,4.8604,4.8604,4.8604,4.8604,4.8604,4.8604,4.8604,4.8604,4.8604,4.8604,4.8604,4.8604,4.8604,4.8604,4.8604,4.8604,4.8589,4.8589,4.8343,4.8173,4.7773,4.7342,4.6788,4.6111,4.5442,4.5233,4.5233,4.5166,3.7861,3.8135,3.8472,3.8979,3.9564,4.02,4.0758,4.1436,4.2353,4.3073,4.3712,4.4223,4.4781,4.5338,4.558,4.5776,4.5956,4.6269,4.6476,4.6594,4.6755,4.7191,4.7694,4.7964,4.8133,4.837,4.8593,4.88,4.899,4.9128,4.9331,4.9597,4.9653,4.9812,5.0003,5.0478,5.0707,5.0826,5.108,5.1335,5.1453,5.1531,5.1809,5.232,5.2517,5.2997,5.3818,5.4231,5.4398,5.4348,5.4344,5.4513,5.4857,5.5201,5.5447,5.548,5.5873,5.607,5.6086,5.6086,5.6086,5.6086,5.6086,5.6086,5.6086,5.6046,5.5983,5.5966,5.5766,5.5629,5.5548,5.5344,5.5072,5.4685,5.3754,5.2901,5.2523,5.1843,5.148,5.1243,5.0816,5.0294,5.0077,4.9736,4.9337,4.9062,4.8857,4.8718,4.862,4.862,4.8604,4.8604,4.8604,4.8604,4.8604,4.8604,4.8604,4.8604,4.8604,4.8604,4.8604,4.8604,4.8604,4.8604,4.8604,4.8558,4.8389,4.8142,4.765,4.7065,4.6449,4.6174,4.602,4.575,4.5615,3.7631,3.7893,3.8188,3.8825,3.969,4.0199,4.0849,4.1589,4.2611,4.3259,4.363,4.4372,4.4698,4.5046,4.5276,4.5458,4.5504,4.5896,4.6121,4.6343,4.6668,4.7106,4.7467,4.7624,4.7794,4.7992,4.8175,4.8385,4.8624,4.8877,4.9145,4.9459,4.9499,4.9556,4.9969,5.0483,5.0825,5.1098,5.1568,5.1937,5.2115,5.2236,5.2412,5.2733,5.2997,5.3391,5.4107,5.463,5.4947,5.4963,5.5041,5.5264,5.5859,5.5957,5.5957,5.5868,5.5917,5.5966,5.6006,5.5966,5.6006,5.5966,5.5966,5.6046,5.5966,5.5806,5.5742,5.5782,5.5548,5.545,5.5385,5.5088,5.4854,5.4713,5.4338,5.3814,5.325,5.2554,5.2128,5.208,5.1512,5.1098,5.074,5.0272,4.9759,4.9983,4.9605,4.9197,4.899,4.8769,4.8681,4.8604,4.8604,4.8604,4.8604,4.8604,4.8604,4.8604,4.8604,4.8604,4.8604,4.8604,4.8604,4.8604,4.8604,4.8604,4.8558,4.8235,4.7865,4.7604,4.7157,4.7015,4.6872,4.6486,4.6273,3.7353,3.767,3.853,3.9038,3.9488,4.071,4.1511,4.1937,4.2855,4.3346,4.3637,4.4012,4.4303,4.4583,4.483,4.5046,4.5216,4.5549,4.5806,4.621,4.6491,4.68,4.7135,4.7441,4.7626,4.7797,4.798,4.8122,4.8313,4.8967,4.9351,4.9577,5.0131,5.0687,5.0824,5.0944,5.1184,5.1257,5.1529,5.1821,5.2077,5.2201,5.2571,5.3165,5.3841,5.4307,5.4566,5.4758,5.4842,5.4936,5.5101,5.5337,5.5539,5.5588,5.5588,5.5612,5.5572,5.5572,5.5548,5.5572,5.5531,5.5572,5.5612,5.5531,5.5531,5.5531,5.5507,5.5507,5.5426,5.5409,5.5385,5.5047,5.4854,5.4729,5.4401,5.404,5.3818,5.3281,5.2902,5.2728,5.2254,5.1796,5.1714,5.1391,5.1063,5.097,5.0481,4.9874,4.9486,4.9088,4.8907,4.8835,4.862,4.862,4.8604,4.8604,4.8604,4.8604,4.8604,4.8604,4.8604,4.8604,4.8604,4.8604,4.8604,4.8604,4.8604,4.8573,4.8266,4.8065,4.7881,4.7781,4.761,4.7239,4.6903,3.7484,3.783,3.8765,3.9441,3.9994,4.0851,4.1627,4.2247,4.2821,4.3259,4.3485,4.3723,4.3974,4.4223,4.4504,4.4737,4.5,4.5321,4.5685,4.6133,4.6592,4.6962,4.7318,4.7792,4.8146,4.8007,4.8192,4.8399,4.8849,4.9237,4.9639,4.9754,5.0399,5.0602,5.0959,5.1347,5.1616,5.1767,5.2102,5.2387,5.2531,5.2616,5.288,5.3502,5.41,5.4375,5.4555,5.4597,5.4655,5.4797,5.4989,5.5138,5.5221,5.5262,5.5303,5.5369,5.5409,5.5409,5.5409,5.5409,5.5409,5.5409,5.5409,5.5409,5.5409,5.5409,5.5409,5.5409,5.5409,5.5409,5.5385,5.5047,5.4854,5.4729,5.4359,5.4103,5.404,5.3787,5.3581,5.3439,5.2965,5.2649,5.2465,5.2214,5.1847,5.1487,5.1184,5.0605,5.024,4.985,4.9385,4.9158,4.8804,4.8635,4.862,4.8604,4.8604,4.8604,4.8604,4.8604,4.8604,4.8604,4.8604,4.8604,4.8604,4.8604,4.8604,4.8604,4.8604,4.8435,4.8332,4.8388,4.8357,4.8129,4.773,3.7744,3.8111,3.8952,3.9858,4.0618,4.0896,4.1506,4.2284,4.2693,4.2922,4.3211,4.3423,4.3675,4.3926,4.4115,4.4425,4.4939,4.5338,4.5746,4.6401,4.6901,4.7322,4.7712,4.819,4.8609,4.8492,4.8638,4.8982,4.9387,4.9837,5.0016,5.0075,5.0449,5.0824,5.0942,5.1467,5.201,5.2087,5.2619,5.3059,5.3178,5.3237,5.3415,5.362,5.3711,5.3974,5.4215,5.4301,5.4386,5.4671,5.4671,5.4781,5.4948,5.5072,5.5155,5.5328,5.5328,5.5328,5.5369,5.5409,5.5409,5.5409,5.5409,5.5409,5.5409,5.5409,5.5409,5.5409,5.5409,5.5369,5.5328,5.5031,5.4797,5.4687,5.4359,5.4146,5.4103,5.4103,5.4024,5.3945,5.3581,5.3297,5.3107,5.2907,5.2461,5.2036,5.1706,5.1401,5.1049,5.06,5.0101,4.982,4.9574,4.9189,4.9097,4.865,4.8635,4.865,4.865,4.8604,4.8604,4.8604,4.8604,4.8604,4.8604,4.8604,4.8604,4.8604,4.8604,4.8661,4.8754,4.8804,4.8851,4.892,4.8474,3.7657,3.843,3.9421,3.9977,4.0268,4.1143,4.164,4.1881,4.2351,4.2547,4.2706,4.3115,4.3355,4.3465,4.3628,4.4272,4.5118,4.5562,4.6167,4.6868,4.7344,4.7622,4.7977,4.8397,4.8713,4.9123,4.9282,4.9344,4.9614,5.0035,5.0442,5.0623,5.1213,5.1546,5.1637,5.2062,5.2166,5.2181,5.2635,5.2906,5.3055,5.316,5.3233,5.3452,5.3496,5.3627,5.3817,5.3903,5.399,5.4189,5.4247,5.4343,5.4513,5.4739,5.4922,5.5129,5.5196,5.5221,5.5328,5.5409,5.5409,5.5409,5.5409,5.5409,5.5409,5.5409,5.5409,5.5409,5.5369,5.5344,5.5155,5.4922,5.4697,5.4513,5.4301,5.4103,5.4103,5.4103,5.4103,5.4071,5.3945,5.3866,5.3645,5.3518,5.3318,5.2954,5.2659,5.241,5.2102,5.1468,5.0832,5.0626,5.0482,5.0051,4.9682,4.905,4.8696,4.8743,4.8727,4.862,4.8604,4.8604,4.8604,4.8728,4.8702,4.8661,4.8661,4.8646,4.8744,4.8867,4.9021,4.9159,4.9247,4.9252,4.8749,3.824,3.8966,3.9863,4.0332,4.0584,4.1167,4.1597,4.1746,4.1944,4.2155,4.24,4.2693,4.2984,4.321,4.3691,4.4491,4.5372,4.585,4.6384,4.7019,4.7564,4.7928,4.8352,4.8789,4.9329,4.9757,4.9863,4.995,5.0102,5.0617,5.0891,5.1042,5.1528,5.1787,5.1834,5.1972,5.2094,5.2185,5.2367,5.2548,5.2683,5.2803,5.3011,5.3188,5.3261,5.3365,5.354,5.3746,5.3833,5.3947,5.4076,5.413,5.4258,5.4401,5.4603,5.4896,5.5047,5.5129,5.5262,5.5344,5.5409,5.5409,5.5426,5.5409,5.5409,5.5409,5.5474,5.5442,5.5409,5.5344,5.5097,5.497,5.4697,5.4454,5.4247,5.4193,5.4119,5.4119,5.4134,5.4134,5.404,5.4008,5.404,5.3992,5.4071,5.3891,5.3557,5.3318,5.3036,5.2426,5.1666,5.1358,5.1209,5.078,5.0287,4.9654,4.9088,4.9057,4.8841,4.8774,4.8744,4.8785,4.8867,4.899,4.8949,4.8841,4.8883,4.8924,4.9047,4.9113,4.925,4.9372,4.9517,4.9441,4.8993,3.8703,3.9335,4.0109,4.0542,4.0833,4.1097,4.1348,4.161,4.171,4.1845,4.2043,4.2485,4.2811,4.3191,4.401,4.4944,4.59,4.6189,4.6644,4.7255,4.7958,4.8431,4.8769,4.9398,4.995,4.9863,5.0147,5.0519,5.0579,5.0907,5.1075,5.1139,5.1371,5.1541,5.1602,5.1787,5.1895,5.1972,5.2094,5.2215,5.2352,5.2503,5.2743,5.2982,5.3026,5.3115,5.3321,5.354,5.3746,5.386,5.399,5.4103,5.4103,5.4103,5.4353,5.4746,5.496,5.5095,5.538,5.5561,5.5814,5.6057,5.5911,5.5879,5.5911,5.6073,5.5976,5.5847,5.5928,5.5868,5.5673,5.5377,5.5166,5.4894,5.4754,5.4514,5.4451,5.4387,5.4277,5.4245,5.415,5.4103,5.4103,5.4103,5.4103,5.4103,5.3785,5.3687,5.3448,5.3146,5.2566,5.2179,5.1847,5.1389,5.0894,5.0302,4.9868,4.9667,4.9306,4.8965,4.9006,4.9047,4.9128,4.9194,4.9235,4.9169,4.9184,4.9184,4.925,4.9316,4.9477,4.9597,4.9717,4.9584,4.9221,3.8594,3.9326,3.9904,4.0287,4.0555,4.0846,4.1097,4.1361,4.1623,4.1696,4.1901,4.2602,4.3091,4.3629,4.4475,4.5477,4.6192,4.6659,4.7141,4.7914,4.8461,4.8829,4.9147,4.9513,4.9781,4.9873,5.0082,5.0294,5.0578,5.0787,5.0855,5.0902,5.118,5.1291,5.1411,5.166,5.1634,5.171,5.1895,5.2094,5.2261,5.2352,5.2503,5.2653,5.2803,5.2893,5.31,5.3365,5.354,5.3773,5.3974,5.4103,5.4103,5.4103,5.4466,5.4797,5.5006,5.5195,5.5892,5.6256,5.6559,5.6915,5.711,5.7314,5.7093,5.7061,5.7077,5.732,5.7239,5.6957,5.6536,5.6552,5.6372,5.6042,5.568,5.5399,5.5162,5.4676,5.4609,5.434,5.4261,5.415,5.4103,5.4103,5.4103,5.4103,5.406,5.3947,5.3829,5.3495,5.333,5.2894,5.2548,5.2163,5.1794,5.1126,5.0625,5.0387,4.9797,4.9278,4.921,4.925,4.9291,4.9356,4.9412,4.9452,4.9412,4.9412,4.9396,4.9517,4.9637,4.9757,4.9836,4.9623,4.9315,3.8528,3.9322,3.9736,4.0044,4.0351,4.0744,4.0946,4.1162,4.1701,4.1997,4.2152,4.2856,4.3637,4.4302,4.4945,4.5659,4.6548,4.6938,4.7383,4.8035,4.8495,4.8795,4.9029,4.9355,4.9488,4.9814,5.0144,5.049,5.0603,5.0615,5.0662,5.0751,5.1208,5.1575,5.1593,5.1815,5.191,5.1914,5.1875,5.191,5.2109,5.2231,5.2352,5.2503,5.2608,5.2743,5.2922,5.3217,5.3437,5.3627,5.3872,5.4308,5.4577,5.4751,5.5047,5.5808,5.6,5.6199,5.6568,5.6941,5.7294,5.7508,5.7654,5.754,5.7605,5.767,5.767,5.7589,5.7605,5.7383,5.7071,5.692,5.6615,5.6442,5.6455,5.6157,5.5762,5.5244,5.4897,5.4597,5.4372,5.4308,5.4213,5.4119,5.4119,5.4103,5.4103,5.406,5.3947,5.3797,5.3679,5.3549,5.3262,5.2944,5.2604,5.2153,5.1436,5.1027,5.0341,4.9852,4.9546,4.9477,4.9517,4.9597,4.9677,4.9677,4.9597,4.9637,4.9677,4.9717,4.9757,4.9789,4.9718,4.9268,4.8762,3.8368,3.9102,3.9478,3.9788,4.0134,4.0529,4.0885,4.1218,4.1812,4.2188,4.2616,4.3282,4.4214,4.498,4.5323,4.5903,4.6728,4.7081,4.7391,4.775,4.8142,4.8545,4.8931,4.9208,4.9727,4.9895,5.0627,5.0923,5.0921,5.0886,5.0911,5.089,5.1634,5.1943,5.2118,5.2263,5.236,5.2444,5.2017,5.1996,5.2167,5.2185,5.2231,5.2352,5.2563,5.2713,5.2758,5.3173,5.3377,5.3762,5.4143,5.4735,5.5256,5.543,5.5834,5.6546,5.6906,5.724,5.7527,5.7818,5.7925,5.8049,5.8113,5.8308,5.8243,5.8113,5.813,5.8275,5.8173,5.7909,5.7552,5.7441,5.7287,5.7111,5.69,5.6663,5.6426,5.6046,5.5651,5.532,5.5004,5.4577,5.4435,5.4213,5.4134,5.4119,5.4103,5.4103,5.4033,5.3947,5.3903,5.386,5.3754,5.3498,5.3342,5.2938,5.23,5.1617,5.0929,5.0307,4.9848,4.9693,4.9717,4.9797,4.9876,4.9876,4.9757,4.9836,4.9916,4.9876,4.9805,4.9718,4.9521,4.8952,4.8333,3.7957,3.8514,3.9114,3.9658,4.0108,4.0121,4.076,4.1647,4.184,4.2372,4.3088,4.3809,4.4547,4.5156,4.5595,4.6005,4.6442,4.6769,4.7184,4.7647,4.8004,4.8393,4.8915,4.9581,5.0198,5.0399,5.1085,5.1461,5.157,5.1686,5.172,5.195,5.2229,5.2492,5.264,5.2738,5.2845,5.2856,5.2492,5.2362,5.2448,5.2395,5.2261,5.2398,5.2549,5.2713,5.2729,5.3266,5.3799,5.4282,5.4788,5.5355,5.5967,5.6094,5.6591,5.7382,5.772,5.8149,5.8622,5.8685,5.8852,5.9295,5.9425,5.9219,5.9139,5.9381,5.9506,5.9312,5.9003,5.8912,5.8697,5.8616,5.8133,5.7842,5.7593,5.7467,5.7261,5.7008,5.6597,5.6094,5.5616,5.5118,5.4679,5.4485,5.4177,5.4103,5.4103,5.4103,5.4103,5.4033,5.4076,5.4017,5.406,5.397,5.3922,5.3454,5.2775,5.2083,5.136,5.0614,4.997,4.9939,4.9836,4.9876,4.9916,4.9916,4.9916,4.9916,4.9916,4.9916,4.9789,4.941,4.8817,4.8127,4.7648,3.7911,3.8895,3.9345,3.978,4.0109,4.0435,4.1012,4.181,4.2485,4.3268,4.4055,4.4411,4.4795,4.5181,4.5542,4.5901,4.6231,4.6665,4.7108,4.7557,4.8056,4.8626,4.9237,4.9885,5.0503,5.0925,5.1539,5.204,5.2223,5.2455,5.2731,5.2909,5.2778,5.2813,5.2971,5.3227,5.3362,5.32,5.2995,5.2927,5.2963,5.3209,5.305,5.2748,5.3147,5.3284,5.339,5.3794,5.4393,5.4994,5.554,5.6115,5.6694,5.6789,5.7378,5.8188,5.8448,5.8863,5.9306,5.9337,5.937,5.9363,5.9552,5.9673,5.9524,5.9612,5.9673,5.964,5.9584,5.9347,5.9017,5.8866,5.8667,5.8427,5.8241,5.8191,5.8031,5.7729,5.7582,5.7118,5.63,5.5532,5.5155,5.4783,5.4448,5.4146,5.4103,5.4103,5.4103,5.4103,5.4103,5.4103,5.4103,5.4103,5.4055,5.3676,5.3265,5.2491,5.1717,5.0958,5.0232,4.9963,4.9876,4.9916,4.9916,4.9916,4.9916,4.9916,4.9868,4.9773,4.9331,4.8762,4.8058,4.7326,4.7008,3.8012,3.9116,3.9567,4.0018,4.038,4.0845,4.1385,4.2052,4.2744,4.3702,4.4559,4.4572,4.4748,4.5072,4.5328,4.5595,4.5981,4.6526,4.7095,4.7656,4.8315,4.8984,4.9563,5.02,5.0924,5.1365,5.2018,5.2535,5.2735,5.3259,5.3355,5.3306,5.3265,5.3216,5.3414,5.3793,5.3958,5.3828,5.3563,5.3601,5.3684,5.3751,5.3888,5.351,5.3837,5.3976,5.4114,5.4449,5.5048,5.5712,5.6252,5.6823,5.7263,5.7641,5.809,5.8616,5.9033,5.9213,5.954,5.9673,5.9568,5.9419,5.9584,5.9524,5.9419,5.9524,5.9673,5.9673,5.9628,5.9435,5.9094,5.8988,5.8898,5.8626,5.8626,5.856,5.8542,5.8335,5.8281,5.8099,5.7233,5.6433,5.5703,5.5256,5.456,5.4231,5.4103,5.4103,5.4103,5.4103,5.4103,5.4103,5.4103,5.4103,5.4087,5.3834,5.3487,5.246,5.1733,5.1101,5.046,5.0168,4.9931,4.9916,4.9916,4.9916,4.99,4.99,4.9742,4.9584,4.8841,4.7978,4.7648,4.6977,4.6741,3.8259,3.8888,3.9685,4.033,4.0935,4.1168,4.1751,4.2502,4.2712,4.3332,4.4287,4.4367,4.4518,4.4802,4.5192,4.5541,4.5982,4.6652,4.727,4.7953,4.874,4.9255,4.9892,5.06,5.13,5.1601,5.2195,5.2746,5.3073,5.3261,5.341,5.3515,5.3489,5.3602,5.3912,5.4473,5.4881,5.4979,5.4431,5.4385,5.4417,5.4362,5.4344,5.4323,5.4559,5.4699,5.4792,5.5177,5.578,5.6418,5.6911,5.7455,5.7974,5.8069,5.8439,5.8911,5.8988,5.9213,5.9628,5.9673,5.9568,5.9375,5.9568,5.9568,5.9419,5.9524,5.9673,5.9673,5.9568,5.9375,5.9241,5.9123,5.9033,5.8898,5.8853,5.8882,5.8863,5.8876,5.8745,5.8719,5.8241,5.7544,5.6616,5.5746,5.4815,5.4359,5.4189,5.4103,5.4146,5.4103,5.4103,5.4103,5.4103,5.4103,5.4103,5.4103,5.366,5.2618,5.1796,5.1299,5.0738,5.0287,5.0074,4.9971,4.9995,5.0129,5.0018,4.9868,4.9504,4.9034,4.7943,4.7136,4.6881,4.6757,4.6566,3.8971,3.9874,4.0352,4.0978,4.1626,4.1581,4.2073,4.2813,4.3098,4.3585,4.4177,4.4326,4.4476,4.4826,4.5439,4.5869,4.6288,4.7108,4.7839,4.8448,4.9253,4.9784,5.0357,5.0976,5.1652,5.1952,5.2462,5.2787,5.3107,5.3227,5.3372,5.3462,5.371,5.3904,5.4215,5.4605,5.4941,5.5114,5.5005,5.495,5.5204,5.5258,5.5183,5.5075,5.5282,5.5376,5.5376,5.5907,5.645,5.7059,5.7524,5.799,5.8243,5.8305,5.8489,5.8914,5.9049,5.9213,5.954,5.9673,5.9568,5.948,5.9524,5.9568,5.9375,5.9584,5.9673,5.9673,5.9612,5.948,5.9331,5.9241,5.9152,5.8988,5.8988,5.9078,5.9075,5.912,5.9113,5.9113,5.8834,5.7737,5.6718,5.6033,5.5207,5.4671,5.447,5.4343,5.4327,5.4173,5.4103,5.4103,5.4103,5.4103,5.4103,5.4231,5.3946,5.3059,5.234,5.181,5.1216,5.0541,5.0365,5.0301,5.034,5.0379,5.0158,4.9833,4.9098,4.8355,4.7537,4.6864,4.6602,4.6621,4.6603,3.9504,4.0403,4.0809,4.129,4.1886,4.1985,4.2382,4.2936,4.3197,4.3619,4.4198,4.439,4.4753,4.5249,4.58,4.6354,4.6724,4.756,4.8173,4.8804,4.9721,5.0202,5.0739,5.1276,5.1674,5.2019,5.2221,5.2505,5.2962,5.3068,5.3266,5.3515,5.3867,5.4097,5.437,5.4619,5.4955,5.5128,5.5205,5.5421,5.567,5.5876,5.5999,5.5952,5.5973,5.6069,5.6196,5.6543,5.7043,5.7559,5.7934,5.8259,5.8305,5.8351,5.8534,5.8869,5.9229,5.9407,5.9628,5.9673,5.9612,5.9508,5.9612,5.9568,5.9419,5.9568,5.9673,5.9673,5.9673,5.9612,5.9464,5.9419,5.9331,5.9213,5.9213,5.9347,5.9347,5.9419,5.9403,5.9402,5.9203,5.8033,5.6941,5.6253,5.5573,5.5166,5.4806,5.4665,5.4539,5.4386,5.4274,5.4274,5.4332,5.4375,5.4417,5.446,5.4036,5.3422,5.2822,5.2203,5.1527,5.0833,5.0742,5.0589,5.055,5.0454,5.0221,4.9773,4.9096,4.8379,4.7662,4.7068,4.65,4.6493,4.6633,3.986,4.0442,4.0968,4.132,4.1663,4.2231,4.2744,4.3024,4.308,4.3563,4.4325,4.462,4.5081,4.5896,4.6347,4.6668,4.711,4.7907,4.8431,4.8998,4.9881,5.0407,5.0823,5.1224,5.1596,5.1801,5.2019,5.2289,5.268,5.3015,5.3266,5.3568,5.4008,5.42,5.437,5.4656,5.4991,5.5194,5.5431,5.5631,5.588,5.621,5.6393,5.6465,5.6577,5.6625,5.6769,5.7086,5.7355,5.7684,5.798,5.8212,5.8305,5.8305,5.858,5.8943,5.9407,5.9584,5.9673,5.9673,5.9673,5.9612,5.9673,5.9524,5.948,5.9568,5.9673,5.9673,5.9673,5.9673,5.9673,5.9628,5.9628,5.9584,5.9584,5.9628,5.9628,5.9628,5.9628,5.9575,5.9462,5.8669,5.7537,5.676,5.5949,5.5414,5.5097,5.5014,5.4848,5.4697,5.4629,5.4629,5.4687,5.4729,5.4729,5.4671,5.4469,5.3907,5.3131,5.2461,5.1796,5.1243,5.0936,5.0781,5.0705,5.0592,5.0524,4.9941,4.9077,4.8389,4.7877,4.7249,4.6711,4.6615,4.6703,4.0358,4.098,4.1124,4.1344,4.1724,4.2675,4.3305,4.3564,4.3576,4.4049,4.4852,4.4967,4.545,4.6034,4.6549,4.7035,4.7639,4.8228,4.8836,4.9422,4.9845,5.0278,5.0711,5.1114,5.1376,5.1596,5.1815,5.2127,5.2411,5.2802,5.3227,5.3568,5.4008,5.42,5.4473,5.4809,5.5027,5.5229,5.5481,5.5731,5.6028,5.6274,5.6519,5.6713,5.681,5.681,5.6906,5.7258,5.7433,5.759,5.8027,5.8259,5.8305,5.8321,5.8504,5.9004,5.9407,5.9673,5.9673,5.9673,5.9673,5.9673,5.9673,5.9656,5.9612,5.9612,5.9673,5.9673,5.9673,5.9673,5.9673,5.9673,5.9673,5.9673,5.9673,5.9673,5.9673,5.9673,5.9673,5.9668,5.9555,5.8972,5.7871,5.7077,5.6323,5.5708,5.5328,5.5262,5.5138,5.4989,5.4922,5.4922,5.4922,5.4922,5.4854,5.4797,5.4675,5.4429,5.3623,5.2957,5.2427,5.191,5.1295,5.101,5.0918,5.0956,5.1,5.0262,4.9353,4.8808,4.8278,4.7583,4.7036,4.6888,4.6876,4.0595,4.1184,4.1184,4.1453,4.2053,4.3041,4.3792,4.4161,4.4172,4.4558,4.5236,4.5365,4.5827,4.6515,4.6998,4.7489,4.7977,4.8413,4.8899,4.9288,4.967,5.008,5.0557,5.0947,5.1211,5.1431,5.1651,5.1964,5.2289,5.2787,5.3227,5.3515,5.3942,5.4149,5.4421,5.4758,5.5042,5.528,5.5531,5.583,5.6077,5.6323,5.6616,5.6761,5.681,5.681,5.6858,5.7258,5.7433,5.759,5.8027,5.8259,5.8351,5.8459,5.8642,5.9094,5.9452,5.9628,5.9673,5.9673,5.9673,5.9673,5.9673,5.9673,5.9673,5.9673,5.9673,5.9673,5.9673,5.9673,5.9673,5.9673,5.9673,5.9673,5.9673,5.9673,5.9673,5.9673,5.97,5.9668,5.9344,5.8842,5.813,5.7369,5.6689,5.6138,5.5611,5.5369,5.5287,5.5221,5.5138,5.5155,5.5113,5.5113,5.5031,5.4989,5.4982,5.4799,5.4269,5.3624,5.3131,5.2388,5.1658,5.1324,5.1183,5.1183,5.1183,5.0515,4.9754,4.9175,4.855,4.7856,4.7322,4.7095,4.7115,4.0619,4.128,4.1293,4.184,4.2567,4.3397,4.4255,4.4985,4.4832,4.5058,4.5556,4.583,4.634,4.6877,4.7313,4.7646,4.8041,4.8392,4.8721,4.9068,4.9398,4.981,5.0263,5.0753,5.0989,5.1321,5.1651,5.191,5.2343,5.2734,5.3174,5.353,5.3815,5.406,5.4355,5.4671,5.4991,5.5229,5.5581,5.588,5.6062,5.6406,5.6761,5.681,5.681,5.681,5.6891,5.7163,5.748,5.7684,5.7934,5.8212,5.8413,5.8671,5.8898,5.9123,5.9435,5.9628,5.9673,5.9673,5.9673,5.9673,5.9673,5.9673,5.9673,5.9673,5.9673,5.9673,5.9673,5.9673,5.9673,5.9673,5.9673,5.9673,5.9673,5.9673,5.9673,5.9673,5.9656,5.9684,5.9587,5.9069,5.8475,5.7773,5.7174,5.6575,5.6089,5.5701,5.5369,5.5328,5.5328,5.5303,5.5262,5.5221,5.5262,5.5262,5.5287,5.5094,5.464,5.4026,5.3291,5.2602,5.1879,5.1545,5.1221,5.1237,5.1107,5.0691,5.0192,4.9388,4.876,4.8113,4.7657,4.7365,4.7319,4.082,4.1822,4.2277,4.2735,4.3289,4.3998,4.4618,4.5231,4.5735,4.5937,4.6087,4.622,4.6437,4.6921,4.7218,4.7573,4.788,4.8243,4.8476,4.8837,4.9125,4.9526,4.9924,5.0431,5.0753,5.1031,5.1362,5.1869,5.2451,5.2787,5.3054,5.3462,5.3762,5.3993,5.4304,5.4605,5.489,5.5179,5.5481,5.578,5.6028,5.6274,5.6567,5.6713,5.681,5.681,5.6891,5.7019,5.729,5.7543,5.7825,5.8073,5.8321,5.8762,5.8943,5.9078,5.9435,5.9628,5.9673,5.9673,5.9673,5.9673,5.9673,5.9673,5.9673,5.9673,5.9673,5.9673,5.9673,5.9673,5.9673,5.9673,5.9673,5.9673,5.9673,5.9673,5.9673,5.9673,5.9673,5.9673,5.9673,5.9317,5.8783,5.8232,5.766,5.711,5.6608,5.6122,5.5587,5.5369,5.5369,5.5369,5.5369,5.5369,5.5409,5.5409,5.5409,5.5264,5.4875,5.4195,5.345,5.2507,5.1674,5.1453,5.1221,5.1312,5.1424,5.1343,5.0766,4.9841,4.9213,4.8678,4.8062,4.7669,4.762,4.1093,4.205,4.2784,4.3253,4.359,4.4317,4.4866,4.5355,4.5878,4.618,4.6313,4.6313,4.6494,4.6793,4.71,4.7383,4.769,4.8068,4.8431,4.8735,4.8966,4.9297,4.9697,5.0206,5.0585,5.0906,5.1417,5.1978,5.2573,5.2734,5.2986,5.341,5.371,5.3904,5.4252,5.4539,5.4824,5.5194,5.5396,5.5581,5.583,5.6176,5.6519,5.6713,5.681,5.681,5.6858,5.7019,5.7243,5.7543,5.7871,5.812,5.8413,5.8717,5.8943,5.9123,5.9407,5.9673,5.9673,5.9673,5.9673,5.9673,5.9673,5.9673,5.9673,5.9673,5.9673,5.9673,5.9673,5.9673,5.9673,5.9673,5.9673,5.9673,5.9673,5.9673,5.9673,5.9673,5.9673,5.9673,5.9673,5.9619,5.909,5.8669,5.8081,5.7369,5.6899,5.6309,5.5807,5.5491,5.545,5.545,5.5491,5.545,5.5409,5.5409,5.5409,5.5231,5.5174,5.454,5.3789,5.246,5.1483,5.1445,5.1445,5.152,5.161,5.161,5.1239,5.0376,4.9848,4.9345,4.8693,4.8035,4.7935,4.1449,4.2303,4.3216,4.3613,4.3685,4.4426,4.4951,4.5331,4.5635,4.5999,4.6253,4.6313,4.6494,4.6721,4.6993,4.7337,4.7632,4.788,4.8243,4.8606,4.8966,4.9183,4.9583,5.0107,5.053,5.1017,5.1513,5.2019,5.2573,5.268,5.2947,5.3357,5.3568,5.3748,5.4149,5.4355,5.4575,5.5027,5.5295,5.5381,5.5681,5.6077,5.6421,5.6616,5.6761,5.681,5.6858,5.6987,5.7195,5.7574,5.7965,5.8166,5.8397,5.8717,5.8898,5.9123,5.9452,5.9628,5.9673,5.9673,5.9673,5.9673,5.9673,5.9673,5.9673,5.9673,5.9673,5.9673,5.9673,5.9673,5.9673,5.9673,5.9673,5.9716,5.9716,5.976,5.976,5.976,5.976,5.976,5.9788,5.9772,5.9529,5.9107,5.8588,5.7858,5.7161,5.6448,5.5937,5.5799,5.5709,5.5669,5.5709,5.5612,5.5491,5.5531,5.5572,5.562,5.5473,5.4914,5.4093,5.2648,5.1782,5.1704,5.1741,5.1741,5.1794,5.1831,5.1359,5.0886,5.027,4.97,4.9026,4.8448,4.8247,4.184,4.3277,4.3914,4.4117,4.4202,4.4619,4.4951,4.5331,4.5635,4.5999,4.6253,4.6313,4.6373,4.6434,4.6733,4.7066,4.7383,4.769,4.7997,4.8302,4.8895,4.9125,4.9412,4.998,5.0404,5.0906,5.1444,5.195,5.2397,5.2627,5.2855,5.3174,5.3477,5.3762,5.42,5.4406,5.4575,5.5027,5.5244,5.533,5.5566,5.588,5.6176,5.6421,5.6713,5.6761,5.681,5.6858,5.7131,5.7495,5.7965,5.8212,5.8443,5.8717,5.8943,5.9123,5.9452,5.9628,5.9673,5.9673,5.9673,5.9673,5.9673,5.9673,5.9673,5.9673,5.9673,5.9673,5.9673,5.9673,5.9673,5.9673,5.9716,5.976,5.976,5.9892,5.9979,6.0022,6.0066,6.0136,6.0163,6.0163,6.0114,5.9787,5.9559,5.8857,5.8221,5.7461,5.6629,5.6311,5.5992,5.5927,5.5886,5.5846,5.5766,5.583,5.591,5.595,5.5728,5.4972,5.3995,5.2728,5.2077,5.199,5.1888,5.1888,5.1941,5.205,5.1792,5.1336,5.0578,4.9938,4.9343,4.8811,4.8507]}]]